<?xml version="1.0" encoding="UTF-8" standalone="no" ?>
<gpx xmlns="http://www.topografix.com/GPX/1/1" xmlns:xsi="http://www.w3.org/2001/XMLSchema-instance" xsi:schemaLocation="http://www.topografix.com/GPX/1/1 http://www.topografix.com/GPX/1/1/gpx.xsd" version="1.1" creator="VisuGPX - https://www.visugpx.com">
  <metadata>
    <name>Sortie vélo dans l'après-midi</name>
  </metadata>
  <trk>
    <name><![CDATA[Sortie vélo dans l'après-midi_1]]></name>
    <extensions>
      <line xmlns="http://www.topografix.com/GPX/gpx_style/0/2">
        <color>0000FF</color>
        <width>4</width>
      </line>
    </extensions>
    <trkseg>
      <trkpt lat="47.89093" lon="-3.88219">
        <ele>74.2</ele>
        <time>2023-07-03T11:26:12Z</time>
      </trkpt>
      <trkpt lat="47.89093" lon="-3.88219">
        <ele>74.2</ele>
        <time>2023-07-03T11:26:16Z</time>
      </trkpt>
      <trkpt lat="47.89093" lon="-3.88219">
        <ele>74.2</ele>
        <time>2023-07-03T11:26:20Z</time>
      </trkpt>
      <trkpt lat="47.89093" lon="-3.88219">
        <ele>73.6</ele>
        <time>2023-07-03T11:26:24Z</time>
      </trkpt>
      <trkpt lat="47.89093" lon="-3.88237">
        <ele>73.8</ele>
        <time>2023-07-03T11:26:28Z</time>
      </trkpt>
      <trkpt lat="47.8909" lon="-3.88258">
        <ele>73.2</ele>
        <time>2023-07-03T11:26:32Z</time>
      </trkpt>
      <trkpt lat="47.89086" lon="-3.8828">
        <ele>73.2</ele>
        <time>2023-07-03T11:26:36Z</time>
      </trkpt>
      <trkpt lat="47.8908" lon="-3.88302">
        <ele>73.8</ele>
        <time>2023-07-03T11:26:40Z</time>
      </trkpt>
      <trkpt lat="47.89075" lon="-3.88327">
        <ele>72.4</ele>
        <time>2023-07-03T11:26:44Z</time>
      </trkpt>
      <trkpt lat="47.89063" lon="-3.88354">
        <ele>71.6</ele>
        <time>2023-07-03T11:26:48Z</time>
      </trkpt>
      <trkpt lat="47.89048" lon="-3.88388">
        <ele>69.2</ele>
        <time>2023-07-03T11:26:52Z</time>
      </trkpt>
      <trkpt lat="47.89034" lon="-3.88424">
        <ele>66</ele>
        <time>2023-07-03T11:26:56Z</time>
      </trkpt>
      <trkpt lat="47.89026" lon="-3.88448">
        <ele>68</ele>
        <time>2023-07-03T11:27:00Z</time>
      </trkpt>
      <trkpt lat="47.89011" lon="-3.88447">
        <ele>68.8</ele>
        <time>2023-07-03T11:27:04Z</time>
      </trkpt>
      <trkpt lat="47.88992" lon="-3.88436">
        <ele>68.2</ele>
        <time>2023-07-03T11:27:08Z</time>
      </trkpt>
      <trkpt lat="47.88969" lon="-3.88431">
        <ele>67.2</ele>
        <time>2023-07-03T11:27:12Z</time>
      </trkpt>
      <trkpt lat="47.88945" lon="-3.88427">
        <ele>66.8</ele>
        <time>2023-07-03T11:27:16Z</time>
      </trkpt>
      <trkpt lat="47.88921" lon="-3.88422">
        <ele>66</ele>
        <time>2023-07-03T11:27:20Z</time>
      </trkpt>
      <trkpt lat="47.88898" lon="-3.88417">
        <ele>66</ele>
        <time>2023-07-03T11:27:24Z</time>
      </trkpt>
      <trkpt lat="47.88875" lon="-3.88415">
        <ele>66.2</ele>
        <time>2023-07-03T11:27:28Z</time>
      </trkpt>
      <trkpt lat="47.88853" lon="-3.88414">
        <ele>66.2</ele>
        <time>2023-07-03T11:27:32Z</time>
      </trkpt>
      <trkpt lat="47.88832" lon="-3.88411">
        <ele>65.4</ele>
        <time>2023-07-03T11:27:36Z</time>
      </trkpt>
      <trkpt lat="47.8881" lon="-3.88421">
        <ele>64.8</ele>
        <time>2023-07-03T11:27:40Z</time>
      </trkpt>
      <trkpt lat="47.88789" lon="-3.88439">
        <ele>63.8</ele>
        <time>2023-07-03T11:27:44Z</time>
      </trkpt>
      <trkpt lat="47.88766" lon="-3.8845">
        <ele>61.4</ele>
        <time>2023-07-03T11:27:48Z</time>
      </trkpt>
      <trkpt lat="47.88742" lon="-3.88459">
        <ele>59.2</ele>
        <time>2023-07-03T11:27:52Z</time>
      </trkpt>
      <trkpt lat="47.88712" lon="-3.88462">
        <ele>57.4</ele>
        <time>2023-07-03T11:27:56Z</time>
      </trkpt>
      <trkpt lat="47.88686" lon="-3.88464">
        <ele>57.4</ele>
        <time>2023-07-03T11:28:00Z</time>
      </trkpt>
      <trkpt lat="47.88661" lon="-3.88459">
        <ele>58</ele>
        <time>2023-07-03T11:28:04Z</time>
      </trkpt>
      <trkpt lat="47.88651" lon="-3.88457">
        <ele>58</ele>
        <time>2023-07-03T11:28:08Z</time>
      </trkpt>
      <trkpt lat="47.88644" lon="-3.88456">
        <ele>55.8</ele>
        <time>2023-07-03T11:28:12Z</time>
      </trkpt>
      <trkpt lat="47.88635" lon="-3.88451">
        <ele>55</ele>
        <time>2023-07-03T11:28:16Z</time>
      </trkpt>
      <trkpt lat="47.88629" lon="-3.88448">
        <ele>54</ele>
        <time>2023-07-03T11:28:20Z</time>
      </trkpt>
      <trkpt lat="47.88621" lon="-3.88444">
        <ele>53</ele>
        <time>2023-07-03T11:28:24Z</time>
      </trkpt>
      <trkpt lat="47.88616" lon="-3.88439">
        <ele>51.4</ele>
        <time>2023-07-03T11:28:28Z</time>
      </trkpt>
      <trkpt lat="47.88611" lon="-3.88433">
        <ele>51</ele>
        <time>2023-07-03T11:28:32Z</time>
      </trkpt>
      <trkpt lat="47.88602" lon="-3.88425">
        <ele>50.2</ele>
        <time>2023-07-03T11:28:36Z</time>
      </trkpt>
      <trkpt lat="47.88593" lon="-3.88417">
        <ele>48.8</ele>
        <time>2023-07-03T11:28:40Z</time>
      </trkpt>
      <trkpt lat="47.8858" lon="-3.88414">
        <ele>48.8</ele>
        <time>2023-07-03T11:28:44Z</time>
      </trkpt>
      <trkpt lat="47.88566" lon="-3.88406">
        <ele>48.6</ele>
        <time>2023-07-03T11:28:48Z</time>
      </trkpt>
      <trkpt lat="47.88552" lon="-3.88398">
        <ele>47.4</ele>
        <time>2023-07-03T11:28:52Z</time>
      </trkpt>
      <trkpt lat="47.88543" lon="-3.88387">
        <ele>47.4</ele>
        <time>2023-07-03T11:28:56Z</time>
      </trkpt>
      <trkpt lat="47.88528" lon="-3.88379">
        <ele>44.4</ele>
        <time>2023-07-03T11:29:00Z</time>
      </trkpt>
      <trkpt lat="47.88519" lon="-3.8837">
        <ele>44</ele>
        <time>2023-07-03T11:29:04Z</time>
      </trkpt>
      <trkpt lat="47.88507" lon="-3.88364">
        <ele>42.8</ele>
        <time>2023-07-03T11:29:08Z</time>
      </trkpt>
      <trkpt lat="47.88498" lon="-3.88361">
        <ele>41.4</ele>
        <time>2023-07-03T11:29:12Z</time>
      </trkpt>
      <trkpt lat="47.8849" lon="-3.88355">
        <ele>39</ele>
        <time>2023-07-03T11:29:16Z</time>
      </trkpt>
      <trkpt lat="47.8848" lon="-3.88345">
        <ele>37.4</ele>
        <time>2023-07-03T11:29:20Z</time>
      </trkpt>
      <trkpt lat="47.88466" lon="-3.88337">
        <ele>34.8</ele>
        <time>2023-07-03T11:29:24Z</time>
      </trkpt>
      <trkpt lat="47.88457" lon="-3.88326">
        <ele>33</ele>
        <time>2023-07-03T11:29:28Z</time>
      </trkpt>
      <trkpt lat="47.88446" lon="-3.88318">
        <ele>31.2</ele>
        <time>2023-07-03T11:29:32Z</time>
      </trkpt>
      <trkpt lat="47.88439" lon="-3.88311">
        <ele>29.6</ele>
        <time>2023-07-03T11:29:36Z</time>
      </trkpt>
      <trkpt lat="47.88435" lon="-3.88305">
        <ele>29.6</ele>
        <time>2023-07-03T11:29:40Z</time>
      </trkpt>
      <trkpt lat="47.88428" lon="-3.88296">
        <ele>27.4</ele>
        <time>2023-07-03T11:29:44Z</time>
      </trkpt>
      <trkpt lat="47.88419" lon="-3.88287">
        <ele>25.6</ele>
        <time>2023-07-03T11:29:48Z</time>
      </trkpt>
      <trkpt lat="47.88412" lon="-3.88279">
        <ele>23.6</ele>
        <time>2023-07-03T11:29:52Z</time>
      </trkpt>
      <trkpt lat="47.88406" lon="-3.88276">
        <ele>22.2</ele>
        <time>2023-07-03T11:29:56Z</time>
      </trkpt>
      <trkpt lat="47.884" lon="-3.8827">
        <ele>20.6</ele>
        <time>2023-07-03T11:30:00Z</time>
      </trkpt>
      <trkpt lat="47.88391" lon="-3.88266">
        <ele>18.6</ele>
        <time>2023-07-03T11:30:04Z</time>
      </trkpt>
      <trkpt lat="47.8838" lon="-3.88264">
        <ele>16</ele>
        <time>2023-07-03T11:30:08Z</time>
      </trkpt>
      <trkpt lat="47.88372" lon="-3.88264">
        <ele>14.6</ele>
        <time>2023-07-03T11:30:12Z</time>
      </trkpt>
      <trkpt lat="47.88364" lon="-3.88257">
        <ele>12.6</ele>
        <time>2023-07-03T11:30:16Z</time>
      </trkpt>
      <trkpt lat="47.88357" lon="-3.88251">
        <ele>10.4</ele>
        <time>2023-07-03T11:30:20Z</time>
      </trkpt>
      <trkpt lat="47.88349" lon="-3.88248">
        <ele>9.6</ele>
        <time>2023-07-03T11:30:24Z</time>
      </trkpt>
      <trkpt lat="47.88339" lon="-3.88233">
        <ele>9.6</ele>
        <time>2023-07-03T11:30:28Z</time>
      </trkpt>
      <trkpt lat="47.88331" lon="-3.88208">
        <ele>8.2</ele>
        <time>2023-07-03T11:30:32Z</time>
      </trkpt>
      <trkpt lat="47.88309" lon="-3.882">
        <ele>5.8</ele>
        <time>2023-07-03T11:30:36Z</time>
      </trkpt>
      <trkpt lat="47.88284" lon="-3.88202">
        <ele>5.8</ele>
        <time>2023-07-03T11:30:40Z</time>
      </trkpt>
      <trkpt lat="47.88258" lon="-3.88198">
        <ele>5.6</ele>
        <time>2023-07-03T11:30:44Z</time>
      </trkpt>
      <trkpt lat="47.88237" lon="-3.88191">
        <ele>6.8</ele>
        <time>2023-07-03T11:30:48Z</time>
      </trkpt>
      <trkpt lat="47.88217" lon="-3.88203">
        <ele>7.8</ele>
        <time>2023-07-03T11:30:52Z</time>
      </trkpt>
      <trkpt lat="47.88208" lon="-3.88191">
        <ele>10</ele>
        <time>2023-07-03T11:30:56Z</time>
      </trkpt>
      <trkpt lat="47.88205" lon="-3.88173">
        <ele>11.4</ele>
        <time>2023-07-03T11:31:00Z</time>
      </trkpt>
      <trkpt lat="47.88204" lon="-3.88149">
        <ele>12.8</ele>
        <time>2023-07-03T11:31:04Z</time>
      </trkpt>
      <trkpt lat="47.88204" lon="-3.88128">
        <ele>14</ele>
        <time>2023-07-03T11:31:08Z</time>
      </trkpt>
      <trkpt lat="47.88201" lon="-3.88111">
        <ele>14</ele>
        <time>2023-07-03T11:31:12Z</time>
      </trkpt>
      <trkpt lat="47.88195" lon="-3.88099">
        <ele>15.6</ele>
        <time>2023-07-03T11:31:16Z</time>
      </trkpt>
      <trkpt lat="47.8819" lon="-3.88093">
        <ele>16.4</ele>
        <time>2023-07-03T11:31:20Z</time>
      </trkpt>
      <trkpt lat="47.8819" lon="-3.88093">
        <ele>16.4</ele>
        <time>2023-07-03T11:31:24Z</time>
      </trkpt>
      <trkpt lat="47.8819" lon="-3.88092">
        <ele>16.4</ele>
        <time>2023-07-03T11:31:28Z</time>
      </trkpt>
      <trkpt lat="47.88185" lon="-3.88079">
        <ele>15.8</ele>
        <time>2023-07-03T11:31:32Z</time>
      </trkpt>
      <trkpt lat="47.88178" lon="-3.88073">
        <ele>16.2</ele>
        <time>2023-07-03T11:31:36Z</time>
      </trkpt>
      <trkpt lat="47.88168" lon="-3.88067">
        <ele>16.4</ele>
        <time>2023-07-03T11:31:40Z</time>
      </trkpt>
      <trkpt lat="47.88157" lon="-3.88064">
        <ele>16.8</ele>
        <time>2023-07-03T11:31:44Z</time>
      </trkpt>
      <trkpt lat="47.88144" lon="-3.88062">
        <ele>17.6</ele>
        <time>2023-07-03T11:31:48Z</time>
      </trkpt>
      <trkpt lat="47.88134" lon="-3.8806">
        <ele>18</ele>
        <time>2023-07-03T11:31:52Z</time>
      </trkpt>
      <trkpt lat="47.88123" lon="-3.88055">
        <ele>19</ele>
        <time>2023-07-03T11:31:56Z</time>
      </trkpt>
      <trkpt lat="47.88114" lon="-3.88053">
        <ele>19.8</ele>
        <time>2023-07-03T11:32:00Z</time>
      </trkpt>
      <trkpt lat="47.88104" lon="-3.8805">
        <ele>20.8</ele>
        <time>2023-07-03T11:32:04Z</time>
      </trkpt>
      <trkpt lat="47.88098" lon="-3.88047">
        <ele>21</ele>
        <time>2023-07-03T11:32:08Z</time>
      </trkpt>
      <trkpt lat="47.88091" lon="-3.88041">
        <ele>21.6</ele>
        <time>2023-07-03T11:32:12Z</time>
      </trkpt>
      <trkpt lat="47.88084" lon="-3.88038">
        <ele>23</ele>
        <time>2023-07-03T11:32:16Z</time>
      </trkpt>
      <trkpt lat="47.88078" lon="-3.88031">
        <ele>24.4</ele>
        <time>2023-07-03T11:32:20Z</time>
      </trkpt>
      <trkpt lat="47.88072" lon="-3.88026">
        <ele>25.4</ele>
        <time>2023-07-03T11:32:24Z</time>
      </trkpt>
      <trkpt lat="47.88066" lon="-3.88019">
        <ele>26.4</ele>
        <time>2023-07-03T11:32:28Z</time>
      </trkpt>
      <trkpt lat="47.88058" lon="-3.88014">
        <ele>27.2</ele>
        <time>2023-07-03T11:32:32Z</time>
      </trkpt>
      <trkpt lat="47.88048" lon="-3.88007">
        <ele>27.6</ele>
        <time>2023-07-03T11:32:36Z</time>
      </trkpt>
      <trkpt lat="47.88041" lon="-3.88001">
        <ele>30</ele>
        <time>2023-07-03T11:32:40Z</time>
      </trkpt>
      <trkpt lat="47.88036" lon="-3.87997">
        <ele>30</ele>
        <time>2023-07-03T11:32:44Z</time>
      </trkpt>
      <trkpt lat="47.88031" lon="-3.87994">
        <ele>30.8</ele>
        <time>2023-07-03T11:32:48Z</time>
      </trkpt>
      <trkpt lat="47.88026" lon="-3.87986">
        <ele>32</ele>
        <time>2023-07-03T11:32:52Z</time>
      </trkpt>
      <trkpt lat="47.88018" lon="-3.87981">
        <ele>32.4</ele>
        <time>2023-07-03T11:32:56Z</time>
      </trkpt>
      <trkpt lat="47.88008" lon="-3.87978">
        <ele>33.4</ele>
        <time>2023-07-03T11:33:00Z</time>
      </trkpt>
      <trkpt lat="47.88001" lon="-3.87975">
        <ele>34.4</ele>
        <time>2023-07-03T11:33:04Z</time>
      </trkpt>
      <trkpt lat="47.87993" lon="-3.87973">
        <ele>35.2</ele>
        <time>2023-07-03T11:33:08Z</time>
      </trkpt>
      <trkpt lat="47.87984" lon="-3.87971">
        <ele>35.8</ele>
        <time>2023-07-03T11:33:12Z</time>
      </trkpt>
      <trkpt lat="47.87975" lon="-3.87969">
        <ele>36.8</ele>
        <time>2023-07-03T11:33:16Z</time>
      </trkpt>
      <trkpt lat="47.87967" lon="-3.87967">
        <ele>37.8</ele>
        <time>2023-07-03T11:33:20Z</time>
      </trkpt>
      <trkpt lat="47.8796" lon="-3.87959">
        <ele>39</ele>
        <time>2023-07-03T11:33:24Z</time>
      </trkpt>
      <trkpt lat="47.87954" lon="-3.87958">
        <ele>40.6</ele>
        <time>2023-07-03T11:33:28Z</time>
      </trkpt>
      <trkpt lat="47.87948" lon="-3.87956">
        <ele>40.6</ele>
        <time>2023-07-03T11:33:32Z</time>
      </trkpt>
      <trkpt lat="47.87942" lon="-3.87954">
        <ele>41.6</ele>
        <time>2023-07-03T11:33:36Z</time>
      </trkpt>
      <trkpt lat="47.87933" lon="-3.87953">
        <ele>42.2</ele>
        <time>2023-07-03T11:33:40Z</time>
      </trkpt>
      <trkpt lat="47.87925" lon="-3.87951">
        <ele>42.8</ele>
        <time>2023-07-03T11:33:44Z</time>
      </trkpt>
      <trkpt lat="47.87918" lon="-3.8795">
        <ele>43.6</ele>
        <time>2023-07-03T11:33:48Z</time>
      </trkpt>
      <trkpt lat="47.87911" lon="-3.87947">
        <ele>44.2</ele>
        <time>2023-07-03T11:33:52Z</time>
      </trkpt>
      <trkpt lat="47.879" lon="-3.87946">
        <ele>44.6</ele>
        <time>2023-07-03T11:33:56Z</time>
      </trkpt>
      <trkpt lat="47.87891" lon="-3.87942">
        <ele>45</ele>
        <time>2023-07-03T11:34:00Z</time>
      </trkpt>
      <trkpt lat="47.87881" lon="-3.87942">
        <ele>45.8</ele>
        <time>2023-07-03T11:34:04Z</time>
      </trkpt>
      <trkpt lat="47.87871" lon="-3.8794">
        <ele>44.6</ele>
        <time>2023-07-03T11:34:08Z</time>
      </trkpt>
      <trkpt lat="47.87862" lon="-3.87942">
        <ele>46</ele>
        <time>2023-07-03T11:34:12Z</time>
      </trkpt>
      <trkpt lat="47.87852" lon="-3.87941">
        <ele>47</ele>
        <time>2023-07-03T11:34:16Z</time>
      </trkpt>
      <trkpt lat="47.87843" lon="-3.87941">
        <ele>48</ele>
        <time>2023-07-03T11:34:20Z</time>
      </trkpt>
      <trkpt lat="47.87834" lon="-3.87939">
        <ele>49</ele>
        <time>2023-07-03T11:34:24Z</time>
      </trkpt>
      <trkpt lat="47.87826" lon="-3.87937">
        <ele>49.4</ele>
        <time>2023-07-03T11:34:28Z</time>
      </trkpt>
      <trkpt lat="47.87818" lon="-3.87934">
        <ele>50.2</ele>
        <time>2023-07-03T11:34:32Z</time>
      </trkpt>
      <trkpt lat="47.87813" lon="-3.8793">
        <ele>51.4</ele>
        <time>2023-07-03T11:34:36Z</time>
      </trkpt>
      <trkpt lat="47.87813" lon="-3.8793">
        <ele>51.8</ele>
        <time>2023-07-03T11:34:40Z</time>
      </trkpt>
      <trkpt lat="47.87813" lon="-3.8793">
        <ele>51.6</ele>
        <time>2023-07-03T11:34:44Z</time>
      </trkpt>
      <trkpt lat="47.87813" lon="-3.8793">
        <ele>51.6</ele>
        <time>2023-07-03T11:34:48Z</time>
      </trkpt>
      <trkpt lat="47.87813" lon="-3.8793">
        <ele>51.8</ele>
        <time>2023-07-03T11:34:52Z</time>
      </trkpt>
      <trkpt lat="47.87813" lon="-3.8793">
        <ele>51.6</ele>
        <time>2023-07-03T11:34:56Z</time>
      </trkpt>
      <trkpt lat="47.87813" lon="-3.8793">
        <ele>51.6</ele>
        <time>2023-07-03T11:35:00Z</time>
      </trkpt>
      <trkpt lat="47.87813" lon="-3.8793">
        <ele>51</ele>
        <time>2023-07-03T11:35:04Z</time>
      </trkpt>
      <trkpt lat="47.87813" lon="-3.8793">
        <ele>51</ele>
        <time>2023-07-03T11:35:08Z</time>
      </trkpt>
      <trkpt lat="47.87813" lon="-3.8793">
        <ele>51</ele>
        <time>2023-07-03T11:35:12Z</time>
      </trkpt>
      <trkpt lat="47.87813" lon="-3.8793">
        <ele>51.6</ele>
        <time>2023-07-03T11:35:16Z</time>
      </trkpt>
      <trkpt lat="47.87813" lon="-3.8793">
        <ele>51.6</ele>
        <time>2023-07-03T11:35:20Z</time>
      </trkpt>
      <trkpt lat="47.87813" lon="-3.8793">
        <ele>51.6</ele>
        <time>2023-07-03T11:35:24Z</time>
      </trkpt>
      <trkpt lat="47.87813" lon="-3.8793">
        <ele>51.6</ele>
        <time>2023-07-03T11:35:28Z</time>
      </trkpt>
      <trkpt lat="47.87813" lon="-3.8793">
        <ele>51.6</ele>
        <time>2023-07-03T11:35:32Z</time>
      </trkpt>
      <trkpt lat="47.87813" lon="-3.8793">
        <ele>51.6</ele>
        <time>2023-07-03T11:35:36Z</time>
      </trkpt>
      <trkpt lat="47.87813" lon="-3.8793">
        <ele>51.8</ele>
        <time>2023-07-03T11:35:40Z</time>
      </trkpt>
      <trkpt lat="47.87813" lon="-3.8793">
        <ele>51.8</ele>
        <time>2023-07-03T11:35:44Z</time>
      </trkpt>
      <trkpt lat="47.87813" lon="-3.8793">
        <ele>52</ele>
        <time>2023-07-03T11:35:48Z</time>
      </trkpt>
      <trkpt lat="47.87813" lon="-3.8793">
        <ele>52</ele>
        <time>2023-07-03T11:35:52Z</time>
      </trkpt>
      <trkpt lat="47.87813" lon="-3.8793">
        <ele>52</ele>
        <time>2023-07-03T11:35:56Z</time>
      </trkpt>
      <trkpt lat="47.87813" lon="-3.8793">
        <ele>51.6</ele>
        <time>2023-07-03T11:36:00Z</time>
      </trkpt>
      <trkpt lat="47.87813" lon="-3.8793">
        <ele>51.6</ele>
        <time>2023-07-03T11:36:04Z</time>
      </trkpt>
      <trkpt lat="47.87813" lon="-3.8793">
        <ele>51.6</ele>
        <time>2023-07-03T11:36:08Z</time>
      </trkpt>
      <trkpt lat="47.87813" lon="-3.8793">
        <ele>51.6</ele>
        <time>2023-07-03T11:36:12Z</time>
      </trkpt>
      <trkpt lat="47.87813" lon="-3.8793">
        <ele>51.6</ele>
        <time>2023-07-03T11:36:16Z</time>
      </trkpt>
      <trkpt lat="47.87813" lon="-3.8793">
        <ele>51.4</ele>
        <time>2023-07-03T11:36:20Z</time>
      </trkpt>
      <trkpt lat="47.87813" lon="-3.8793">
        <ele>51.6</ele>
        <time>2023-07-03T11:36:24Z</time>
      </trkpt>
      <trkpt lat="47.87813" lon="-3.8793">
        <ele>51.6</ele>
        <time>2023-07-03T11:36:28Z</time>
      </trkpt>
      <trkpt lat="47.87813" lon="-3.8793">
        <ele>51.6</ele>
        <time>2023-07-03T11:36:32Z</time>
      </trkpt>
      <trkpt lat="47.87813" lon="-3.8793">
        <ele>51.2</ele>
        <time>2023-07-03T11:36:36Z</time>
      </trkpt>
      <trkpt lat="47.87813" lon="-3.8793">
        <ele>51.6</ele>
        <time>2023-07-03T11:36:40Z</time>
      </trkpt>
      <trkpt lat="47.87813" lon="-3.8793">
        <ele>51.4</ele>
        <time>2023-07-03T11:36:44Z</time>
      </trkpt>
      <trkpt lat="47.87813" lon="-3.8793">
        <ele>51.2</ele>
        <time>2023-07-03T11:36:48Z</time>
      </trkpt>
      <trkpt lat="47.87813" lon="-3.8793">
        <ele>51</ele>
        <time>2023-07-03T11:36:52Z</time>
      </trkpt>
      <trkpt lat="47.87813" lon="-3.8793">
        <ele>51.6</ele>
        <time>2023-07-03T11:36:56Z</time>
      </trkpt>
      <trkpt lat="47.87813" lon="-3.8793">
        <ele>51.6</ele>
        <time>2023-07-03T11:37:00Z</time>
      </trkpt>
      <trkpt lat="47.87813" lon="-3.8793">
        <ele>52</ele>
        <time>2023-07-03T11:37:04Z</time>
      </trkpt>
      <trkpt lat="47.87813" lon="-3.8793">
        <ele>52</ele>
        <time>2023-07-03T11:37:08Z</time>
      </trkpt>
      <trkpt lat="47.87813" lon="-3.8793">
        <ele>52.2</ele>
        <time>2023-07-03T11:37:12Z</time>
      </trkpt>
      <trkpt lat="47.87813" lon="-3.8793">
        <ele>52.2</ele>
        <time>2023-07-03T11:37:16Z</time>
      </trkpt>
      <trkpt lat="47.87813" lon="-3.8793">
        <ele>52.2</ele>
        <time>2023-07-03T11:37:20Z</time>
      </trkpt>
      <trkpt lat="47.87813" lon="-3.8793">
        <ele>52.2</ele>
        <time>2023-07-03T11:37:24Z</time>
      </trkpt>
      <trkpt lat="47.87813" lon="-3.8793">
        <ele>52.2</ele>
        <time>2023-07-03T11:37:28Z</time>
      </trkpt>
      <trkpt lat="47.87813" lon="-3.8793">
        <ele>52</ele>
        <time>2023-07-03T11:37:32Z</time>
      </trkpt>
      <trkpt lat="47.87813" lon="-3.8793">
        <ele>52</ele>
        <time>2023-07-03T11:37:36Z</time>
      </trkpt>
      <trkpt lat="47.87813" lon="-3.8793">
        <ele>52.2</ele>
        <time>2023-07-03T11:37:40Z</time>
      </trkpt>
      <trkpt lat="47.87813" lon="-3.8793">
        <ele>52</ele>
        <time>2023-07-03T11:37:44Z</time>
      </trkpt>
      <trkpt lat="47.87813" lon="-3.8793">
        <ele>52</ele>
        <time>2023-07-03T11:37:48Z</time>
      </trkpt>
      <trkpt lat="47.87813" lon="-3.8793">
        <ele>52</ele>
        <time>2023-07-03T11:37:52Z</time>
      </trkpt>
      <trkpt lat="47.87813" lon="-3.8793">
        <ele>52</ele>
        <time>2023-07-03T11:37:56Z</time>
      </trkpt>
      <trkpt lat="47.87804" lon="-3.87925">
        <ele>51.6</ele>
        <time>2023-07-03T11:38:00Z</time>
      </trkpt>
      <trkpt lat="47.878" lon="-3.87922">
        <ele>52.8</ele>
        <time>2023-07-03T11:38:04Z</time>
      </trkpt>
      <trkpt lat="47.87798" lon="-3.87919">
        <ele>52.6</ele>
        <time>2023-07-03T11:38:08Z</time>
      </trkpt>
      <trkpt lat="47.87789" lon="-3.87913">
        <ele>52.2</ele>
        <time>2023-07-03T11:38:12Z</time>
      </trkpt>
      <trkpt lat="47.87776" lon="-3.87908">
        <ele>51.2</ele>
        <time>2023-07-03T11:38:16Z</time>
      </trkpt>
      <trkpt lat="47.87761" lon="-3.87905">
        <ele>51</ele>
        <time>2023-07-03T11:38:20Z</time>
      </trkpt>
      <trkpt lat="47.87745" lon="-3.87898">
        <ele>51.2</ele>
        <time>2023-07-03T11:38:24Z</time>
      </trkpt>
      <trkpt lat="47.87729" lon="-3.87892">
        <ele>50.6</ele>
        <time>2023-07-03T11:38:28Z</time>
      </trkpt>
      <trkpt lat="47.87708" lon="-3.87887">
        <ele>50</ele>
        <time>2023-07-03T11:38:32Z</time>
      </trkpt>
      <trkpt lat="47.87682" lon="-3.8788">
        <ele>48.6</ele>
        <time>2023-07-03T11:38:36Z</time>
      </trkpt>
      <trkpt lat="47.87653" lon="-3.87877">
        <ele>45.8</ele>
        <time>2023-07-03T11:38:40Z</time>
      </trkpt>
      <trkpt lat="47.87618" lon="-3.87872">
        <ele>44</ele>
        <time>2023-07-03T11:38:44Z</time>
      </trkpt>
      <trkpt lat="47.87582" lon="-3.8787">
        <ele>41.2</ele>
        <time>2023-07-03T11:38:48Z</time>
      </trkpt>
      <trkpt lat="47.87552" lon="-3.87877">
        <ele>42.2</ele>
        <time>2023-07-03T11:38:52Z</time>
      </trkpt>
      <trkpt lat="47.87524" lon="-3.8789">
        <ele>43.6</ele>
        <time>2023-07-03T11:38:56Z</time>
      </trkpt>
      <trkpt lat="47.87494" lon="-3.87902">
        <ele>42.8</ele>
        <time>2023-07-03T11:39:00Z</time>
      </trkpt>
      <trkpt lat="47.87465" lon="-3.87909">
        <ele>43.2</ele>
        <time>2023-07-03T11:39:04Z</time>
      </trkpt>
      <trkpt lat="47.87438" lon="-3.87912">
        <ele>42</ele>
        <time>2023-07-03T11:39:08Z</time>
      </trkpt>
      <trkpt lat="47.87411" lon="-3.87914">
        <ele>41.6</ele>
        <time>2023-07-03T11:39:12Z</time>
      </trkpt>
      <trkpt lat="47.87382" lon="-3.87916">
        <ele>40.8</ele>
        <time>2023-07-03T11:39:16Z</time>
      </trkpt>
      <trkpt lat="47.87351" lon="-3.87921">
        <ele>38.8</ele>
        <time>2023-07-03T11:39:20Z</time>
      </trkpt>
      <trkpt lat="47.87321" lon="-3.87929">
        <ele>37.6</ele>
        <time>2023-07-03T11:39:24Z</time>
      </trkpt>
      <trkpt lat="47.8729" lon="-3.87938">
        <ele>36</ele>
        <time>2023-07-03T11:39:28Z</time>
      </trkpt>
      <trkpt lat="47.87259" lon="-3.87948">
        <ele>34.4</ele>
        <time>2023-07-03T11:39:32Z</time>
      </trkpt>
      <trkpt lat="47.87228" lon="-3.87959">
        <ele>34.4</ele>
        <time>2023-07-03T11:39:36Z</time>
      </trkpt>
      <trkpt lat="47.872" lon="-3.87974">
        <ele>33</ele>
        <time>2023-07-03T11:39:40Z</time>
      </trkpt>
      <trkpt lat="47.87171" lon="-3.87996">
        <ele>31.6</ele>
        <time>2023-07-03T11:39:44Z</time>
      </trkpt>
      <trkpt lat="47.87142" lon="-3.8802">
        <ele>31.2</ele>
        <time>2023-07-03T11:39:48Z</time>
      </trkpt>
      <trkpt lat="47.87113" lon="-3.88044">
        <ele>30</ele>
        <time>2023-07-03T11:39:52Z</time>
      </trkpt>
      <trkpt lat="47.87081" lon="-3.88062">
        <ele>28</ele>
        <time>2023-07-03T11:39:56Z</time>
      </trkpt>
      <trkpt lat="47.87048" lon="-3.88072">
        <ele>26</ele>
        <time>2023-07-03T11:40:00Z</time>
      </trkpt>
      <trkpt lat="47.87015" lon="-3.88078">
        <ele>25.4</ele>
        <time>2023-07-03T11:40:04Z</time>
      </trkpt>
      <trkpt lat="47.86986" lon="-3.88089">
        <ele>26.2</ele>
        <time>2023-07-03T11:40:08Z</time>
      </trkpt>
      <trkpt lat="47.86962" lon="-3.88115">
        <ele>24.4</ele>
        <time>2023-07-03T11:40:12Z</time>
      </trkpt>
      <trkpt lat="47.86947" lon="-3.88143">
        <ele>24.6</ele>
        <time>2023-07-03T11:40:16Z</time>
      </trkpt>
      <trkpt lat="47.86939" lon="-3.88167">
        <ele>27</ele>
        <time>2023-07-03T11:40:20Z</time>
      </trkpt>
      <trkpt lat="47.86934" lon="-3.88177">
        <ele>29</ele>
        <time>2023-07-03T11:40:24Z</time>
      </trkpt>
      <trkpt lat="47.86921" lon="-3.88169">
        <ele>26.4</ele>
        <time>2023-07-03T11:40:28Z</time>
      </trkpt>
      <trkpt lat="47.86904" lon="-3.88151">
        <ele>27.4</ele>
        <time>2023-07-03T11:40:32Z</time>
      </trkpt>
      <trkpt lat="47.86889" lon="-3.88128">
        <ele>26</ele>
        <time>2023-07-03T11:40:36Z</time>
      </trkpt>
      <trkpt lat="47.86873" lon="-3.88104">
        <ele>26.6</ele>
        <time>2023-07-03T11:40:40Z</time>
      </trkpt>
      <trkpt lat="47.86858" lon="-3.88081">
        <ele>26</ele>
        <time>2023-07-03T11:40:44Z</time>
      </trkpt>
      <trkpt lat="47.86845" lon="-3.88055">
        <ele>24.4</ele>
        <time>2023-07-03T11:40:48Z</time>
      </trkpt>
      <trkpt lat="47.86828" lon="-3.8803">
        <ele>22.6</ele>
        <time>2023-07-03T11:40:52Z</time>
      </trkpt>
      <trkpt lat="47.86812" lon="-3.88003">
        <ele>23</ele>
        <time>2023-07-03T11:40:56Z</time>
      </trkpt>
      <trkpt lat="47.86797" lon="-3.87974">
        <ele>21.6</ele>
        <time>2023-07-03T11:41:00Z</time>
      </trkpt>
      <trkpt lat="47.86783" lon="-3.87944">
        <ele>21.2</ele>
        <time>2023-07-03T11:41:04Z</time>
      </trkpt>
      <trkpt lat="47.86764" lon="-3.87915">
        <ele>19</ele>
        <time>2023-07-03T11:41:08Z</time>
      </trkpt>
      <trkpt lat="47.86751" lon="-3.87892">
        <ele>19</ele>
        <time>2023-07-03T11:41:12Z</time>
      </trkpt>
      <trkpt lat="47.86736" lon="-3.8787">
        <ele>17.8</ele>
        <time>2023-07-03T11:41:16Z</time>
      </trkpt>
      <trkpt lat="47.86721" lon="-3.87844">
        <ele>17.4</ele>
        <time>2023-07-03T11:41:20Z</time>
      </trkpt>
      <trkpt lat="47.86705" lon="-3.87814">
        <ele>17</ele>
        <time>2023-07-03T11:41:24Z</time>
      </trkpt>
      <trkpt lat="47.86685" lon="-3.87787">
        <ele>16.8</ele>
        <time>2023-07-03T11:41:28Z</time>
      </trkpt>
      <trkpt lat="47.86665" lon="-3.87756">
        <ele>16.6</ele>
        <time>2023-07-03T11:41:32Z</time>
      </trkpt>
      <trkpt lat="47.86648" lon="-3.87732">
        <ele>17</ele>
        <time>2023-07-03T11:41:36Z</time>
      </trkpt>
      <trkpt lat="47.8663" lon="-3.87709">
        <ele>16</ele>
        <time>2023-07-03T11:41:40Z</time>
      </trkpt>
      <trkpt lat="47.86617" lon="-3.87684">
        <ele>16.2</ele>
        <time>2023-07-03T11:41:44Z</time>
      </trkpt>
      <trkpt lat="47.86606" lon="-3.8766">
        <ele>17.2</ele>
        <time>2023-07-03T11:41:48Z</time>
      </trkpt>
      <trkpt lat="47.86593" lon="-3.87628">
        <ele>17.8</ele>
        <time>2023-07-03T11:41:52Z</time>
      </trkpt>
      <trkpt lat="47.86577" lon="-3.87603">
        <ele>17.8</ele>
        <time>2023-07-03T11:41:56Z</time>
      </trkpt>
      <trkpt lat="47.86565" lon="-3.87586">
        <ele>18.2</ele>
        <time>2023-07-03T11:42:00Z</time>
      </trkpt>
      <trkpt lat="47.86553" lon="-3.87564">
        <ele>18.6</ele>
        <time>2023-07-03T11:42:04Z</time>
      </trkpt>
      <trkpt lat="47.8654" lon="-3.87538">
        <ele>18.6</ele>
        <time>2023-07-03T11:42:08Z</time>
      </trkpt>
      <trkpt lat="47.86525" lon="-3.87509">
        <ele>18.8</ele>
        <time>2023-07-03T11:42:12Z</time>
      </trkpt>
      <trkpt lat="47.86508" lon="-3.87486">
        <ele>18.6</ele>
        <time>2023-07-03T11:42:16Z</time>
      </trkpt>
      <trkpt lat="47.86492" lon="-3.87457">
        <ele>17.8</ele>
        <time>2023-07-03T11:42:20Z</time>
      </trkpt>
      <trkpt lat="47.86473" lon="-3.87426">
        <ele>17</ele>
        <time>2023-07-03T11:42:24Z</time>
      </trkpt>
      <trkpt lat="47.86456" lon="-3.87397">
        <ele>15.2</ele>
        <time>2023-07-03T11:42:28Z</time>
      </trkpt>
      <trkpt lat="47.86437" lon="-3.8737">
        <ele>14.2</ele>
        <time>2023-07-03T11:42:32Z</time>
      </trkpt>
      <trkpt lat="47.86421" lon="-3.87336">
        <ele>14.2</ele>
        <time>2023-07-03T11:42:36Z</time>
      </trkpt>
      <trkpt lat="47.86401" lon="-3.87302">
        <ele>13.8</ele>
        <time>2023-07-03T11:42:40Z</time>
      </trkpt>
      <trkpt lat="47.86383" lon="-3.87272">
        <ele>12.8</ele>
        <time>2023-07-03T11:42:44Z</time>
      </trkpt>
      <trkpt lat="47.86363" lon="-3.87242">
        <ele>12.6</ele>
        <time>2023-07-03T11:42:48Z</time>
      </trkpt>
      <trkpt lat="47.86342" lon="-3.87204">
        <ele>12.6</ele>
        <time>2023-07-03T11:42:52Z</time>
      </trkpt>
      <trkpt lat="47.86326" lon="-3.87172">
        <ele>12.8</ele>
        <time>2023-07-03T11:42:56Z</time>
      </trkpt>
      <trkpt lat="47.86305" lon="-3.87138">
        <ele>10.8</ele>
        <time>2023-07-03T11:43:00Z</time>
      </trkpt>
      <trkpt lat="47.86284" lon="-3.87106">
        <ele>10.6</ele>
        <time>2023-07-03T11:43:04Z</time>
      </trkpt>
      <trkpt lat="47.86267" lon="-3.87074">
        <ele>10.8</ele>
        <time>2023-07-03T11:43:08Z</time>
      </trkpt>
      <trkpt lat="47.86254" lon="-3.87043">
        <ele>10</ele>
        <time>2023-07-03T11:43:12Z</time>
      </trkpt>
      <trkpt lat="47.86235" lon="-3.8701">
        <ele>9.6</ele>
        <time>2023-07-03T11:43:16Z</time>
      </trkpt>
      <trkpt lat="47.86218" lon="-3.8698">
        <ele>10.8</ele>
        <time>2023-07-03T11:43:20Z</time>
      </trkpt>
      <trkpt lat="47.86202" lon="-3.86954">
        <ele>10.4</ele>
        <time>2023-07-03T11:43:24Z</time>
      </trkpt>
      <trkpt lat="47.86186" lon="-3.8693">
        <ele>10.4</ele>
        <time>2023-07-03T11:43:28Z</time>
      </trkpt>
      <trkpt lat="47.86172" lon="-3.86904">
        <ele>11.2</ele>
        <time>2023-07-03T11:43:32Z</time>
      </trkpt>
      <trkpt lat="47.86154" lon="-3.86879">
        <ele>11.6</ele>
        <time>2023-07-03T11:43:36Z</time>
      </trkpt>
      <trkpt lat="47.86141" lon="-3.86853">
        <ele>11.2</ele>
        <time>2023-07-03T11:43:40Z</time>
      </trkpt>
      <trkpt lat="47.86127" lon="-3.86826">
        <ele>11.4</ele>
        <time>2023-07-03T11:43:44Z</time>
      </trkpt>
      <trkpt lat="47.86112" lon="-3.86798">
        <ele>11.6</ele>
        <time>2023-07-03T11:43:48Z</time>
      </trkpt>
      <trkpt lat="47.86097" lon="-3.86773">
        <ele>11.4</ele>
        <time>2023-07-03T11:43:52Z</time>
      </trkpt>
      <trkpt lat="47.86085" lon="-3.86748">
        <ele>11.8</ele>
        <time>2023-07-03T11:43:56Z</time>
      </trkpt>
      <trkpt lat="47.86069" lon="-3.86725">
        <ele>12.2</ele>
        <time>2023-07-03T11:44:00Z</time>
      </trkpt>
      <trkpt lat="47.86052" lon="-3.86698">
        <ele>12.2</ele>
        <time>2023-07-03T11:44:04Z</time>
      </trkpt>
      <trkpt lat="47.86036" lon="-3.86674">
        <ele>13</ele>
        <time>2023-07-03T11:44:08Z</time>
      </trkpt>
      <trkpt lat="47.86024" lon="-3.86648">
        <ele>13.2</ele>
        <time>2023-07-03T11:44:12Z</time>
      </trkpt>
      <trkpt lat="47.86013" lon="-3.86625">
        <ele>12.8</ele>
        <time>2023-07-03T11:44:16Z</time>
      </trkpt>
      <trkpt lat="47.86001" lon="-3.86601">
        <ele>14.2</ele>
        <time>2023-07-03T11:44:20Z</time>
      </trkpt>
      <trkpt lat="47.85988" lon="-3.86579">
        <ele>14.2</ele>
        <time>2023-07-03T11:44:24Z</time>
      </trkpt>
      <trkpt lat="47.85976" lon="-3.86549">
        <ele>15.2</ele>
        <time>2023-07-03T11:44:28Z</time>
      </trkpt>
      <trkpt lat="47.8597" lon="-3.86518">
        <ele>16.6</ele>
        <time>2023-07-03T11:44:32Z</time>
      </trkpt>
      <trkpt lat="47.85963" lon="-3.86494">
        <ele>16.4</ele>
        <time>2023-07-03T11:44:36Z</time>
      </trkpt>
      <trkpt lat="47.85959" lon="-3.86467">
        <ele>17.2</ele>
        <time>2023-07-03T11:44:40Z</time>
      </trkpt>
      <trkpt lat="47.85958" lon="-3.8644">
        <ele>17.6</ele>
        <time>2023-07-03T11:44:44Z</time>
      </trkpt>
      <trkpt lat="47.85955" lon="-3.86415">
        <ele>17.2</ele>
        <time>2023-07-03T11:44:48Z</time>
      </trkpt>
      <trkpt lat="47.85958" lon="-3.86388">
        <ele>18</ele>
        <time>2023-07-03T11:44:52Z</time>
      </trkpt>
      <trkpt lat="47.85959" lon="-3.86355">
        <ele>18.8</ele>
        <time>2023-07-03T11:44:56Z</time>
      </trkpt>
      <trkpt lat="47.85957" lon="-3.86327">
        <ele>19.4</ele>
        <time>2023-07-03T11:45:00Z</time>
      </trkpt>
      <trkpt lat="47.85957" lon="-3.86294">
        <ele>19.4</ele>
        <time>2023-07-03T11:45:04Z</time>
      </trkpt>
      <trkpt lat="47.85958" lon="-3.86264">
        <ele>19.8</ele>
        <time>2023-07-03T11:45:08Z</time>
      </trkpt>
      <trkpt lat="47.85961" lon="-3.86231">
        <ele>19.6</ele>
        <time>2023-07-03T11:45:12Z</time>
      </trkpt>
      <trkpt lat="47.85962" lon="-3.86199">
        <ele>20</ele>
        <time>2023-07-03T11:45:16Z</time>
      </trkpt>
      <trkpt lat="47.8596" lon="-3.8617">
        <ele>20.6</ele>
        <time>2023-07-03T11:45:20Z</time>
      </trkpt>
      <trkpt lat="47.85959" lon="-3.86146">
        <ele>21.8</ele>
        <time>2023-07-03T11:45:24Z</time>
      </trkpt>
      <trkpt lat="47.85956" lon="-3.86123">
        <ele>22.6</ele>
        <time>2023-07-03T11:45:28Z</time>
      </trkpt>
      <trkpt lat="47.85951" lon="-3.86101">
        <ele>21.8</ele>
        <time>2023-07-03T11:45:32Z</time>
      </trkpt>
      <trkpt lat="47.85943" lon="-3.86083">
        <ele>21.8</ele>
        <time>2023-07-03T11:45:36Z</time>
      </trkpt>
      <trkpt lat="47.85937" lon="-3.86061">
        <ele>23</ele>
        <time>2023-07-03T11:45:40Z</time>
      </trkpt>
      <trkpt lat="47.85924" lon="-3.86034">
        <ele>23.6</ele>
        <time>2023-07-03T11:45:44Z</time>
      </trkpt>
      <trkpt lat="47.85913" lon="-3.8601">
        <ele>24.4</ele>
        <time>2023-07-03T11:45:48Z</time>
      </trkpt>
      <trkpt lat="47.85902" lon="-3.85985">
        <ele>24.6</ele>
        <time>2023-07-03T11:45:52Z</time>
      </trkpt>
      <trkpt lat="47.85892" lon="-3.8596">
        <ele>24.6</ele>
        <time>2023-07-03T11:45:56Z</time>
      </trkpt>
      <trkpt lat="47.85886" lon="-3.85933">
        <ele>25.6</ele>
        <time>2023-07-03T11:46:00Z</time>
      </trkpt>
      <trkpt lat="47.85885" lon="-3.85911">
        <ele>27.4</ele>
        <time>2023-07-03T11:46:04Z</time>
      </trkpt>
      <trkpt lat="47.85895" lon="-3.85885">
        <ele>27.4</ele>
        <time>2023-07-03T11:46:08Z</time>
      </trkpt>
      <trkpt lat="47.8591" lon="-3.85872">
        <ele>27.8</ele>
        <time>2023-07-03T11:46:12Z</time>
      </trkpt>
      <trkpt lat="47.85926" lon="-3.85866">
        <ele>28.8</ele>
        <time>2023-07-03T11:46:16Z</time>
      </trkpt>
      <trkpt lat="47.85945" lon="-3.85861">
        <ele>28.2</ele>
        <time>2023-07-03T11:46:20Z</time>
      </trkpt>
      <trkpt lat="47.85962" lon="-3.85858">
        <ele>28</ele>
        <time>2023-07-03T11:46:24Z</time>
      </trkpt>
      <trkpt lat="47.85983" lon="-3.85857">
        <ele>27.4</ele>
        <time>2023-07-03T11:46:28Z</time>
      </trkpt>
      <trkpt lat="47.86003" lon="-3.85861">
        <ele>27.4</ele>
        <time>2023-07-03T11:46:32Z</time>
      </trkpt>
      <trkpt lat="47.86028" lon="-3.85869">
        <ele>25.8</ele>
        <time>2023-07-03T11:46:36Z</time>
      </trkpt>
      <trkpt lat="47.86051" lon="-3.85878">
        <ele>27.4</ele>
        <time>2023-07-03T11:46:40Z</time>
      </trkpt>
      <trkpt lat="47.86067" lon="-3.85886">
        <ele>28.4</ele>
        <time>2023-07-03T11:46:44Z</time>
      </trkpt>
      <trkpt lat="47.86084" lon="-3.85892">
        <ele>29.2</ele>
        <time>2023-07-03T11:46:48Z</time>
      </trkpt>
      <trkpt lat="47.86099" lon="-3.859">
        <ele>30.2</ele>
        <time>2023-07-03T11:46:52Z</time>
      </trkpt>
      <trkpt lat="47.86116" lon="-3.85906">
        <ele>31</ele>
        <time>2023-07-03T11:46:56Z</time>
      </trkpt>
      <trkpt lat="47.86132" lon="-3.85912">
        <ele>32.8</ele>
        <time>2023-07-03T11:47:00Z</time>
      </trkpt>
      <trkpt lat="47.86147" lon="-3.85918">
        <ele>32.6</ele>
        <time>2023-07-03T11:47:04Z</time>
      </trkpt>
      <trkpt lat="47.86165" lon="-3.85922">
        <ele>33.4</ele>
        <time>2023-07-03T11:47:08Z</time>
      </trkpt>
      <trkpt lat="47.86185" lon="-3.85927">
        <ele>34</ele>
        <time>2023-07-03T11:47:12Z</time>
      </trkpt>
      <trkpt lat="47.86203" lon="-3.85931">
        <ele>34.4</ele>
        <time>2023-07-03T11:47:16Z</time>
      </trkpt>
      <trkpt lat="47.86222" lon="-3.85934">
        <ele>35.6</ele>
        <time>2023-07-03T11:47:20Z</time>
      </trkpt>
      <trkpt lat="47.86242" lon="-3.85941">
        <ele>34.6</ele>
        <time>2023-07-03T11:47:24Z</time>
      </trkpt>
      <trkpt lat="47.86265" lon="-3.85946">
        <ele>33.6</ele>
        <time>2023-07-03T11:47:28Z</time>
      </trkpt>
      <trkpt lat="47.86286" lon="-3.8594">
        <ele>33.6</ele>
        <time>2023-07-03T11:47:32Z</time>
      </trkpt>
      <trkpt lat="47.86303" lon="-3.85929">
        <ele>34.2</ele>
        <time>2023-07-03T11:47:36Z</time>
      </trkpt>
      <trkpt lat="47.86319" lon="-3.85919">
        <ele>35</ele>
        <time>2023-07-03T11:47:40Z</time>
      </trkpt>
      <trkpt lat="47.86337" lon="-3.85909">
        <ele>35.4</ele>
        <time>2023-07-03T11:47:44Z</time>
      </trkpt>
      <trkpt lat="47.86348" lon="-3.85884">
        <ele>36.6</ele>
        <time>2023-07-03T11:47:48Z</time>
      </trkpt>
      <trkpt lat="47.86347" lon="-3.85857">
        <ele>36.6</ele>
        <time>2023-07-03T11:47:52Z</time>
      </trkpt>
      <trkpt lat="47.86344" lon="-3.85831">
        <ele>37.6</ele>
        <time>2023-07-03T11:47:56Z</time>
      </trkpt>
      <trkpt lat="47.86341" lon="-3.85806">
        <ele>39</ele>
        <time>2023-07-03T11:48:00Z</time>
      </trkpt>
      <trkpt lat="47.86341" lon="-3.85782">
        <ele>41.8</ele>
        <time>2023-07-03T11:48:04Z</time>
      </trkpt>
      <trkpt lat="47.86342" lon="-3.8576">
        <ele>43</ele>
        <time>2023-07-03T11:48:08Z</time>
      </trkpt>
      <trkpt lat="47.86347" lon="-3.85738">
        <ele>44.6</ele>
        <time>2023-07-03T11:48:12Z</time>
      </trkpt>
      <trkpt lat="47.86356" lon="-3.85714">
        <ele>44.6</ele>
        <time>2023-07-03T11:48:16Z</time>
      </trkpt>
      <trkpt lat="47.86367" lon="-3.85688">
        <ele>43.8</ele>
        <time>2023-07-03T11:48:20Z</time>
      </trkpt>
      <trkpt lat="47.86377" lon="-3.85666">
        <ele>44.8</ele>
        <time>2023-07-03T11:48:24Z</time>
      </trkpt>
      <trkpt lat="47.86383" lon="-3.85642">
        <ele>45.4</ele>
        <time>2023-07-03T11:48:28Z</time>
      </trkpt>
      <trkpt lat="47.86382" lon="-3.85618">
        <ele>46.2</ele>
        <time>2023-07-03T11:48:32Z</time>
      </trkpt>
      <trkpt lat="47.86378" lon="-3.85594">
        <ele>45</ele>
        <time>2023-07-03T11:48:36Z</time>
      </trkpt>
      <trkpt lat="47.86371" lon="-3.85572">
        <ele>43.8</ele>
        <time>2023-07-03T11:48:40Z</time>
      </trkpt>
      <trkpt lat="47.86363" lon="-3.85553">
        <ele>44</ele>
        <time>2023-07-03T11:48:44Z</time>
      </trkpt>
      <trkpt lat="47.8636" lon="-3.8553">
        <ele>44.4</ele>
        <time>2023-07-03T11:48:48Z</time>
      </trkpt>
      <trkpt lat="47.86368" lon="-3.85513">
        <ele>44.8</ele>
        <time>2023-07-03T11:48:52Z</time>
      </trkpt>
      <trkpt lat="47.86379" lon="-3.85511">
        <ele>44.4</ele>
        <time>2023-07-03T11:48:56Z</time>
      </trkpt>
      <trkpt lat="47.86387" lon="-3.85491">
        <ele>43.8</ele>
        <time>2023-07-03T11:49:00Z</time>
      </trkpt>
      <trkpt lat="47.86389" lon="-3.85467">
        <ele>43.2</ele>
        <time>2023-07-03T11:49:04Z</time>
      </trkpt>
      <trkpt lat="47.86379" lon="-3.85448">
        <ele>42</ele>
        <time>2023-07-03T11:49:08Z</time>
      </trkpt>
      <trkpt lat="47.86365" lon="-3.85431">
        <ele>39.8</ele>
        <time>2023-07-03T11:49:12Z</time>
      </trkpt>
      <trkpt lat="47.86353" lon="-3.85417">
        <ele>40</ele>
        <time>2023-07-03T11:49:16Z</time>
      </trkpt>
      <trkpt lat="47.86354" lon="-3.85386">
        <ele>40</ele>
        <time>2023-07-03T11:49:20Z</time>
      </trkpt>
      <trkpt lat="47.86363" lon="-3.85354">
        <ele>36.8</ele>
        <time>2023-07-03T11:49:24Z</time>
      </trkpt>
      <trkpt lat="47.8638" lon="-3.85314">
        <ele>33.4</ele>
        <time>2023-07-03T11:49:28Z</time>
      </trkpt>
      <trkpt lat="47.86382" lon="-3.85275">
        <ele>33</ele>
        <time>2023-07-03T11:49:32Z</time>
      </trkpt>
      <trkpt lat="47.86389" lon="-3.8525">
        <ele>34.2</ele>
        <time>2023-07-03T11:49:36Z</time>
      </trkpt>
      <trkpt lat="47.86389" lon="-3.8525">
        <ele>35.4</ele>
        <time>2023-07-03T11:49:40Z</time>
      </trkpt>
      <trkpt lat="47.86389" lon="-3.8525">
        <ele>35.8</ele>
        <time>2023-07-03T11:49:44Z</time>
      </trkpt>
      <trkpt lat="47.86389" lon="-3.8525">
        <ele>35.8</ele>
        <time>2023-07-03T11:49:48Z</time>
      </trkpt>
      <trkpt lat="47.86395" lon="-3.85237">
        <ele>35.6</ele>
        <time>2023-07-03T11:49:52Z</time>
      </trkpt>
      <trkpt lat="47.86398" lon="-3.85229">
        <ele>35.8</ele>
        <time>2023-07-03T11:49:56Z</time>
      </trkpt>
      <trkpt lat="47.86402" lon="-3.85214">
        <ele>35.2</ele>
        <time>2023-07-03T11:50:00Z</time>
      </trkpt>
      <trkpt lat="47.86411" lon="-3.85186">
        <ele>32.6</ele>
        <time>2023-07-03T11:50:04Z</time>
      </trkpt>
      <trkpt lat="47.86415" lon="-3.8516">
        <ele>32.6</ele>
        <time>2023-07-03T11:50:08Z</time>
      </trkpt>
      <trkpt lat="47.86423" lon="-3.8514">
        <ele>33.6</ele>
        <time>2023-07-03T11:50:12Z</time>
      </trkpt>
      <trkpt lat="47.8644" lon="-3.85104">
        <ele>34.8</ele>
        <time>2023-07-03T11:50:16Z</time>
      </trkpt>
      <trkpt lat="47.8645" lon="-3.85073">
        <ele>31</ele>
        <time>2023-07-03T11:50:20Z</time>
      </trkpt>
      <trkpt lat="47.86455" lon="-3.8505">
        <ele>28.6</ele>
        <time>2023-07-03T11:50:24Z</time>
      </trkpt>
      <trkpt lat="47.86459" lon="-3.85029">
        <ele>26.2</ele>
        <time>2023-07-03T11:50:28Z</time>
      </trkpt>
      <trkpt lat="47.86468" lon="-3.85015">
        <ele>24.4</ele>
        <time>2023-07-03T11:50:32Z</time>
      </trkpt>
      <trkpt lat="47.86476" lon="-3.84992">
        <ele>24.4</ele>
        <time>2023-07-03T11:50:36Z</time>
      </trkpt>
      <trkpt lat="47.86472" lon="-3.84977">
        <ele>23</ele>
        <time>2023-07-03T11:50:40Z</time>
      </trkpt>
      <trkpt lat="47.86473" lon="-3.8496">
        <ele>23.4</ele>
        <time>2023-07-03T11:50:44Z</time>
      </trkpt>
      <trkpt lat="47.86475" lon="-3.84944">
        <ele>25</ele>
        <time>2023-07-03T11:50:48Z</time>
      </trkpt>
      <trkpt lat="47.86478" lon="-3.84926">
        <ele>26.2</ele>
        <time>2023-07-03T11:50:52Z</time>
      </trkpt>
      <trkpt lat="47.86482" lon="-3.84915">
        <ele>28.2</ele>
        <time>2023-07-03T11:50:56Z</time>
      </trkpt>
      <trkpt lat="47.86488" lon="-3.84904">
        <ele>29.4</ele>
        <time>2023-07-03T11:51:00Z</time>
      </trkpt>
      <trkpt lat="47.86492" lon="-3.84895">
        <ele>30.4</ele>
        <time>2023-07-03T11:51:04Z</time>
      </trkpt>
      <trkpt lat="47.86494" lon="-3.84889">
        <ele>31.4</ele>
        <time>2023-07-03T11:51:08Z</time>
      </trkpt>
      <trkpt lat="47.86497" lon="-3.84872">
        <ele>32</ele>
        <time>2023-07-03T11:51:12Z</time>
      </trkpt>
      <trkpt lat="47.865" lon="-3.84859">
        <ele>33</ele>
        <time>2023-07-03T11:51:16Z</time>
      </trkpt>
      <trkpt lat="47.86504" lon="-3.84844">
        <ele>34.6</ele>
        <time>2023-07-03T11:51:20Z</time>
      </trkpt>
      <trkpt lat="47.86506" lon="-3.8483">
        <ele>34.6</ele>
        <time>2023-07-03T11:51:24Z</time>
      </trkpt>
      <trkpt lat="47.86512" lon="-3.84811">
        <ele>34.6</ele>
        <time>2023-07-03T11:51:28Z</time>
      </trkpt>
      <trkpt lat="47.86519" lon="-3.84792">
        <ele>34.8</ele>
        <time>2023-07-03T11:51:32Z</time>
      </trkpt>
      <trkpt lat="47.86522" lon="-3.84774">
        <ele>34.8</ele>
        <time>2023-07-03T11:51:36Z</time>
      </trkpt>
      <trkpt lat="47.8653" lon="-3.84752">
        <ele>35.8</ele>
        <time>2023-07-03T11:51:40Z</time>
      </trkpt>
      <trkpt lat="47.86536" lon="-3.84732">
        <ele>36.6</ele>
        <time>2023-07-03T11:51:44Z</time>
      </trkpt>
      <trkpt lat="47.86541" lon="-3.84712">
        <ele>36.4</ele>
        <time>2023-07-03T11:51:48Z</time>
      </trkpt>
      <trkpt lat="47.86545" lon="-3.8469">
        <ele>37.6</ele>
        <time>2023-07-03T11:51:52Z</time>
      </trkpt>
      <trkpt lat="47.86548" lon="-3.84663">
        <ele>37</ele>
        <time>2023-07-03T11:51:56Z</time>
      </trkpt>
      <trkpt lat="47.86548" lon="-3.84639">
        <ele>36.4</ele>
        <time>2023-07-03T11:52:00Z</time>
      </trkpt>
      <trkpt lat="47.86548" lon="-3.8462">
        <ele>37.8</ele>
        <time>2023-07-03T11:52:04Z</time>
      </trkpt>
      <trkpt lat="47.86551" lon="-3.84608">
        <ele>38.2</ele>
        <time>2023-07-03T11:52:08Z</time>
      </trkpt>
      <trkpt lat="47.86551" lon="-3.84608">
        <ele>38.4</ele>
        <time>2023-07-03T11:52:12Z</time>
      </trkpt>
      <trkpt lat="47.86552" lon="-3.84603">
        <ele>38.4</ele>
        <time>2023-07-03T11:52:16Z</time>
      </trkpt>
      <trkpt lat="47.86554" lon="-3.8458">
        <ele>37.8</ele>
        <time>2023-07-03T11:52:20Z</time>
      </trkpt>
      <trkpt lat="47.86558" lon="-3.84553">
        <ele>38.2</ele>
        <time>2023-07-03T11:52:24Z</time>
      </trkpt>
      <trkpt lat="47.86557" lon="-3.84519">
        <ele>36.8</ele>
        <time>2023-07-03T11:52:28Z</time>
      </trkpt>
      <trkpt lat="47.86542" lon="-3.84491">
        <ele>36.2</ele>
        <time>2023-07-03T11:52:32Z</time>
      </trkpt>
      <trkpt lat="47.86522" lon="-3.8447">
        <ele>34</ele>
        <time>2023-07-03T11:52:36Z</time>
      </trkpt>
      <trkpt lat="47.865" lon="-3.84451">
        <ele>34.4</ele>
        <time>2023-07-03T11:52:40Z</time>
      </trkpt>
      <trkpt lat="47.8648" lon="-3.84437">
        <ele>34.4</ele>
        <time>2023-07-03T11:52:44Z</time>
      </trkpt>
      <trkpt lat="47.86461" lon="-3.84425">
        <ele>35.4</ele>
        <time>2023-07-03T11:52:48Z</time>
      </trkpt>
      <trkpt lat="47.86443" lon="-3.84412">
        <ele>35.4</ele>
        <time>2023-07-03T11:52:52Z</time>
      </trkpt>
      <trkpt lat="47.86425" lon="-3.84401">
        <ele>36</ele>
        <time>2023-07-03T11:52:56Z</time>
      </trkpt>
      <trkpt lat="47.86407" lon="-3.84388">
        <ele>36.4</ele>
        <time>2023-07-03T11:53:00Z</time>
      </trkpt>
      <trkpt lat="47.86389" lon="-3.84375">
        <ele>37.2</ele>
        <time>2023-07-03T11:53:04Z</time>
      </trkpt>
      <trkpt lat="47.86372" lon="-3.84362">
        <ele>37.2</ele>
        <time>2023-07-03T11:53:08Z</time>
      </trkpt>
      <trkpt lat="47.86356" lon="-3.8435">
        <ele>37.8</ele>
        <time>2023-07-03T11:53:12Z</time>
      </trkpt>
      <trkpt lat="47.86339" lon="-3.84338">
        <ele>38.8</ele>
        <time>2023-07-03T11:53:16Z</time>
      </trkpt>
      <trkpt lat="47.86323" lon="-3.84327">
        <ele>38.2</ele>
        <time>2023-07-03T11:53:20Z</time>
      </trkpt>
      <trkpt lat="47.86306" lon="-3.84315">
        <ele>39.6</ele>
        <time>2023-07-03T11:53:24Z</time>
      </trkpt>
      <trkpt lat="47.86289" lon="-3.84305">
        <ele>39.8</ele>
        <time>2023-07-03T11:53:28Z</time>
      </trkpt>
      <trkpt lat="47.8627" lon="-3.84295">
        <ele>40</ele>
        <time>2023-07-03T11:53:32Z</time>
      </trkpt>
      <trkpt lat="47.86252" lon="-3.84284">
        <ele>39.8</ele>
        <time>2023-07-03T11:53:36Z</time>
      </trkpt>
      <trkpt lat="47.86234" lon="-3.84275">
        <ele>39</ele>
        <time>2023-07-03T11:53:40Z</time>
      </trkpt>
      <trkpt lat="47.86215" lon="-3.84265">
        <ele>39.2</ele>
        <time>2023-07-03T11:53:44Z</time>
      </trkpt>
      <trkpt lat="47.86196" lon="-3.84254">
        <ele>39</ele>
        <time>2023-07-03T11:53:48Z</time>
      </trkpt>
      <trkpt lat="47.86179" lon="-3.84244">
        <ele>38.8</ele>
        <time>2023-07-03T11:53:52Z</time>
      </trkpt>
      <trkpt lat="47.86172" lon="-3.84225">
        <ele>38.8</ele>
        <time>2023-07-03T11:53:56Z</time>
      </trkpt>
      <trkpt lat="47.86168" lon="-3.84196">
        <ele>38</ele>
        <time>2023-07-03T11:54:00Z</time>
      </trkpt>
      <trkpt lat="47.86164" lon="-3.84163">
        <ele>37.4</ele>
        <time>2023-07-03T11:54:04Z</time>
      </trkpt>
      <trkpt lat="47.86162" lon="-3.8413">
        <ele>38.2</ele>
        <time>2023-07-03T11:54:08Z</time>
      </trkpt>
      <trkpt lat="47.86163" lon="-3.84098">
        <ele>39.2</ele>
        <time>2023-07-03T11:54:12Z</time>
      </trkpt>
      <trkpt lat="47.86165" lon="-3.84063">
        <ele>38.4</ele>
        <time>2023-07-03T11:54:16Z</time>
      </trkpt>
      <trkpt lat="47.86169" lon="-3.84028">
        <ele>38.6</ele>
        <time>2023-07-03T11:54:20Z</time>
      </trkpt>
      <trkpt lat="47.86174" lon="-3.83992">
        <ele>38.6</ele>
        <time>2023-07-03T11:54:24Z</time>
      </trkpt>
      <trkpt lat="47.86181" lon="-3.83954">
        <ele>37.2</ele>
        <time>2023-07-03T11:54:28Z</time>
      </trkpt>
      <trkpt lat="47.86187" lon="-3.83916">
        <ele>37.2</ele>
        <time>2023-07-03T11:54:32Z</time>
      </trkpt>
      <trkpt lat="47.86194" lon="-3.83879">
        <ele>36</ele>
        <time>2023-07-03T11:54:36Z</time>
      </trkpt>
      <trkpt lat="47.862" lon="-3.83841">
        <ele>35.2</ele>
        <time>2023-07-03T11:54:40Z</time>
      </trkpt>
      <trkpt lat="47.86205" lon="-3.838">
        <ele>35.2</ele>
        <time>2023-07-03T11:54:44Z</time>
      </trkpt>
      <trkpt lat="47.86208" lon="-3.83759">
        <ele>34.6</ele>
        <time>2023-07-03T11:54:48Z</time>
      </trkpt>
      <trkpt lat="47.86212" lon="-3.83715">
        <ele>32.8</ele>
        <time>2023-07-03T11:54:52Z</time>
      </trkpt>
      <trkpt lat="47.86218" lon="-3.83674">
        <ele>31.2</ele>
        <time>2023-07-03T11:54:56Z</time>
      </trkpt>
      <trkpt lat="47.86224" lon="-3.83634">
        <ele>30.8</ele>
        <time>2023-07-03T11:55:00Z</time>
      </trkpt>
      <trkpt lat="47.86239" lon="-3.83598">
        <ele>31</ele>
        <time>2023-07-03T11:55:04Z</time>
      </trkpt>
      <trkpt lat="47.86261" lon="-3.83559">
        <ele>30.6</ele>
        <time>2023-07-03T11:55:08Z</time>
      </trkpt>
      <trkpt lat="47.8628" lon="-3.8352">
        <ele>30.2</ele>
        <time>2023-07-03T11:55:12Z</time>
      </trkpt>
      <trkpt lat="47.8629" lon="-3.83481">
        <ele>31.6</ele>
        <time>2023-07-03T11:55:16Z</time>
      </trkpt>
      <trkpt lat="47.86294" lon="-3.83444">
        <ele>31.6</ele>
        <time>2023-07-03T11:55:20Z</time>
      </trkpt>
      <trkpt lat="47.86299" lon="-3.83408">
        <ele>31</ele>
        <time>2023-07-03T11:55:24Z</time>
      </trkpt>
      <trkpt lat="47.86306" lon="-3.83373">
        <ele>30.6</ele>
        <time>2023-07-03T11:55:28Z</time>
      </trkpt>
      <trkpt lat="47.86314" lon="-3.83336">
        <ele>30.2</ele>
        <time>2023-07-03T11:55:32Z</time>
      </trkpt>
      <trkpt lat="47.86323" lon="-3.83302">
        <ele>31</ele>
        <time>2023-07-03T11:55:36Z</time>
      </trkpt>
      <trkpt lat="47.86327" lon="-3.83263">
        <ele>30.8</ele>
        <time>2023-07-03T11:55:40Z</time>
      </trkpt>
      <trkpt lat="47.86325" lon="-3.83222">
        <ele>28.6</ele>
        <time>2023-07-03T11:55:44Z</time>
      </trkpt>
      <trkpt lat="47.8632" lon="-3.83174">
        <ele>24.8</ele>
        <time>2023-07-03T11:55:48Z</time>
      </trkpt>
      <trkpt lat="47.86327" lon="-3.83128">
        <ele>24.2</ele>
        <time>2023-07-03T11:55:52Z</time>
      </trkpt>
      <trkpt lat="47.86336" lon="-3.83089">
        <ele>26</ele>
        <time>2023-07-03T11:55:56Z</time>
      </trkpt>
      <trkpt lat="47.86339" lon="-3.83051">
        <ele>28</ele>
        <time>2023-07-03T11:56:00Z</time>
      </trkpt>
      <trkpt lat="47.86344" lon="-3.83024">
        <ele>28.8</ele>
        <time>2023-07-03T11:56:04Z</time>
      </trkpt>
      <trkpt lat="47.86357" lon="-3.83009">
        <ele>29.8</ele>
        <time>2023-07-03T11:56:08Z</time>
      </trkpt>
      <trkpt lat="47.86376" lon="-3.83">
        <ele>30.2</ele>
        <time>2023-07-03T11:56:12Z</time>
      </trkpt>
      <trkpt lat="47.86394" lon="-3.82989">
        <ele>30.6</ele>
        <time>2023-07-03T11:56:16Z</time>
      </trkpt>
      <trkpt lat="47.86413" lon="-3.82978">
        <ele>30.2</ele>
        <time>2023-07-03T11:56:20Z</time>
      </trkpt>
      <trkpt lat="47.86429" lon="-3.82964">
        <ele>30.8</ele>
        <time>2023-07-03T11:56:24Z</time>
      </trkpt>
      <trkpt lat="47.86448" lon="-3.82939">
        <ele>31</ele>
        <time>2023-07-03T11:56:28Z</time>
      </trkpt>
      <trkpt lat="47.86464" lon="-3.82913">
        <ele>31.8</ele>
        <time>2023-07-03T11:56:32Z</time>
      </trkpt>
      <trkpt lat="47.86478" lon="-3.82887">
        <ele>31.2</ele>
        <time>2023-07-03T11:56:36Z</time>
      </trkpt>
      <trkpt lat="47.86497" lon="-3.82863">
        <ele>30.8</ele>
        <time>2023-07-03T11:56:40Z</time>
      </trkpt>
      <trkpt lat="47.86519" lon="-3.8285">
        <ele>31.8</ele>
        <time>2023-07-03T11:56:44Z</time>
      </trkpt>
      <trkpt lat="47.86541" lon="-3.82848">
        <ele>29.4</ele>
        <time>2023-07-03T11:56:48Z</time>
      </trkpt>
      <trkpt lat="47.86561" lon="-3.82848">
        <ele>28.8</ele>
        <time>2023-07-03T11:56:52Z</time>
      </trkpt>
      <trkpt lat="47.86581" lon="-3.82849">
        <ele>28.2</ele>
        <time>2023-07-03T11:56:56Z</time>
      </trkpt>
      <trkpt lat="47.86605" lon="-3.8285">
        <ele>27.8</ele>
        <time>2023-07-03T11:57:00Z</time>
      </trkpt>
      <trkpt lat="47.86626" lon="-3.82852">
        <ele>28</ele>
        <time>2023-07-03T11:57:04Z</time>
      </trkpt>
      <trkpt lat="47.86649" lon="-3.82859">
        <ele>29.6</ele>
        <time>2023-07-03T11:57:08Z</time>
      </trkpt>
      <trkpt lat="47.86666" lon="-3.82871">
        <ele>31.2</ele>
        <time>2023-07-03T11:57:12Z</time>
      </trkpt>
      <trkpt lat="47.8669" lon="-3.82884">
        <ele>32.6</ele>
        <time>2023-07-03T11:57:16Z</time>
      </trkpt>
      <trkpt lat="47.86716" lon="-3.82897">
        <ele>33.6</ele>
        <time>2023-07-03T11:57:20Z</time>
      </trkpt>
      <trkpt lat="47.86733" lon="-3.82908">
        <ele>35.2</ele>
        <time>2023-07-03T11:57:24Z</time>
      </trkpt>
      <trkpt lat="47.86755" lon="-3.8292">
        <ele>36.6</ele>
        <time>2023-07-03T11:57:28Z</time>
      </trkpt>
      <trkpt lat="47.86776" lon="-3.82931">
        <ele>37.2</ele>
        <time>2023-07-03T11:57:32Z</time>
      </trkpt>
      <trkpt lat="47.8679" lon="-3.82925">
        <ele>38.2</ele>
        <time>2023-07-03T11:57:36Z</time>
      </trkpt>
      <trkpt lat="47.86802" lon="-3.82901">
        <ele>37.8</ele>
        <time>2023-07-03T11:57:40Z</time>
      </trkpt>
      <trkpt lat="47.86814" lon="-3.82871">
        <ele>35.4</ele>
        <time>2023-07-03T11:57:44Z</time>
      </trkpt>
      <trkpt lat="47.86819" lon="-3.8283">
        <ele>31.8</ele>
        <time>2023-07-03T11:57:48Z</time>
      </trkpt>
      <trkpt lat="47.86822" lon="-3.82804">
        <ele>33.6</ele>
        <time>2023-07-03T11:57:52Z</time>
      </trkpt>
      <trkpt lat="47.86825" lon="-3.82787">
        <ele>37</ele>
        <time>2023-07-03T11:57:56Z</time>
      </trkpt>
      <trkpt lat="47.86829" lon="-3.82763">
        <ele>39.2</ele>
        <time>2023-07-03T11:58:00Z</time>
      </trkpt>
      <trkpt lat="47.8683" lon="-3.8273">
        <ele>39.8</ele>
        <time>2023-07-03T11:58:04Z</time>
      </trkpt>
      <trkpt lat="47.86831" lon="-3.827">
        <ele>41.4</ele>
        <time>2023-07-03T11:58:08Z</time>
      </trkpt>
      <trkpt lat="47.86832" lon="-3.82672">
        <ele>42.2</ele>
        <time>2023-07-03T11:58:12Z</time>
      </trkpt>
      <trkpt lat="47.86834" lon="-3.82646">
        <ele>43.6</ele>
        <time>2023-07-03T11:58:16Z</time>
      </trkpt>
      <trkpt lat="47.86838" lon="-3.82623">
        <ele>44.6</ele>
        <time>2023-07-03T11:58:20Z</time>
      </trkpt>
      <trkpt lat="47.86842" lon="-3.82603">
        <ele>45.6</ele>
        <time>2023-07-03T11:58:24Z</time>
      </trkpt>
      <trkpt lat="47.86847" lon="-3.82584">
        <ele>46</ele>
        <time>2023-07-03T11:58:28Z</time>
      </trkpt>
      <trkpt lat="47.86852" lon="-3.82564">
        <ele>47.8</ele>
        <time>2023-07-03T11:58:32Z</time>
      </trkpt>
      <trkpt lat="47.86858" lon="-3.82547">
        <ele>48.4</ele>
        <time>2023-07-03T11:58:36Z</time>
      </trkpt>
      <trkpt lat="47.86866" lon="-3.82532">
        <ele>50</ele>
        <time>2023-07-03T11:58:40Z</time>
      </trkpt>
      <trkpt lat="47.86875" lon="-3.82521">
        <ele>51.6</ele>
        <time>2023-07-03T11:58:44Z</time>
      </trkpt>
      <trkpt lat="47.86884" lon="-3.82512">
        <ele>53.2</ele>
        <time>2023-07-03T11:58:48Z</time>
      </trkpt>
      <trkpt lat="47.86894" lon="-3.82502">
        <ele>54.6</ele>
        <time>2023-07-03T11:58:52Z</time>
      </trkpt>
      <trkpt lat="47.86903" lon="-3.82491">
        <ele>54.6</ele>
        <time>2023-07-03T11:58:56Z</time>
      </trkpt>
      <trkpt lat="47.86912" lon="-3.82482">
        <ele>55.2</ele>
        <time>2023-07-03T11:59:00Z</time>
      </trkpt>
      <trkpt lat="47.86923" lon="-3.82471">
        <ele>55.8</ele>
        <time>2023-07-03T11:59:04Z</time>
      </trkpt>
      <trkpt lat="47.86933" lon="-3.82456">
        <ele>56</ele>
        <time>2023-07-03T11:59:08Z</time>
      </trkpt>
      <trkpt lat="47.86943" lon="-3.82435">
        <ele>56</ele>
        <time>2023-07-03T11:59:12Z</time>
      </trkpt>
      <trkpt lat="47.86952" lon="-3.8241">
        <ele>55.2</ele>
        <time>2023-07-03T11:59:16Z</time>
      </trkpt>
      <trkpt lat="47.86958" lon="-3.8239">
        <ele>57.4</ele>
        <time>2023-07-03T11:59:20Z</time>
      </trkpt>
      <trkpt lat="47.86964" lon="-3.8237">
        <ele>57.4</ele>
        <time>2023-07-03T11:59:24Z</time>
      </trkpt>
      <trkpt lat="47.8697" lon="-3.8235">
        <ele>58.2</ele>
        <time>2023-07-03T11:59:28Z</time>
      </trkpt>
      <trkpt lat="47.86976" lon="-3.82332">
        <ele>59.4</ele>
        <time>2023-07-03T11:59:32Z</time>
      </trkpt>
      <trkpt lat="47.86988" lon="-3.82318">
        <ele>59.6</ele>
        <time>2023-07-03T11:59:36Z</time>
      </trkpt>
      <trkpt lat="47.87003" lon="-3.82322">
        <ele>60</ele>
        <time>2023-07-03T11:59:40Z</time>
      </trkpt>
      <trkpt lat="47.87017" lon="-3.82327">
        <ele>61.4</ele>
        <time>2023-07-03T11:59:44Z</time>
      </trkpt>
      <trkpt lat="47.8703" lon="-3.82333">
        <ele>61.8</ele>
        <time>2023-07-03T11:59:48Z</time>
      </trkpt>
      <trkpt lat="47.87043" lon="-3.8234">
        <ele>63</ele>
        <time>2023-07-03T11:59:52Z</time>
      </trkpt>
      <trkpt lat="47.87055" lon="-3.82347">
        <ele>64.6</ele>
        <time>2023-07-03T11:59:56Z</time>
      </trkpt>
      <trkpt lat="47.87068" lon="-3.82354">
        <ele>64.8</ele>
        <time>2023-07-03T12:00:00Z</time>
      </trkpt>
      <trkpt lat="47.8708" lon="-3.82362">
        <ele>66.2</ele>
        <time>2023-07-03T12:00:04Z</time>
      </trkpt>
      <trkpt lat="47.87091" lon="-3.8237">
        <ele>67.4</ele>
        <time>2023-07-03T12:00:08Z</time>
      </trkpt>
      <trkpt lat="47.87104" lon="-3.82377">
        <ele>68.2</ele>
        <time>2023-07-03T12:00:12Z</time>
      </trkpt>
      <trkpt lat="47.87115" lon="-3.82376">
        <ele>69.6</ele>
        <time>2023-07-03T12:00:16Z</time>
      </trkpt>
      <trkpt lat="47.87123" lon="-3.82361">
        <ele>70.8</ele>
        <time>2023-07-03T12:00:20Z</time>
      </trkpt>
      <trkpt lat="47.87129" lon="-3.82342">
        <ele>71.2</ele>
        <time>2023-07-03T12:00:24Z</time>
      </trkpt>
      <trkpt lat="47.87136" lon="-3.82322">
        <ele>71.8</ele>
        <time>2023-07-03T12:00:28Z</time>
      </trkpt>
      <trkpt lat="47.87143" lon="-3.82301">
        <ele>72</ele>
        <time>2023-07-03T12:00:32Z</time>
      </trkpt>
      <trkpt lat="47.8715" lon="-3.82278">
        <ele>71.4</ele>
        <time>2023-07-03T12:00:36Z</time>
      </trkpt>
      <trkpt lat="47.87155" lon="-3.82252">
        <ele>71.6</ele>
        <time>2023-07-03T12:00:40Z</time>
      </trkpt>
      <trkpt lat="47.87163" lon="-3.82226">
        <ele>71</ele>
        <time>2023-07-03T12:00:44Z</time>
      </trkpt>
      <trkpt lat="47.8717" lon="-3.82199">
        <ele>71</ele>
        <time>2023-07-03T12:00:48Z</time>
      </trkpt>
      <trkpt lat="47.87175" lon="-3.82171">
        <ele>71</ele>
        <time>2023-07-03T12:00:52Z</time>
      </trkpt>
      <trkpt lat="47.87177" lon="-3.82151">
        <ele>71.8</ele>
        <time>2023-07-03T12:00:56Z</time>
      </trkpt>
      <trkpt lat="47.87164" lon="-3.82137">
        <ele>72</ele>
        <time>2023-07-03T12:01:00Z</time>
      </trkpt>
      <trkpt lat="47.87144" lon="-3.82118">
        <ele>70.8</ele>
        <time>2023-07-03T12:01:04Z</time>
      </trkpt>
      <trkpt lat="47.87123" lon="-3.82095">
        <ele>68.6</ele>
        <time>2023-07-03T12:01:08Z</time>
      </trkpt>
      <trkpt lat="47.87109" lon="-3.82068">
        <ele>69.4</ele>
        <time>2023-07-03T12:01:12Z</time>
      </trkpt>
      <trkpt lat="47.87097" lon="-3.82042">
        <ele>70.4</ele>
        <time>2023-07-03T12:01:16Z</time>
      </trkpt>
      <trkpt lat="47.87092" lon="-3.82011">
        <ele>71.6</ele>
        <time>2023-07-03T12:01:20Z</time>
      </trkpt>
      <trkpt lat="47.87088" lon="-3.8198">
        <ele>71.4</ele>
        <time>2023-07-03T12:01:24Z</time>
      </trkpt>
      <trkpt lat="47.87084" lon="-3.81954">
        <ele>72.4</ele>
        <time>2023-07-03T12:01:28Z</time>
      </trkpt>
      <trkpt lat="47.87081" lon="-3.81928">
        <ele>72.2</ele>
        <time>2023-07-03T12:01:32Z</time>
      </trkpt>
      <trkpt lat="47.87078" lon="-3.81899">
        <ele>71.4</ele>
        <time>2023-07-03T12:01:36Z</time>
      </trkpt>
      <trkpt lat="47.87067" lon="-3.81862">
        <ele>70.2</ele>
        <time>2023-07-03T12:01:40Z</time>
      </trkpt>
      <trkpt lat="47.87043" lon="-3.81838">
        <ele>68.2</ele>
        <time>2023-07-03T12:01:44Z</time>
      </trkpt>
      <trkpt lat="47.87019" lon="-3.8182">
        <ele>63.6</ele>
        <time>2023-07-03T12:01:48Z</time>
      </trkpt>
      <trkpt lat="47.86991" lon="-3.818">
        <ele>58</ele>
        <time>2023-07-03T12:01:52Z</time>
      </trkpt>
      <trkpt lat="47.86961" lon="-3.81782">
        <ele>53.4</ele>
        <time>2023-07-03T12:01:56Z</time>
      </trkpt>
      <trkpt lat="47.86927" lon="-3.81762">
        <ele>45.2</ele>
        <time>2023-07-03T12:02:00Z</time>
      </trkpt>
      <trkpt lat="47.86894" lon="-3.8174">
        <ele>44.6</ele>
        <time>2023-07-03T12:02:04Z</time>
      </trkpt>
      <trkpt lat="47.86882" lon="-3.81712">
        <ele>43.6</ele>
        <time>2023-07-03T12:02:08Z</time>
      </trkpt>
      <trkpt lat="47.86871" lon="-3.81678">
        <ele>42.4</ele>
        <time>2023-07-03T12:02:12Z</time>
      </trkpt>
      <trkpt lat="47.86867" lon="-3.81629">
        <ele>41.6</ele>
        <time>2023-07-03T12:02:16Z</time>
      </trkpt>
      <trkpt lat="47.86875" lon="-3.81588">
        <ele>41.6</ele>
        <time>2023-07-03T12:02:20Z</time>
      </trkpt>
      <trkpt lat="47.86884" lon="-3.81564">
        <ele>40.6</ele>
        <time>2023-07-03T12:02:24Z</time>
      </trkpt>
      <trkpt lat="47.869" lon="-3.81548">
        <ele>40.8</ele>
        <time>2023-07-03T12:02:28Z</time>
      </trkpt>
      <trkpt lat="47.86915" lon="-3.81531">
        <ele>40.8</ele>
        <time>2023-07-03T12:02:32Z</time>
      </trkpt>
      <trkpt lat="47.86935" lon="-3.81513">
        <ele>42</ele>
        <time>2023-07-03T12:02:36Z</time>
      </trkpt>
      <trkpt lat="47.86955" lon="-3.81495">
        <ele>43.4</ele>
        <time>2023-07-03T12:02:40Z</time>
      </trkpt>
      <trkpt lat="47.86974" lon="-3.81481">
        <ele>44</ele>
        <time>2023-07-03T12:02:44Z</time>
      </trkpt>
      <trkpt lat="47.86991" lon="-3.81472">
        <ele>45.2</ele>
        <time>2023-07-03T12:02:48Z</time>
      </trkpt>
      <trkpt lat="47.87007" lon="-3.81466">
        <ele>45.6</ele>
        <time>2023-07-03T12:02:52Z</time>
      </trkpt>
      <trkpt lat="47.87023" lon="-3.8146">
        <ele>46.2</ele>
        <time>2023-07-03T12:02:56Z</time>
      </trkpt>
      <trkpt lat="47.87039" lon="-3.81456">
        <ele>47.2</ele>
        <time>2023-07-03T12:03:00Z</time>
      </trkpt>
      <trkpt lat="47.87051" lon="-3.81457">
        <ele>47.4</ele>
        <time>2023-07-03T12:03:04Z</time>
      </trkpt>
      <trkpt lat="47.87063" lon="-3.8146">
        <ele>48</ele>
        <time>2023-07-03T12:03:08Z</time>
      </trkpt>
      <trkpt lat="47.87077" lon="-3.81466">
        <ele>49</ele>
        <time>2023-07-03T12:03:12Z</time>
      </trkpt>
      <trkpt lat="47.8709" lon="-3.81472">
        <ele>49.4</ele>
        <time>2023-07-03T12:03:16Z</time>
      </trkpt>
      <trkpt lat="47.87103" lon="-3.81477">
        <ele>51.4</ele>
        <time>2023-07-03T12:03:20Z</time>
      </trkpt>
      <trkpt lat="47.87116" lon="-3.81482">
        <ele>52.4</ele>
        <time>2023-07-03T12:03:24Z</time>
      </trkpt>
      <trkpt lat="47.87127" lon="-3.81485">
        <ele>53.4</ele>
        <time>2023-07-03T12:03:28Z</time>
      </trkpt>
      <trkpt lat="47.87139" lon="-3.81486">
        <ele>54.4</ele>
        <time>2023-07-03T12:03:32Z</time>
      </trkpt>
      <trkpt lat="47.87152" lon="-3.81487">
        <ele>55</ele>
        <time>2023-07-03T12:03:36Z</time>
      </trkpt>
      <trkpt lat="47.87163" lon="-3.8149">
        <ele>55.8</ele>
        <time>2023-07-03T12:03:40Z</time>
      </trkpt>
      <trkpt lat="47.87177" lon="-3.81494">
        <ele>57</ele>
        <time>2023-07-03T12:03:44Z</time>
      </trkpt>
      <trkpt lat="47.87187" lon="-3.81496">
        <ele>56.6</ele>
        <time>2023-07-03T12:03:48Z</time>
      </trkpt>
      <trkpt lat="47.87201" lon="-3.81496">
        <ele>57.6</ele>
        <time>2023-07-03T12:03:52Z</time>
      </trkpt>
      <trkpt lat="47.87215" lon="-3.81501">
        <ele>59.4</ele>
        <time>2023-07-03T12:03:56Z</time>
      </trkpt>
      <trkpt lat="47.87231" lon="-3.81504">
        <ele>59.4</ele>
        <time>2023-07-03T12:04:00Z</time>
      </trkpt>
      <trkpt lat="47.87245" lon="-3.81505">
        <ele>60.4</ele>
        <time>2023-07-03T12:04:04Z</time>
      </trkpt>
      <trkpt lat="47.87259" lon="-3.81506">
        <ele>61.8</ele>
        <time>2023-07-03T12:04:08Z</time>
      </trkpt>
      <trkpt lat="47.87274" lon="-3.81509">
        <ele>62.2</ele>
        <time>2023-07-03T12:04:12Z</time>
      </trkpt>
      <trkpt lat="47.87287" lon="-3.81513">
        <ele>63.4</ele>
        <time>2023-07-03T12:04:16Z</time>
      </trkpt>
      <trkpt lat="47.873" lon="-3.81516">
        <ele>64.2</ele>
        <time>2023-07-03T12:04:20Z</time>
      </trkpt>
      <trkpt lat="47.87317" lon="-3.81523">
        <ele>64.4</ele>
        <time>2023-07-03T12:04:24Z</time>
      </trkpt>
      <trkpt lat="47.87336" lon="-3.81524">
        <ele>64.4</ele>
        <time>2023-07-03T12:04:28Z</time>
      </trkpt>
      <trkpt lat="47.87356" lon="-3.81526">
        <ele>65.6</ele>
        <time>2023-07-03T12:04:32Z</time>
      </trkpt>
      <trkpt lat="47.87371" lon="-3.81535">
        <ele>66.6</ele>
        <time>2023-07-03T12:04:36Z</time>
      </trkpt>
      <trkpt lat="47.87382" lon="-3.81545">
        <ele>67.2</ele>
        <time>2023-07-03T12:04:40Z</time>
      </trkpt>
      <trkpt lat="47.87394" lon="-3.81551">
        <ele>68.8</ele>
        <time>2023-07-03T12:04:44Z</time>
      </trkpt>
      <trkpt lat="47.87406" lon="-3.81559">
        <ele>69.4</ele>
        <time>2023-07-03T12:04:48Z</time>
      </trkpt>
      <trkpt lat="47.87419" lon="-3.81569">
        <ele>70.8</ele>
        <time>2023-07-03T12:04:52Z</time>
      </trkpt>
      <trkpt lat="47.87431" lon="-3.81577">
        <ele>71.4</ele>
        <time>2023-07-03T12:04:56Z</time>
      </trkpt>
      <trkpt lat="47.87444" lon="-3.81589">
        <ele>72.8</ele>
        <time>2023-07-03T12:05:00Z</time>
      </trkpt>
      <trkpt lat="47.87457" lon="-3.81603">
        <ele>73.2</ele>
        <time>2023-07-03T12:05:04Z</time>
      </trkpt>
      <trkpt lat="47.87469" lon="-3.81614">
        <ele>73.8</ele>
        <time>2023-07-03T12:05:08Z</time>
      </trkpt>
      <trkpt lat="47.87482" lon="-3.81624">
        <ele>75.4</ele>
        <time>2023-07-03T12:05:12Z</time>
      </trkpt>
      <trkpt lat="47.87501" lon="-3.81632">
        <ele>76.4</ele>
        <time>2023-07-03T12:05:16Z</time>
      </trkpt>
      <trkpt lat="47.87513" lon="-3.81629">
        <ele>77.6</ele>
        <time>2023-07-03T12:05:20Z</time>
      </trkpt>
      <trkpt lat="47.87521" lon="-3.81617">
        <ele>78.4</ele>
        <time>2023-07-03T12:05:24Z</time>
      </trkpt>
      <trkpt lat="47.87525" lon="-3.81603">
        <ele>78.8</ele>
        <time>2023-07-03T12:05:28Z</time>
      </trkpt>
      <trkpt lat="47.87529" lon="-3.81588">
        <ele>79.2</ele>
        <time>2023-07-03T12:05:32Z</time>
      </trkpt>
      <trkpt lat="47.87532" lon="-3.81572">
        <ele>79.8</ele>
        <time>2023-07-03T12:05:36Z</time>
      </trkpt>
      <trkpt lat="47.87535" lon="-3.81554">
        <ele>79.8</ele>
        <time>2023-07-03T12:05:40Z</time>
      </trkpt>
      <trkpt lat="47.87536" lon="-3.81536">
        <ele>80.6</ele>
        <time>2023-07-03T12:05:44Z</time>
      </trkpt>
      <trkpt lat="47.87538" lon="-3.81518">
        <ele>81.2</ele>
        <time>2023-07-03T12:05:48Z</time>
      </trkpt>
      <trkpt lat="47.87539" lon="-3.81501">
        <ele>83.2</ele>
        <time>2023-07-03T12:05:52Z</time>
      </trkpt>
      <trkpt lat="47.8754" lon="-3.81484">
        <ele>83.2</ele>
        <time>2023-07-03T12:05:56Z</time>
      </trkpt>
      <trkpt lat="47.8754" lon="-3.81468">
        <ele>83.8</ele>
        <time>2023-07-03T12:06:00Z</time>
      </trkpt>
      <trkpt lat="47.87542" lon="-3.81454">
        <ele>84.8</ele>
        <time>2023-07-03T12:06:04Z</time>
      </trkpt>
      <trkpt lat="47.87541" lon="-3.81441">
        <ele>85.6</ele>
        <time>2023-07-03T12:06:08Z</time>
      </trkpt>
      <trkpt lat="47.87542" lon="-3.81419">
        <ele>85.6</ele>
        <time>2023-07-03T12:06:12Z</time>
      </trkpt>
      <trkpt lat="47.87545" lon="-3.81393">
        <ele>86.6</ele>
        <time>2023-07-03T12:06:16Z</time>
      </trkpt>
      <trkpt lat="47.87546" lon="-3.81367">
        <ele>86.8</ele>
        <time>2023-07-03T12:06:20Z</time>
      </trkpt>
      <trkpt lat="47.87549" lon="-3.81342">
        <ele>87</ele>
        <time>2023-07-03T12:06:24Z</time>
      </trkpt>
      <trkpt lat="47.87553" lon="-3.81318">
        <ele>87</ele>
        <time>2023-07-03T12:06:28Z</time>
      </trkpt>
      <trkpt lat="47.87558" lon="-3.81296">
        <ele>87.8</ele>
        <time>2023-07-03T12:06:32Z</time>
      </trkpt>
      <trkpt lat="47.87563" lon="-3.81273">
        <ele>87.6</ele>
        <time>2023-07-03T12:06:36Z</time>
      </trkpt>
      <trkpt lat="47.87567" lon="-3.81252">
        <ele>89.4</ele>
        <time>2023-07-03T12:06:40Z</time>
      </trkpt>
      <trkpt lat="47.87574" lon="-3.8123">
        <ele>88.8</ele>
        <time>2023-07-03T12:06:44Z</time>
      </trkpt>
      <trkpt lat="47.87578" lon="-3.81206">
        <ele>89.4</ele>
        <time>2023-07-03T12:06:48Z</time>
      </trkpt>
      <trkpt lat="47.8758" lon="-3.81181">
        <ele>90.2</ele>
        <time>2023-07-03T12:06:52Z</time>
      </trkpt>
      <trkpt lat="47.8758" lon="-3.81155">
        <ele>90.2</ele>
        <time>2023-07-03T12:06:56Z</time>
      </trkpt>
      <trkpt lat="47.87579" lon="-3.81128">
        <ele>90.6</ele>
        <time>2023-07-03T12:07:00Z</time>
      </trkpt>
      <trkpt lat="47.87578" lon="-3.81101">
        <ele>91</ele>
        <time>2023-07-03T12:07:04Z</time>
      </trkpt>
      <trkpt lat="47.87577" lon="-3.81074">
        <ele>91.2</ele>
        <time>2023-07-03T12:07:08Z</time>
      </trkpt>
      <trkpt lat="47.87576" lon="-3.81045">
        <ele>91.8</ele>
        <time>2023-07-03T12:07:12Z</time>
      </trkpt>
      <trkpt lat="47.87574" lon="-3.81012">
        <ele>91</ele>
        <time>2023-07-03T12:07:16Z</time>
      </trkpt>
      <trkpt lat="47.87573" lon="-3.80981">
        <ele>92.2</ele>
        <time>2023-07-03T12:07:20Z</time>
      </trkpt>
      <trkpt lat="47.87572" lon="-3.80949">
        <ele>91.4</ele>
        <time>2023-07-03T12:07:24Z</time>
      </trkpt>
      <trkpt lat="47.87567" lon="-3.80913">
        <ele>91.6</ele>
        <time>2023-07-03T12:07:28Z</time>
      </trkpt>
      <trkpt lat="47.87559" lon="-3.80876">
        <ele>90.8</ele>
        <time>2023-07-03T12:07:32Z</time>
      </trkpt>
      <trkpt lat="47.87545" lon="-3.80842">
        <ele>89.4</ele>
        <time>2023-07-03T12:07:36Z</time>
      </trkpt>
      <trkpt lat="47.87531" lon="-3.80811">
        <ele>89.2</ele>
        <time>2023-07-03T12:07:40Z</time>
      </trkpt>
      <trkpt lat="47.87516" lon="-3.80782">
        <ele>89.2</ele>
        <time>2023-07-03T12:07:44Z</time>
      </trkpt>
      <trkpt lat="47.87502" lon="-3.80753">
        <ele>88.6</ele>
        <time>2023-07-03T12:07:48Z</time>
      </trkpt>
      <trkpt lat="47.87489" lon="-3.80721">
        <ele>87.2</ele>
        <time>2023-07-03T12:07:52Z</time>
      </trkpt>
      <trkpt lat="47.87477" lon="-3.80687">
        <ele>87.6</ele>
        <time>2023-07-03T12:07:56Z</time>
      </trkpt>
      <trkpt lat="47.87465" lon="-3.8065">
        <ele>87.2</ele>
        <time>2023-07-03T12:08:00Z</time>
      </trkpt>
      <trkpt lat="47.87454" lon="-3.80614">
        <ele>87.2</ele>
        <time>2023-07-03T12:08:04Z</time>
      </trkpt>
      <trkpt lat="47.87441" lon="-3.80577">
        <ele>86.6</ele>
        <time>2023-07-03T12:08:08Z</time>
      </trkpt>
      <trkpt lat="47.87426" lon="-3.80543">
        <ele>85.8</ele>
        <time>2023-07-03T12:08:12Z</time>
      </trkpt>
      <trkpt lat="47.87411" lon="-3.80511">
        <ele>85.6</ele>
        <time>2023-07-03T12:08:16Z</time>
      </trkpt>
      <trkpt lat="47.87394" lon="-3.80481">
        <ele>85.6</ele>
        <time>2023-07-03T12:08:20Z</time>
      </trkpt>
      <trkpt lat="47.87377" lon="-3.80449">
        <ele>84.6</ele>
        <time>2023-07-03T12:08:24Z</time>
      </trkpt>
      <trkpt lat="47.87361" lon="-3.80423">
        <ele>85.2</ele>
        <time>2023-07-03T12:08:28Z</time>
      </trkpt>
      <trkpt lat="47.87352" lon="-3.80386">
        <ele>86.8</ele>
        <time>2023-07-03T12:08:32Z</time>
      </trkpt>
      <trkpt lat="47.87346" lon="-3.80355">
        <ele>88</ele>
        <time>2023-07-03T12:08:36Z</time>
      </trkpt>
      <trkpt lat="47.87342" lon="-3.80328">
        <ele>88.6</ele>
        <time>2023-07-03T12:08:40Z</time>
      </trkpt>
      <trkpt lat="47.87337" lon="-3.80298">
        <ele>90.6</ele>
        <time>2023-07-03T12:08:44Z</time>
      </trkpt>
      <trkpt lat="47.87332" lon="-3.8026">
        <ele>90.6</ele>
        <time>2023-07-03T12:08:48Z</time>
      </trkpt>
      <trkpt lat="47.87328" lon="-3.80225">
        <ele>91.4</ele>
        <time>2023-07-03T12:08:52Z</time>
      </trkpt>
      <trkpt lat="47.87323" lon="-3.80189">
        <ele>90.8</ele>
        <time>2023-07-03T12:08:56Z</time>
      </trkpt>
      <trkpt lat="47.87317" lon="-3.80153">
        <ele>90.4</ele>
        <time>2023-07-03T12:09:00Z</time>
      </trkpt>
      <trkpt lat="47.8731" lon="-3.80119">
        <ele>90</ele>
        <time>2023-07-03T12:09:04Z</time>
      </trkpt>
      <trkpt lat="47.87301" lon="-3.80088">
        <ele>88.6</ele>
        <time>2023-07-03T12:09:08Z</time>
      </trkpt>
      <trkpt lat="47.87293" lon="-3.80057">
        <ele>89.8</ele>
        <time>2023-07-03T12:09:12Z</time>
      </trkpt>
      <trkpt lat="47.87287" lon="-3.80024">
        <ele>89.2</ele>
        <time>2023-07-03T12:09:16Z</time>
      </trkpt>
      <trkpt lat="47.87284" lon="-3.79984">
        <ele>89.8</ele>
        <time>2023-07-03T12:09:20Z</time>
      </trkpt>
      <trkpt lat="47.87281" lon="-3.79944">
        <ele>88.6</ele>
        <time>2023-07-03T12:09:24Z</time>
      </trkpt>
      <trkpt lat="47.8728" lon="-3.79898">
        <ele>88.2</ele>
        <time>2023-07-03T12:09:28Z</time>
      </trkpt>
      <trkpt lat="47.87276" lon="-3.79852">
        <ele>87</ele>
        <time>2023-07-03T12:09:32Z</time>
      </trkpt>
      <trkpt lat="47.87268" lon="-3.79807">
        <ele>86.8</ele>
        <time>2023-07-03T12:09:36Z</time>
      </trkpt>
      <trkpt lat="47.87257" lon="-3.79761">
        <ele>87.2</ele>
        <time>2023-07-03T12:09:40Z</time>
      </trkpt>
      <trkpt lat="47.87242" lon="-3.79715">
        <ele>83.4</ele>
        <time>2023-07-03T12:09:44Z</time>
      </trkpt>
      <trkpt lat="47.87229" lon="-3.79666">
        <ele>81.4</ele>
        <time>2023-07-03T12:09:48Z</time>
      </trkpt>
      <trkpt lat="47.87218" lon="-3.79622">
        <ele>85.2</ele>
        <time>2023-07-03T12:09:52Z</time>
      </trkpt>
      <trkpt lat="47.8721" lon="-3.7959">
        <ele>87.8</ele>
        <time>2023-07-03T12:09:56Z</time>
      </trkpt>
      <trkpt lat="47.87198" lon="-3.79584">
        <ele>87.8</ele>
        <time>2023-07-03T12:10:00Z</time>
      </trkpt>
      <trkpt lat="47.87186" lon="-3.79589">
        <ele>87.6</ele>
        <time>2023-07-03T12:10:04Z</time>
      </trkpt>
      <trkpt lat="47.87172" lon="-3.79598">
        <ele>87.6</ele>
        <time>2023-07-03T12:10:08Z</time>
      </trkpt>
      <trkpt lat="47.87155" lon="-3.79606">
        <ele>87.6</ele>
        <time>2023-07-03T12:10:12Z</time>
      </trkpt>
      <trkpt lat="47.87142" lon="-3.79615">
        <ele>86.8</ele>
        <time>2023-07-03T12:10:16Z</time>
      </trkpt>
      <trkpt lat="47.87142" lon="-3.79615">
        <ele>89.4</ele>
        <time>2023-07-03T12:10:20Z</time>
      </trkpt>
      <trkpt lat="47.87142" lon="-3.79615">
        <ele>89.6</ele>
        <time>2023-07-03T12:10:24Z</time>
      </trkpt>
      <trkpt lat="47.87142" lon="-3.79615">
        <ele>89.2</ele>
        <time>2023-07-03T12:10:28Z</time>
      </trkpt>
      <trkpt lat="47.87142" lon="-3.79615">
        <ele>89</ele>
        <time>2023-07-03T12:10:32Z</time>
      </trkpt>
      <trkpt lat="47.87132" lon="-3.79622">
        <ele>88.2</ele>
        <time>2023-07-03T12:10:36Z</time>
      </trkpt>
      <trkpt lat="47.87123" lon="-3.79626">
        <ele>88</ele>
        <time>2023-07-03T12:10:40Z</time>
      </trkpt>
      <trkpt lat="47.87113" lon="-3.79632">
        <ele>88.4</ele>
        <time>2023-07-03T12:10:44Z</time>
      </trkpt>
      <trkpt lat="47.871" lon="-3.79643">
        <ele>88.4</ele>
        <time>2023-07-03T12:10:48Z</time>
      </trkpt>
      <trkpt lat="47.87087" lon="-3.79655">
        <ele>88.2</ele>
        <time>2023-07-03T12:10:52Z</time>
      </trkpt>
      <trkpt lat="47.8707" lon="-3.79669">
        <ele>86.6</ele>
        <time>2023-07-03T12:10:56Z</time>
      </trkpt>
      <trkpt lat="47.87052" lon="-3.79685">
        <ele>87.4</ele>
        <time>2023-07-03T12:11:00Z</time>
      </trkpt>
      <trkpt lat="47.87037" lon="-3.79698">
        <ele>84.6</ele>
        <time>2023-07-03T12:11:04Z</time>
      </trkpt>
      <trkpt lat="47.87025" lon="-3.79711">
        <ele>84.6</ele>
        <time>2023-07-03T12:11:08Z</time>
      </trkpt>
      <trkpt lat="47.87007" lon="-3.79726">
        <ele>83.4</ele>
        <time>2023-07-03T12:11:12Z</time>
      </trkpt>
      <trkpt lat="47.86991" lon="-3.79738">
        <ele>83.2</ele>
        <time>2023-07-03T12:11:16Z</time>
      </trkpt>
      <trkpt lat="47.86968" lon="-3.7975">
        <ele>80.8</ele>
        <time>2023-07-03T12:11:20Z</time>
      </trkpt>
      <trkpt lat="47.86935" lon="-3.79762">
        <ele>78.6</ele>
        <time>2023-07-03T12:11:24Z</time>
      </trkpt>
      <trkpt lat="47.86898" lon="-3.79778">
        <ele>75.4</ele>
        <time>2023-07-03T12:11:28Z</time>
      </trkpt>
      <trkpt lat="47.86869" lon="-3.7979">
        <ele>74.2</ele>
        <time>2023-07-03T12:11:32Z</time>
      </trkpt>
      <trkpt lat="47.8684" lon="-3.79799">
        <ele>73.2</ele>
        <time>2023-07-03T12:11:36Z</time>
      </trkpt>
      <trkpt lat="47.86814" lon="-3.7981">
        <ele>72.6</ele>
        <time>2023-07-03T12:11:40Z</time>
      </trkpt>
      <trkpt lat="47.86786" lon="-3.79818">
        <ele>72.4</ele>
        <time>2023-07-03T12:11:44Z</time>
      </trkpt>
      <trkpt lat="47.86753" lon="-3.79822">
        <ele>72.8</ele>
        <time>2023-07-03T12:11:48Z</time>
      </trkpt>
      <trkpt lat="47.86716" lon="-3.79825">
        <ele>70.2</ele>
        <time>2023-07-03T12:11:52Z</time>
      </trkpt>
      <trkpt lat="47.86685" lon="-3.79834">
        <ele>71.6</ele>
        <time>2023-07-03T12:11:56Z</time>
      </trkpt>
      <trkpt lat="47.86657" lon="-3.7983">
        <ele>69.4</ele>
        <time>2023-07-03T12:12:00Z</time>
      </trkpt>
      <trkpt lat="47.86632" lon="-3.7982">
        <ele>67.8</ele>
        <time>2023-07-03T12:12:04Z</time>
      </trkpt>
      <trkpt lat="47.86606" lon="-3.79814">
        <ele>68.2</ele>
        <time>2023-07-03T12:12:08Z</time>
      </trkpt>
      <trkpt lat="47.86585" lon="-3.79809">
        <ele>67.6</ele>
        <time>2023-07-03T12:12:12Z</time>
      </trkpt>
      <trkpt lat="47.86573" lon="-3.79805">
        <ele>66.2</ele>
        <time>2023-07-03T12:12:16Z</time>
      </trkpt>
      <trkpt lat="47.86556" lon="-3.79803">
        <ele>65.2</ele>
        <time>2023-07-03T12:12:20Z</time>
      </trkpt>
      <trkpt lat="47.86535" lon="-3.79802">
        <ele>64.2</ele>
        <time>2023-07-03T12:12:24Z</time>
      </trkpt>
      <trkpt lat="47.86512" lon="-3.79806">
        <ele>63</ele>
        <time>2023-07-03T12:12:28Z</time>
      </trkpt>
      <trkpt lat="47.86489" lon="-3.79804">
        <ele>62.2</ele>
        <time>2023-07-03T12:12:32Z</time>
      </trkpt>
      <trkpt lat="47.86461" lon="-3.79805">
        <ele>59.8</ele>
        <time>2023-07-03T12:12:36Z</time>
      </trkpt>
      <trkpt lat="47.86435" lon="-3.798">
        <ele>62</ele>
        <time>2023-07-03T12:12:40Z</time>
      </trkpt>
      <trkpt lat="47.86415" lon="-3.79799">
        <ele>61</ele>
        <time>2023-07-03T12:12:44Z</time>
      </trkpt>
      <trkpt lat="47.86397" lon="-3.79799">
        <ele>61</ele>
        <time>2023-07-03T12:12:48Z</time>
      </trkpt>
      <trkpt lat="47.86377" lon="-3.79798">
        <ele>60.4</ele>
        <time>2023-07-03T12:12:52Z</time>
      </trkpt>
      <trkpt lat="47.86357" lon="-3.79792">
        <ele>60</ele>
        <time>2023-07-03T12:12:56Z</time>
      </trkpt>
      <trkpt lat="47.86333" lon="-3.79788">
        <ele>60.8</ele>
        <time>2023-07-03T12:13:00Z</time>
      </trkpt>
      <trkpt lat="47.86309" lon="-3.79781">
        <ele>59.6</ele>
        <time>2023-07-03T12:13:04Z</time>
      </trkpt>
      <trkpt lat="47.86287" lon="-3.79776">
        <ele>60.2</ele>
        <time>2023-07-03T12:13:08Z</time>
      </trkpt>
      <trkpt lat="47.86262" lon="-3.79772">
        <ele>60.6</ele>
        <time>2023-07-03T12:13:12Z</time>
      </trkpt>
      <trkpt lat="47.86239" lon="-3.79767">
        <ele>59.8</ele>
        <time>2023-07-03T12:13:16Z</time>
      </trkpt>
      <trkpt lat="47.86216" lon="-3.79762">
        <ele>59</ele>
        <time>2023-07-03T12:13:20Z</time>
      </trkpt>
      <trkpt lat="47.86191" lon="-3.79761">
        <ele>57.6</ele>
        <time>2023-07-03T12:13:24Z</time>
      </trkpt>
      <trkpt lat="47.86166" lon="-3.79759">
        <ele>55.4</ele>
        <time>2023-07-03T12:13:28Z</time>
      </trkpt>
      <trkpt lat="47.86144" lon="-3.79755">
        <ele>53</ele>
        <time>2023-07-03T12:13:32Z</time>
      </trkpt>
      <trkpt lat="47.86127" lon="-3.79754">
        <ele>54</ele>
        <time>2023-07-03T12:13:36Z</time>
      </trkpt>
      <trkpt lat="47.86102" lon="-3.79758">
        <ele>53</ele>
        <time>2023-07-03T12:13:40Z</time>
      </trkpt>
      <trkpt lat="47.86075" lon="-3.79766">
        <ele>52.8</ele>
        <time>2023-07-03T12:13:44Z</time>
      </trkpt>
      <trkpt lat="47.86052" lon="-3.79771">
        <ele>54.2</ele>
        <time>2023-07-03T12:13:48Z</time>
      </trkpt>
      <trkpt lat="47.86028" lon="-3.79774">
        <ele>53.2</ele>
        <time>2023-07-03T12:13:52Z</time>
      </trkpt>
      <trkpt lat="47.86005" lon="-3.79773">
        <ele>53.4</ele>
        <time>2023-07-03T12:13:56Z</time>
      </trkpt>
      <trkpt lat="47.85984" lon="-3.79773">
        <ele>53</ele>
        <time>2023-07-03T12:14:00Z</time>
      </trkpt>
      <trkpt lat="47.85967" lon="-3.79775">
        <ele>53.2</ele>
        <time>2023-07-03T12:14:04Z</time>
      </trkpt>
      <trkpt lat="47.85947" lon="-3.79775">
        <ele>52.2</ele>
        <time>2023-07-03T12:14:08Z</time>
      </trkpt>
      <trkpt lat="47.85927" lon="-3.79772">
        <ele>52</ele>
        <time>2023-07-03T12:14:12Z</time>
      </trkpt>
      <trkpt lat="47.85873" lon="-3.79768">
        <ele>49.2</ele>
        <time>2023-07-03T12:14:16Z</time>
      </trkpt>
      <trkpt lat="47.85854" lon="-3.79769">
        <ele>47</ele>
        <time>2023-07-03T12:14:20Z</time>
      </trkpt>
      <trkpt lat="47.85823" lon="-3.79763">
        <ele>44.2</ele>
        <time>2023-07-03T12:14:24Z</time>
      </trkpt>
      <trkpt lat="47.85793" lon="-3.79757">
        <ele>43.2</ele>
        <time>2023-07-03T12:14:28Z</time>
      </trkpt>
      <trkpt lat="47.85756" lon="-3.79755">
        <ele>42.8</ele>
        <time>2023-07-03T12:14:32Z</time>
      </trkpt>
      <trkpt lat="47.85723" lon="-3.79762">
        <ele>42.6</ele>
        <time>2023-07-03T12:14:36Z</time>
      </trkpt>
      <trkpt lat="47.85693" lon="-3.79764">
        <ele>42.2</ele>
        <time>2023-07-03T12:14:40Z</time>
      </trkpt>
      <trkpt lat="47.85664" lon="-3.79765">
        <ele>42.8</ele>
        <time>2023-07-03T12:14:44Z</time>
      </trkpt>
      <trkpt lat="47.85637" lon="-3.79763">
        <ele>44</ele>
        <time>2023-07-03T12:14:48Z</time>
      </trkpt>
      <trkpt lat="47.8561" lon="-3.7976">
        <ele>43.4</ele>
        <time>2023-07-03T12:14:52Z</time>
      </trkpt>
      <trkpt lat="47.85584" lon="-3.79759">
        <ele>45.2</ele>
        <time>2023-07-03T12:14:56Z</time>
      </trkpt>
      <trkpt lat="47.85557" lon="-3.79757">
        <ele>42.6</ele>
        <time>2023-07-03T12:15:00Z</time>
      </trkpt>
      <trkpt lat="47.85529" lon="-3.79755">
        <ele>39.8</ele>
        <time>2023-07-03T12:15:04Z</time>
      </trkpt>
      <trkpt lat="47.85502" lon="-3.79757">
        <ele>39.4</ele>
        <time>2023-07-03T12:15:08Z</time>
      </trkpt>
      <trkpt lat="47.85476" lon="-3.79756">
        <ele>40.2</ele>
        <time>2023-07-03T12:15:12Z</time>
      </trkpt>
      <trkpt lat="47.85455" lon="-3.79755">
        <ele>42.2</ele>
        <time>2023-07-03T12:15:16Z</time>
      </trkpt>
      <trkpt lat="47.85442" lon="-3.79755">
        <ele>43.2</ele>
        <time>2023-07-03T12:15:20Z</time>
      </trkpt>
      <trkpt lat="47.85442" lon="-3.79755">
        <ele>42.2</ele>
        <time>2023-07-03T12:15:24Z</time>
      </trkpt>
      <trkpt lat="47.85438" lon="-3.79753">
        <ele>43</ele>
        <time>2023-07-03T12:15:28Z</time>
      </trkpt>
      <trkpt lat="47.85422" lon="-3.79746">
        <ele>40.8</ele>
        <time>2023-07-03T12:15:32Z</time>
      </trkpt>
      <trkpt lat="47.85403" lon="-3.79745">
        <ele>40.4</ele>
        <time>2023-07-03T12:15:36Z</time>
      </trkpt>
      <trkpt lat="47.85384" lon="-3.79741">
        <ele>41.4</ele>
        <time>2023-07-03T12:15:40Z</time>
      </trkpt>
      <trkpt lat="47.85364" lon="-3.7974">
        <ele>41</ele>
        <time>2023-07-03T12:15:44Z</time>
      </trkpt>
      <trkpt lat="47.8534" lon="-3.79735">
        <ele>40.8</ele>
        <time>2023-07-03T12:15:48Z</time>
      </trkpt>
      <trkpt lat="47.85317" lon="-3.79732">
        <ele>41</ele>
        <time>2023-07-03T12:15:52Z</time>
      </trkpt>
      <trkpt lat="47.85292" lon="-3.79732">
        <ele>41.2</ele>
        <time>2023-07-03T12:15:56Z</time>
      </trkpt>
      <trkpt lat="47.85269" lon="-3.79735">
        <ele>40.8</ele>
        <time>2023-07-03T12:16:00Z</time>
      </trkpt>
      <trkpt lat="47.85249" lon="-3.7974">
        <ele>40.6</ele>
        <time>2023-07-03T12:16:04Z</time>
      </trkpt>
      <trkpt lat="47.8523" lon="-3.79748">
        <ele>41.2</ele>
        <time>2023-07-03T12:16:08Z</time>
      </trkpt>
      <trkpt lat="47.85212" lon="-3.79754">
        <ele>41.2</ele>
        <time>2023-07-03T12:16:12Z</time>
      </trkpt>
      <trkpt lat="47.85193" lon="-3.79756">
        <ele>41.4</ele>
        <time>2023-07-03T12:16:16Z</time>
      </trkpt>
      <trkpt lat="47.85174" lon="-3.79762">
        <ele>40.2</ele>
        <time>2023-07-03T12:16:20Z</time>
      </trkpt>
      <trkpt lat="47.85149" lon="-3.79769">
        <ele>39.8</ele>
        <time>2023-07-03T12:16:24Z</time>
      </trkpt>
      <trkpt lat="47.85127" lon="-3.79774">
        <ele>39.8</ele>
        <time>2023-07-03T12:16:28Z</time>
      </trkpt>
      <trkpt lat="47.85102" lon="-3.79782">
        <ele>38.6</ele>
        <time>2023-07-03T12:16:32Z</time>
      </trkpt>
      <trkpt lat="47.8508" lon="-3.79789">
        <ele>37.4</ele>
        <time>2023-07-03T12:16:36Z</time>
      </trkpt>
      <trkpt lat="47.85045" lon="-3.798">
        <ele>37.8</ele>
        <time>2023-07-03T12:16:40Z</time>
      </trkpt>
      <trkpt lat="47.85031" lon="-3.79805">
        <ele>35.8</ele>
        <time>2023-07-03T12:16:44Z</time>
      </trkpt>
      <trkpt lat="47.85001" lon="-3.79818">
        <ele>36.8</ele>
        <time>2023-07-03T12:16:48Z</time>
      </trkpt>
      <trkpt lat="47.84973" lon="-3.79842">
        <ele>36</ele>
        <time>2023-07-03T12:16:52Z</time>
      </trkpt>
      <trkpt lat="47.84954" lon="-3.79875">
        <ele>35.4</ele>
        <time>2023-07-03T12:16:56Z</time>
      </trkpt>
      <trkpt lat="47.8494" lon="-3.79903">
        <ele>36</ele>
        <time>2023-07-03T12:17:00Z</time>
      </trkpt>
      <trkpt lat="47.84931" lon="-3.79926">
        <ele>35.6</ele>
        <time>2023-07-03T12:17:04Z</time>
      </trkpt>
      <trkpt lat="47.84919" lon="-3.79941">
        <ele>36</ele>
        <time>2023-07-03T12:17:08Z</time>
      </trkpt>
      <trkpt lat="47.84902" lon="-3.79961">
        <ele>35.4</ele>
        <time>2023-07-03T12:17:12Z</time>
      </trkpt>
      <trkpt lat="47.84887" lon="-3.79983">
        <ele>37.8</ele>
        <time>2023-07-03T12:17:16Z</time>
      </trkpt>
      <trkpt lat="47.84876" lon="-3.80005">
        <ele>38.2</ele>
        <time>2023-07-03T12:17:20Z</time>
      </trkpt>
      <trkpt lat="47.84868" lon="-3.80026">
        <ele>39.2</ele>
        <time>2023-07-03T12:17:24Z</time>
      </trkpt>
      <trkpt lat="47.84861" lon="-3.80045">
        <ele>41.6</ele>
        <time>2023-07-03T12:17:28Z</time>
      </trkpt>
      <trkpt lat="47.84849" lon="-3.80061">
        <ele>43.4</ele>
        <time>2023-07-03T12:17:32Z</time>
      </trkpt>
      <trkpt lat="47.84838" lon="-3.80079">
        <ele>44</ele>
        <time>2023-07-03T12:17:36Z</time>
      </trkpt>
      <trkpt lat="47.84825" lon="-3.80094">
        <ele>44</ele>
        <time>2023-07-03T12:17:40Z</time>
      </trkpt>
      <trkpt lat="47.8481" lon="-3.8011">
        <ele>42.6</ele>
        <time>2023-07-03T12:17:44Z</time>
      </trkpt>
      <trkpt lat="47.84791" lon="-3.80133">
        <ele>41.6</ele>
        <time>2023-07-03T12:17:48Z</time>
      </trkpt>
      <trkpt lat="47.84773" lon="-3.80155">
        <ele>42.2</ele>
        <time>2023-07-03T12:17:52Z</time>
      </trkpt>
      <trkpt lat="47.84757" lon="-3.80174">
        <ele>44.2</ele>
        <time>2023-07-03T12:17:56Z</time>
      </trkpt>
      <trkpt lat="47.84741" lon="-3.80191">
        <ele>46</ele>
        <time>2023-07-03T12:18:00Z</time>
      </trkpt>
      <trkpt lat="47.84726" lon="-3.80213">
        <ele>46.6</ele>
        <time>2023-07-03T12:18:04Z</time>
      </trkpt>
      <trkpt lat="47.84708" lon="-3.8023">
        <ele>46.4</ele>
        <time>2023-07-03T12:18:08Z</time>
      </trkpt>
      <trkpt lat="47.84691" lon="-3.80247">
        <ele>46.6</ele>
        <time>2023-07-03T12:18:12Z</time>
      </trkpt>
      <trkpt lat="47.84672" lon="-3.80266">
        <ele>47</ele>
        <time>2023-07-03T12:18:16Z</time>
      </trkpt>
      <trkpt lat="47.84653" lon="-3.80286">
        <ele>47.2</ele>
        <time>2023-07-03T12:18:20Z</time>
      </trkpt>
      <trkpt lat="47.84637" lon="-3.80305">
        <ele>48.8</ele>
        <time>2023-07-03T12:18:24Z</time>
      </trkpt>
      <trkpt lat="47.8462" lon="-3.8032">
        <ele>49.8</ele>
        <time>2023-07-03T12:18:28Z</time>
      </trkpt>
      <trkpt lat="47.84603" lon="-3.80333">
        <ele>50.6</ele>
        <time>2023-07-03T12:18:32Z</time>
      </trkpt>
      <trkpt lat="47.84585" lon="-3.80343">
        <ele>49.8</ele>
        <time>2023-07-03T12:18:36Z</time>
      </trkpt>
      <trkpt lat="47.84576" lon="-3.80361">
        <ele>49.6</ele>
        <time>2023-07-03T12:18:40Z</time>
      </trkpt>
      <trkpt lat="47.84588" lon="-3.80381">
        <ele>49.6</ele>
        <time>2023-07-03T12:18:44Z</time>
      </trkpt>
      <trkpt lat="47.84603" lon="-3.80398">
        <ele>49.4</ele>
        <time>2023-07-03T12:18:48Z</time>
      </trkpt>
      <trkpt lat="47.8462" lon="-3.80414">
        <ele>49.8</ele>
        <time>2023-07-03T12:18:52Z</time>
      </trkpt>
      <trkpt lat="47.84637" lon="-3.80431">
        <ele>50</ele>
        <time>2023-07-03T12:18:56Z</time>
      </trkpt>
      <trkpt lat="47.84653" lon="-3.80449">
        <ele>50.2</ele>
        <time>2023-07-03T12:19:00Z</time>
      </trkpt>
      <trkpt lat="47.84669" lon="-3.80467">
        <ele>49.6</ele>
        <time>2023-07-03T12:19:04Z</time>
      </trkpt>
      <trkpt lat="47.84684" lon="-3.80486">
        <ele>49.6</ele>
        <time>2023-07-03T12:19:08Z</time>
      </trkpt>
      <trkpt lat="47.84699" lon="-3.80501">
        <ele>49.6</ele>
        <time>2023-07-03T12:19:12Z</time>
      </trkpt>
      <trkpt lat="47.84715" lon="-3.8052">
        <ele>49</ele>
        <time>2023-07-03T12:19:16Z</time>
      </trkpt>
      <trkpt lat="47.84735" lon="-3.80543">
        <ele>49</ele>
        <time>2023-07-03T12:19:20Z</time>
      </trkpt>
      <trkpt lat="47.84755" lon="-3.80568">
        <ele>47.6</ele>
        <time>2023-07-03T12:19:24Z</time>
      </trkpt>
      <trkpt lat="47.84768" lon="-3.80599">
        <ele>47.4</ele>
        <time>2023-07-03T12:19:28Z</time>
      </trkpt>
      <trkpt lat="47.84783" lon="-3.80631">
        <ele>47.2</ele>
        <time>2023-07-03T12:19:32Z</time>
      </trkpt>
      <trkpt lat="47.84798" lon="-3.80666">
        <ele>46.2</ele>
        <time>2023-07-03T12:19:36Z</time>
      </trkpt>
      <trkpt lat="47.84807" lon="-3.807">
        <ele>46.4</ele>
        <time>2023-07-03T12:19:40Z</time>
      </trkpt>
      <trkpt lat="47.84816" lon="-3.80731">
        <ele>46.2</ele>
        <time>2023-07-03T12:19:44Z</time>
      </trkpt>
      <trkpt lat="47.84829" lon="-3.80759">
        <ele>46.2</ele>
        <time>2023-07-03T12:19:48Z</time>
      </trkpt>
      <trkpt lat="47.84843" lon="-3.80786">
        <ele>45</ele>
        <time>2023-07-03T12:19:52Z</time>
      </trkpt>
      <trkpt lat="47.84865" lon="-3.80815">
        <ele>44.8</ele>
        <time>2023-07-03T12:19:56Z</time>
      </trkpt>
      <trkpt lat="47.8489" lon="-3.8084">
        <ele>44.6</ele>
        <time>2023-07-03T12:20:00Z</time>
      </trkpt>
      <trkpt lat="47.84911" lon="-3.80854">
        <ele>44.6</ele>
        <time>2023-07-03T12:20:04Z</time>
      </trkpt>
      <trkpt lat="47.84932" lon="-3.80866">
        <ele>44.6</ele>
        <time>2023-07-03T12:20:08Z</time>
      </trkpt>
      <trkpt lat="47.84941" lon="-3.80892">
        <ele>44.8</ele>
        <time>2023-07-03T12:20:12Z</time>
      </trkpt>
      <trkpt lat="47.84939" lon="-3.80916">
        <ele>45</ele>
        <time>2023-07-03T12:20:16Z</time>
      </trkpt>
      <trkpt lat="47.84934" lon="-3.8094">
        <ele>45.2</ele>
        <time>2023-07-03T12:20:20Z</time>
      </trkpt>
      <trkpt lat="47.84928" lon="-3.80962">
        <ele>46.4</ele>
        <time>2023-07-03T12:20:24Z</time>
      </trkpt>
      <trkpt lat="47.84922" lon="-3.80987">
        <ele>47</ele>
        <time>2023-07-03T12:20:28Z</time>
      </trkpt>
      <trkpt lat="47.84917" lon="-3.81012">
        <ele>47.4</ele>
        <time>2023-07-03T12:20:32Z</time>
      </trkpt>
      <trkpt lat="47.84912" lon="-3.81039">
        <ele>46.4</ele>
        <time>2023-07-03T12:20:36Z</time>
      </trkpt>
      <trkpt lat="47.84906" lon="-3.81065">
        <ele>48.6</ele>
        <time>2023-07-03T12:20:40Z</time>
      </trkpt>
      <trkpt lat="47.849" lon="-3.8109">
        <ele>48.2</ele>
        <time>2023-07-03T12:20:44Z</time>
      </trkpt>
      <trkpt lat="47.84891" lon="-3.81114">
        <ele>47.2</ele>
        <time>2023-07-03T12:20:48Z</time>
      </trkpt>
      <trkpt lat="47.84883" lon="-3.81139">
        <ele>47.2</ele>
        <time>2023-07-03T12:20:52Z</time>
      </trkpt>
      <trkpt lat="47.84874" lon="-3.81164">
        <ele>46.6</ele>
        <time>2023-07-03T12:20:56Z</time>
      </trkpt>
      <trkpt lat="47.84864" lon="-3.8119">
        <ele>45.4</ele>
        <time>2023-07-03T12:21:00Z</time>
      </trkpt>
      <trkpt lat="47.84851" lon="-3.81215">
        <ele>44.4</ele>
        <time>2023-07-03T12:21:04Z</time>
      </trkpt>
      <trkpt lat="47.84842" lon="-3.81238">
        <ele>46.2</ele>
        <time>2023-07-03T12:21:08Z</time>
      </trkpt>
      <trkpt lat="47.84831" lon="-3.8126">
        <ele>47</ele>
        <time>2023-07-03T12:21:12Z</time>
      </trkpt>
      <trkpt lat="47.84821" lon="-3.81279">
        <ele>46.8</ele>
        <time>2023-07-03T12:21:16Z</time>
      </trkpt>
      <trkpt lat="47.84812" lon="-3.81302">
        <ele>48.4</ele>
        <time>2023-07-03T12:21:20Z</time>
      </trkpt>
      <trkpt lat="47.84797" lon="-3.81325">
        <ele>49.4</ele>
        <time>2023-07-03T12:21:24Z</time>
      </trkpt>
      <trkpt lat="47.84783" lon="-3.81345">
        <ele>49.8</ele>
        <time>2023-07-03T12:21:28Z</time>
      </trkpt>
      <trkpt lat="47.84766" lon="-3.81363">
        <ele>51</ele>
        <time>2023-07-03T12:21:32Z</time>
      </trkpt>
      <trkpt lat="47.84744" lon="-3.81383">
        <ele>51</ele>
        <time>2023-07-03T12:21:36Z</time>
      </trkpt>
      <trkpt lat="47.84722" lon="-3.81408">
        <ele>52.2</ele>
        <time>2023-07-03T12:21:40Z</time>
      </trkpt>
      <trkpt lat="47.84704" lon="-3.81425">
        <ele>52.6</ele>
        <time>2023-07-03T12:21:44Z</time>
      </trkpt>
      <trkpt lat="47.84688" lon="-3.81438">
        <ele>53.4</ele>
        <time>2023-07-03T12:21:48Z</time>
      </trkpt>
      <trkpt lat="47.84673" lon="-3.81451">
        <ele>52.2</ele>
        <time>2023-07-03T12:21:52Z</time>
      </trkpt>
      <trkpt lat="47.84656" lon="-3.8147">
        <ele>52</ele>
        <time>2023-07-03T12:21:56Z</time>
      </trkpt>
      <trkpt lat="47.84637" lon="-3.81479">
        <ele>52.6</ele>
        <time>2023-07-03T12:22:00Z</time>
      </trkpt>
      <trkpt lat="47.84614" lon="-3.81485">
        <ele>51.4</ele>
        <time>2023-07-03T12:22:04Z</time>
      </trkpt>
      <trkpt lat="47.84589" lon="-3.81491">
        <ele>51.6</ele>
        <time>2023-07-03T12:22:08Z</time>
      </trkpt>
      <trkpt lat="47.84562" lon="-3.81493">
        <ele>47.4</ele>
        <time>2023-07-03T12:22:12Z</time>
      </trkpt>
      <trkpt lat="47.84532" lon="-3.81498">
        <ele>48.6</ele>
        <time>2023-07-03T12:22:16Z</time>
      </trkpt>
      <trkpt lat="47.84505" lon="-3.81501">
        <ele>47.4</ele>
        <time>2023-07-03T12:22:20Z</time>
      </trkpt>
      <trkpt lat="47.84476" lon="-3.81502">
        <ele>46.4</ele>
        <time>2023-07-03T12:22:24Z</time>
      </trkpt>
      <trkpt lat="47.8445" lon="-3.81501">
        <ele>43</ele>
        <time>2023-07-03T12:22:28Z</time>
      </trkpt>
      <trkpt lat="47.84408" lon="-3.81491">
        <ele>40.4</ele>
        <time>2023-07-03T12:22:32Z</time>
      </trkpt>
      <trkpt lat="47.8439" lon="-3.81486">
        <ele>37.8</ele>
        <time>2023-07-03T12:22:36Z</time>
      </trkpt>
      <trkpt lat="47.84361" lon="-3.81474">
        <ele>37.6</ele>
        <time>2023-07-03T12:22:40Z</time>
      </trkpt>
      <trkpt lat="47.84344" lon="-3.81473">
        <ele>37.6</ele>
        <time>2023-07-03T12:22:44Z</time>
      </trkpt>
      <trkpt lat="47.84331" lon="-3.81471">
        <ele>37.8</ele>
        <time>2023-07-03T12:22:48Z</time>
      </trkpt>
      <trkpt lat="47.84319" lon="-3.81469">
        <ele>36.8</ele>
        <time>2023-07-03T12:22:52Z</time>
      </trkpt>
      <trkpt lat="47.84303" lon="-3.81471">
        <ele>37.6</ele>
        <time>2023-07-03T12:22:56Z</time>
      </trkpt>
      <trkpt lat="47.84289" lon="-3.8147">
        <ele>37.6</ele>
        <time>2023-07-03T12:23:00Z</time>
      </trkpt>
      <trkpt lat="47.8428" lon="-3.81471">
        <ele>37.4</ele>
        <time>2023-07-03T12:23:04Z</time>
      </trkpt>
      <trkpt lat="47.8428" lon="-3.81471">
        <ele>37.6</ele>
        <time>2023-07-03T12:23:08Z</time>
      </trkpt>
      <trkpt lat="47.8428" lon="-3.81471">
        <ele>37.6</ele>
        <time>2023-07-03T12:23:12Z</time>
      </trkpt>
      <trkpt lat="47.8428" lon="-3.81471">
        <ele>37.8</ele>
        <time>2023-07-03T12:23:16Z</time>
      </trkpt>
      <trkpt lat="47.8428" lon="-3.81471">
        <ele>38</ele>
        <time>2023-07-03T12:23:20Z</time>
      </trkpt>
      <trkpt lat="47.8428" lon="-3.81471">
        <ele>37.8</ele>
        <time>2023-07-03T12:23:24Z</time>
      </trkpt>
      <trkpt lat="47.8428" lon="-3.81471">
        <ele>37.8</ele>
        <time>2023-07-03T12:23:28Z</time>
      </trkpt>
      <trkpt lat="47.84253" lon="-3.81465">
        <ele>37.4</ele>
        <time>2023-07-03T12:23:32Z</time>
      </trkpt>
      <trkpt lat="47.84246" lon="-3.81463">
        <ele>36.8</ele>
        <time>2023-07-03T12:23:36Z</time>
      </trkpt>
      <trkpt lat="47.84236" lon="-3.81461">
        <ele>35.4</ele>
        <time>2023-07-03T12:23:40Z</time>
      </trkpt>
      <trkpt lat="47.84222" lon="-3.81457">
        <ele>34.4</ele>
        <time>2023-07-03T12:23:44Z</time>
      </trkpt>
      <trkpt lat="47.84209" lon="-3.81454">
        <ele>34</ele>
        <time>2023-07-03T12:23:48Z</time>
      </trkpt>
      <trkpt lat="47.84199" lon="-3.81456">
        <ele>33.8</ele>
        <time>2023-07-03T12:23:52Z</time>
      </trkpt>
      <trkpt lat="47.8419" lon="-3.81456">
        <ele>34</ele>
        <time>2023-07-03T12:23:56Z</time>
      </trkpt>
      <trkpt lat="47.84177" lon="-3.81458">
        <ele>32.8</ele>
        <time>2023-07-03T12:24:00Z</time>
      </trkpt>
      <trkpt lat="47.84169" lon="-3.81451">
        <ele>31.6</ele>
        <time>2023-07-03T12:24:04Z</time>
      </trkpt>
      <trkpt lat="47.8416" lon="-3.81441">
        <ele>31.4</ele>
        <time>2023-07-03T12:24:08Z</time>
      </trkpt>
      <trkpt lat="47.84145" lon="-3.81436">
        <ele>30.6</ele>
        <time>2023-07-03T12:24:12Z</time>
      </trkpt>
      <trkpt lat="47.84135" lon="-3.81439">
        <ele>31.4</ele>
        <time>2023-07-03T12:24:16Z</time>
      </trkpt>
      <trkpt lat="47.84121" lon="-3.81443">
        <ele>31</ele>
        <time>2023-07-03T12:24:20Z</time>
      </trkpt>
      <trkpt lat="47.84108" lon="-3.81451">
        <ele>31</ele>
        <time>2023-07-03T12:24:24Z</time>
      </trkpt>
      <trkpt lat="47.84094" lon="-3.81453">
        <ele>31.6</ele>
        <time>2023-07-03T12:24:28Z</time>
      </trkpt>
      <trkpt lat="47.84081" lon="-3.81456">
        <ele>32.6</ele>
        <time>2023-07-03T12:24:32Z</time>
      </trkpt>
      <trkpt lat="47.84064" lon="-3.81461">
        <ele>32.4</ele>
        <time>2023-07-03T12:24:36Z</time>
      </trkpt>
      <trkpt lat="47.84053" lon="-3.81466">
        <ele>32.8</ele>
        <time>2023-07-03T12:24:40Z</time>
      </trkpt>
      <trkpt lat="47.84039" lon="-3.81471">
        <ele>33</ele>
        <time>2023-07-03T12:24:44Z</time>
      </trkpt>
      <trkpt lat="47.84015" lon="-3.81471">
        <ele>32.4</ele>
        <time>2023-07-03T12:24:48Z</time>
      </trkpt>
      <trkpt lat="47.83993" lon="-3.81477">
        <ele>31</ele>
        <time>2023-07-03T12:24:52Z</time>
      </trkpt>
      <trkpt lat="47.83975" lon="-3.81483">
        <ele>29.8</ele>
        <time>2023-07-03T12:24:56Z</time>
      </trkpt>
      <trkpt lat="47.83957" lon="-3.81478">
        <ele>30.8</ele>
        <time>2023-07-03T12:25:00Z</time>
      </trkpt>
      <trkpt lat="47.8394" lon="-3.81477">
        <ele>30.6</ele>
        <time>2023-07-03T12:25:04Z</time>
      </trkpt>
      <trkpt lat="47.83927" lon="-3.81476">
        <ele>31.4</ele>
        <time>2023-07-03T12:25:08Z</time>
      </trkpt>
      <trkpt lat="47.83909" lon="-3.81473">
        <ele>32.4</ele>
        <time>2023-07-03T12:25:12Z</time>
      </trkpt>
      <trkpt lat="47.83893" lon="-3.81471">
        <ele>33.4</ele>
        <time>2023-07-03T12:25:16Z</time>
      </trkpt>
      <trkpt lat="47.83875" lon="-3.81469">
        <ele>34.6</ele>
        <time>2023-07-03T12:25:20Z</time>
      </trkpt>
      <trkpt lat="47.83857" lon="-3.81462">
        <ele>35.4</ele>
        <time>2023-07-03T12:25:24Z</time>
      </trkpt>
      <trkpt lat="47.83838" lon="-3.8146">
        <ele>35.8</ele>
        <time>2023-07-03T12:25:28Z</time>
      </trkpt>
      <trkpt lat="47.83823" lon="-3.81458">
        <ele>37.2</ele>
        <time>2023-07-03T12:25:32Z</time>
      </trkpt>
      <trkpt lat="47.83809" lon="-3.81455">
        <ele>38.8</ele>
        <time>2023-07-03T12:25:36Z</time>
      </trkpt>
      <trkpt lat="47.83797" lon="-3.8145">
        <ele>38.8</ele>
        <time>2023-07-03T12:25:40Z</time>
      </trkpt>
      <trkpt lat="47.83784" lon="-3.81444">
        <ele>40.2</ele>
        <time>2023-07-03T12:25:44Z</time>
      </trkpt>
      <trkpt lat="47.83773" lon="-3.81434">
        <ele>40.8</ele>
        <time>2023-07-03T12:25:48Z</time>
      </trkpt>
      <trkpt lat="47.83759" lon="-3.81427">
        <ele>42.2</ele>
        <time>2023-07-03T12:25:52Z</time>
      </trkpt>
      <trkpt lat="47.83744" lon="-3.81423">
        <ele>42.6</ele>
        <time>2023-07-03T12:25:56Z</time>
      </trkpt>
      <trkpt lat="47.83729" lon="-3.81418">
        <ele>42.2</ele>
        <time>2023-07-03T12:26:00Z</time>
      </trkpt>
      <trkpt lat="47.83712" lon="-3.8141">
        <ele>41.4</ele>
        <time>2023-07-03T12:26:04Z</time>
      </trkpt>
      <trkpt lat="47.83692" lon="-3.814">
        <ele>39.8</ele>
        <time>2023-07-03T12:26:08Z</time>
      </trkpt>
      <trkpt lat="47.8367" lon="-3.8139">
        <ele>40.6</ele>
        <time>2023-07-03T12:26:12Z</time>
      </trkpt>
      <trkpt lat="47.83646" lon="-3.81381">
        <ele>39.6</ele>
        <time>2023-07-03T12:26:16Z</time>
      </trkpt>
      <trkpt lat="47.83623" lon="-3.8138">
        <ele>37.4</ele>
        <time>2023-07-03T12:26:20Z</time>
      </trkpt>
      <trkpt lat="47.83601" lon="-3.81389">
        <ele>36.4</ele>
        <time>2023-07-03T12:26:24Z</time>
      </trkpt>
      <trkpt lat="47.83584" lon="-3.81397">
        <ele>35.4</ele>
        <time>2023-07-03T12:26:28Z</time>
      </trkpt>
      <trkpt lat="47.83572" lon="-3.81402">
        <ele>35.8</ele>
        <time>2023-07-03T12:26:32Z</time>
      </trkpt>
      <trkpt lat="47.83552" lon="-3.81409">
        <ele>33.6</ele>
        <time>2023-07-03T12:26:36Z</time>
      </trkpt>
      <trkpt lat="47.83534" lon="-3.81419">
        <ele>30.6</ele>
        <time>2023-07-03T12:26:40Z</time>
      </trkpt>
      <trkpt lat="47.83519" lon="-3.81425">
        <ele>34.8</ele>
        <time>2023-07-03T12:26:44Z</time>
      </trkpt>
      <trkpt lat="47.83503" lon="-3.81427">
        <ele>35</ele>
        <time>2023-07-03T12:26:48Z</time>
      </trkpt>
      <trkpt lat="47.83487" lon="-3.81435">
        <ele>37</ele>
        <time>2023-07-03T12:26:52Z</time>
      </trkpt>
      <trkpt lat="47.8347" lon="-3.81433">
        <ele>39.4</ele>
        <time>2023-07-03T12:26:56Z</time>
      </trkpt>
      <trkpt lat="47.83453" lon="-3.81429">
        <ele>39.4</ele>
        <time>2023-07-03T12:27:00Z</time>
      </trkpt>
      <trkpt lat="47.83435" lon="-3.81421">
        <ele>38.8</ele>
        <time>2023-07-03T12:27:04Z</time>
      </trkpt>
      <trkpt lat="47.8342" lon="-3.81416">
        <ele>38.2</ele>
        <time>2023-07-03T12:27:08Z</time>
      </trkpt>
      <trkpt lat="47.83401" lon="-3.81408">
        <ele>37.8</ele>
        <time>2023-07-03T12:27:12Z</time>
      </trkpt>
      <trkpt lat="47.83382" lon="-3.814">
        <ele>38</ele>
        <time>2023-07-03T12:27:16Z</time>
      </trkpt>
      <trkpt lat="47.83366" lon="-3.81394">
        <ele>36</ele>
        <time>2023-07-03T12:27:20Z</time>
      </trkpt>
      <trkpt lat="47.83345" lon="-3.81386">
        <ele>38.4</ele>
        <time>2023-07-03T12:27:24Z</time>
      </trkpt>
      <trkpt lat="47.83325" lon="-3.81389">
        <ele>38.6</ele>
        <time>2023-07-03T12:27:28Z</time>
      </trkpt>
      <trkpt lat="47.83315" lon="-3.81408">
        <ele>38.6</ele>
        <time>2023-07-03T12:27:32Z</time>
      </trkpt>
      <trkpt lat="47.83313" lon="-3.81427">
        <ele>39.2</ele>
        <time>2023-07-03T12:27:36Z</time>
      </trkpt>
      <trkpt lat="47.83309" lon="-3.81447">
        <ele>38.8</ele>
        <time>2023-07-03T12:27:40Z</time>
      </trkpt>
      <trkpt lat="47.83305" lon="-3.81469">
        <ele>38.8</ele>
        <time>2023-07-03T12:27:44Z</time>
      </trkpt>
      <trkpt lat="47.83291" lon="-3.81485">
        <ele>38.4</ele>
        <time>2023-07-03T12:27:48Z</time>
      </trkpt>
      <trkpt lat="47.83273" lon="-3.8149">
        <ele>38.8</ele>
        <time>2023-07-03T12:27:52Z</time>
      </trkpt>
      <trkpt lat="47.8325" lon="-3.81489">
        <ele>39.4</ele>
        <time>2023-07-03T12:27:56Z</time>
      </trkpt>
      <trkpt lat="47.83227" lon="-3.81487">
        <ele>40.2</ele>
        <time>2023-07-03T12:28:00Z</time>
      </trkpt>
      <trkpt lat="47.83208" lon="-3.81482">
        <ele>41</ele>
        <time>2023-07-03T12:28:04Z</time>
      </trkpt>
      <trkpt lat="47.8319" lon="-3.81493">
        <ele>39.4</ele>
        <time>2023-07-03T12:28:08Z</time>
      </trkpt>
      <trkpt lat="47.83182" lon="-3.81517">
        <ele>41.4</ele>
        <time>2023-07-03T12:28:12Z</time>
      </trkpt>
      <trkpt lat="47.83176" lon="-3.81543">
        <ele>39.8</ele>
        <time>2023-07-03T12:28:16Z</time>
      </trkpt>
      <trkpt lat="47.83169" lon="-3.81567">
        <ele>41.8</ele>
        <time>2023-07-03T12:28:20Z</time>
      </trkpt>
      <trkpt lat="47.83166" lon="-3.81589">
        <ele>42.2</ele>
        <time>2023-07-03T12:28:24Z</time>
      </trkpt>
      <trkpt lat="47.8316" lon="-3.81614">
        <ele>42.6</ele>
        <time>2023-07-03T12:28:28Z</time>
      </trkpt>
      <trkpt lat="47.83152" lon="-3.81637">
        <ele>41.8</ele>
        <time>2023-07-03T12:28:32Z</time>
      </trkpt>
      <trkpt lat="47.83144" lon="-3.81663">
        <ele>42.8</ele>
        <time>2023-07-03T12:28:36Z</time>
      </trkpt>
      <trkpt lat="47.83139" lon="-3.81683">
        <ele>42.4</ele>
        <time>2023-07-03T12:28:40Z</time>
      </trkpt>
      <trkpt lat="47.83133" lon="-3.81702">
        <ele>41.2</ele>
        <time>2023-07-03T12:28:44Z</time>
      </trkpt>
      <trkpt lat="47.83126" lon="-3.81725">
        <ele>41.2</ele>
        <time>2023-07-03T12:28:48Z</time>
      </trkpt>
      <trkpt lat="47.83117" lon="-3.81754">
        <ele>41.6</ele>
        <time>2023-07-03T12:28:52Z</time>
      </trkpt>
      <trkpt lat="47.83113" lon="-3.81779">
        <ele>41</ele>
        <time>2023-07-03T12:28:56Z</time>
      </trkpt>
      <trkpt lat="47.83105" lon="-3.81801">
        <ele>42.2</ele>
        <time>2023-07-03T12:29:00Z</time>
      </trkpt>
      <trkpt lat="47.831" lon="-3.8182">
        <ele>43.8</ele>
        <time>2023-07-03T12:29:04Z</time>
      </trkpt>
      <trkpt lat="47.83092" lon="-3.81842">
        <ele>43.6</ele>
        <time>2023-07-03T12:29:08Z</time>
      </trkpt>
      <trkpt lat="47.83084" lon="-3.81863">
        <ele>45.8</ele>
        <time>2023-07-03T12:29:12Z</time>
      </trkpt>
      <trkpt lat="47.83072" lon="-3.81884">
        <ele>44.4</ele>
        <time>2023-07-03T12:29:16Z</time>
      </trkpt>
      <trkpt lat="47.83061" lon="-3.81885">
        <ele>44.4</ele>
        <time>2023-07-03T12:29:20Z</time>
      </trkpt>
      <trkpt lat="47.8305" lon="-3.81867">
        <ele>44.8</ele>
        <time>2023-07-03T12:29:24Z</time>
      </trkpt>
      <trkpt lat="47.83034" lon="-3.81848">
        <ele>45.2</ele>
        <time>2023-07-03T12:29:28Z</time>
      </trkpt>
      <trkpt lat="47.83018" lon="-3.81826">
        <ele>45</ele>
        <time>2023-07-03T12:29:32Z</time>
      </trkpt>
      <trkpt lat="47.83002" lon="-3.81808">
        <ele>44.6</ele>
        <time>2023-07-03T12:29:36Z</time>
      </trkpt>
      <trkpt lat="47.82983" lon="-3.81784">
        <ele>44.4</ele>
        <time>2023-07-03T12:29:40Z</time>
      </trkpt>
      <trkpt lat="47.82969" lon="-3.81754">
        <ele>43.4</ele>
        <time>2023-07-03T12:29:44Z</time>
      </trkpt>
      <trkpt lat="47.82964" lon="-3.81717">
        <ele>44.6</ele>
        <time>2023-07-03T12:29:48Z</time>
      </trkpt>
      <trkpt lat="47.8296" lon="-3.8168">
        <ele>43.2</ele>
        <time>2023-07-03T12:29:52Z</time>
      </trkpt>
      <trkpt lat="47.82959" lon="-3.81642">
        <ele>42.8</ele>
        <time>2023-07-03T12:29:56Z</time>
      </trkpt>
      <trkpt lat="47.82957" lon="-3.81605">
        <ele>41.2</ele>
        <time>2023-07-03T12:30:00Z</time>
      </trkpt>
      <trkpt lat="47.82958" lon="-3.81566">
        <ele>42.6</ele>
        <time>2023-07-03T12:30:04Z</time>
      </trkpt>
      <trkpt lat="47.82959" lon="-3.81526">
        <ele>41.6</ele>
        <time>2023-07-03T12:30:08Z</time>
      </trkpt>
      <trkpt lat="47.82961" lon="-3.81486">
        <ele>39.6</ele>
        <time>2023-07-03T12:30:12Z</time>
      </trkpt>
      <trkpt lat="47.82959" lon="-3.81449">
        <ele>41.4</ele>
        <time>2023-07-03T12:30:16Z</time>
      </trkpt>
      <trkpt lat="47.82956" lon="-3.81409">
        <ele>39.6</ele>
        <time>2023-07-03T12:30:20Z</time>
      </trkpt>
      <trkpt lat="47.82951" lon="-3.8137">
        <ele>40</ele>
        <time>2023-07-03T12:30:24Z</time>
      </trkpt>
      <trkpt lat="47.82948" lon="-3.81338">
        <ele>39</ele>
        <time>2023-07-03T12:30:28Z</time>
      </trkpt>
      <trkpt lat="47.82945" lon="-3.81297">
        <ele>40.6</ele>
        <time>2023-07-03T12:30:32Z</time>
      </trkpt>
      <trkpt lat="47.82943" lon="-3.81261">
        <ele>40</ele>
        <time>2023-07-03T12:30:36Z</time>
      </trkpt>
      <trkpt lat="47.82943" lon="-3.81225">
        <ele>40.8</ele>
        <time>2023-07-03T12:30:40Z</time>
      </trkpt>
      <trkpt lat="47.82947" lon="-3.81194">
        <ele>39.2</ele>
        <time>2023-07-03T12:30:44Z</time>
      </trkpt>
      <trkpt lat="47.82945" lon="-3.81165">
        <ele>39.2</ele>
        <time>2023-07-03T12:30:48Z</time>
      </trkpt>
      <trkpt lat="47.82944" lon="-3.81134">
        <ele>40</ele>
        <time>2023-07-03T12:30:52Z</time>
      </trkpt>
      <trkpt lat="47.82943" lon="-3.81094">
        <ele>40.2</ele>
        <time>2023-07-03T12:30:56Z</time>
      </trkpt>
      <trkpt lat="47.82946" lon="-3.81046">
        <ele>40.6</ele>
        <time>2023-07-03T12:31:00Z</time>
      </trkpt>
      <trkpt lat="47.82951" lon="-3.81009">
        <ele>41.4</ele>
        <time>2023-07-03T12:31:04Z</time>
      </trkpt>
      <trkpt lat="47.82962" lon="-3.80973">
        <ele>40.6</ele>
        <time>2023-07-03T12:31:08Z</time>
      </trkpt>
      <trkpt lat="47.82971" lon="-3.80938">
        <ele>41.6</ele>
        <time>2023-07-03T12:31:12Z</time>
      </trkpt>
      <trkpt lat="47.82979" lon="-3.80904">
        <ele>42.2</ele>
        <time>2023-07-03T12:31:16Z</time>
      </trkpt>
      <trkpt lat="47.82989" lon="-3.80868">
        <ele>41.8</ele>
        <time>2023-07-03T12:31:20Z</time>
      </trkpt>
      <trkpt lat="47.82999" lon="-3.80837">
        <ele>41.4</ele>
        <time>2023-07-03T12:31:24Z</time>
      </trkpt>
      <trkpt lat="47.83021" lon="-3.80815">
        <ele>41.6</ele>
        <time>2023-07-03T12:31:28Z</time>
      </trkpt>
      <trkpt lat="47.83048" lon="-3.80801">
        <ele>40.8</ele>
        <time>2023-07-03T12:31:32Z</time>
      </trkpt>
      <trkpt lat="47.83067" lon="-3.80777">
        <ele>42</ele>
        <time>2023-07-03T12:31:36Z</time>
      </trkpt>
      <trkpt lat="47.83076" lon="-3.80748">
        <ele>42.2</ele>
        <time>2023-07-03T12:31:40Z</time>
      </trkpt>
      <trkpt lat="47.83074" lon="-3.80724">
        <ele>42.8</ele>
        <time>2023-07-03T12:31:44Z</time>
      </trkpt>
      <trkpt lat="47.83067" lon="-3.80694">
        <ele>42.8</ele>
        <time>2023-07-03T12:31:48Z</time>
      </trkpt>
      <trkpt lat="47.83063" lon="-3.80661">
        <ele>42.6</ele>
        <time>2023-07-03T12:31:52Z</time>
      </trkpt>
      <trkpt lat="47.83064" lon="-3.80631">
        <ele>42.2</ele>
        <time>2023-07-03T12:31:56Z</time>
      </trkpt>
      <trkpt lat="47.83068" lon="-3.80602">
        <ele>41.4</ele>
        <time>2023-07-03T12:32:00Z</time>
      </trkpt>
      <trkpt lat="47.83075" lon="-3.80573">
        <ele>42.2</ele>
        <time>2023-07-03T12:32:04Z</time>
      </trkpt>
      <trkpt lat="47.83082" lon="-3.80538">
        <ele>42.8</ele>
        <time>2023-07-03T12:32:08Z</time>
      </trkpt>
      <trkpt lat="47.83092" lon="-3.80507">
        <ele>42.6</ele>
        <time>2023-07-03T12:32:12Z</time>
      </trkpt>
      <trkpt lat="47.83099" lon="-3.80472">
        <ele>43.4</ele>
        <time>2023-07-03T12:32:16Z</time>
      </trkpt>
      <trkpt lat="47.83104" lon="-3.80438">
        <ele>44.2</ele>
        <time>2023-07-03T12:32:20Z</time>
      </trkpt>
      <trkpt lat="47.83113" lon="-3.80402">
        <ele>44.4</ele>
        <time>2023-07-03T12:32:24Z</time>
      </trkpt>
      <trkpt lat="47.83126" lon="-3.80372">
        <ele>44.4</ele>
        <time>2023-07-03T12:32:28Z</time>
      </trkpt>
      <trkpt lat="47.83137" lon="-3.80341">
        <ele>44.6</ele>
        <time>2023-07-03T12:32:32Z</time>
      </trkpt>
      <trkpt lat="47.83148" lon="-3.80308">
        <ele>45.2</ele>
        <time>2023-07-03T12:32:36Z</time>
      </trkpt>
      <trkpt lat="47.83162" lon="-3.80276">
        <ele>45.2</ele>
        <time>2023-07-03T12:32:40Z</time>
      </trkpt>
      <trkpt lat="47.83174" lon="-3.80245">
        <ele>42.8</ele>
        <time>2023-07-03T12:32:44Z</time>
      </trkpt>
      <trkpt lat="47.83186" lon="-3.80215">
        <ele>44</ele>
        <time>2023-07-03T12:32:48Z</time>
      </trkpt>
      <trkpt lat="47.83201" lon="-3.80189">
        <ele>44.2</ele>
        <time>2023-07-03T12:32:52Z</time>
      </trkpt>
      <trkpt lat="47.83217" lon="-3.80161">
        <ele>44.4</ele>
        <time>2023-07-03T12:32:56Z</time>
      </trkpt>
      <trkpt lat="47.83232" lon="-3.80132">
        <ele>44.6</ele>
        <time>2023-07-03T12:33:00Z</time>
      </trkpt>
      <trkpt lat="47.83247" lon="-3.80103">
        <ele>46</ele>
        <time>2023-07-03T12:33:04Z</time>
      </trkpt>
      <trkpt lat="47.83248" lon="-3.80077">
        <ele>46.8</ele>
        <time>2023-07-03T12:33:08Z</time>
      </trkpt>
      <trkpt lat="47.83234" lon="-3.80069">
        <ele>45.4</ele>
        <time>2023-07-03T12:33:12Z</time>
      </trkpt>
      <trkpt lat="47.83217" lon="-3.80063">
        <ele>45.4</ele>
        <time>2023-07-03T12:33:16Z</time>
      </trkpt>
      <trkpt lat="47.83196" lon="-3.80058">
        <ele>46</ele>
        <time>2023-07-03T12:33:20Z</time>
      </trkpt>
      <trkpt lat="47.83174" lon="-3.80054">
        <ele>45.8</ele>
        <time>2023-07-03T12:33:24Z</time>
      </trkpt>
      <trkpt lat="47.83151" lon="-3.8005">
        <ele>46</ele>
        <time>2023-07-03T12:33:28Z</time>
      </trkpt>
      <trkpt lat="47.83128" lon="-3.80046">
        <ele>43.6</ele>
        <time>2023-07-03T12:33:32Z</time>
      </trkpt>
      <trkpt lat="47.83104" lon="-3.80041">
        <ele>44.2</ele>
        <time>2023-07-03T12:33:36Z</time>
      </trkpt>
      <trkpt lat="47.8308" lon="-3.80036">
        <ele>45</ele>
        <time>2023-07-03T12:33:40Z</time>
      </trkpt>
      <trkpt lat="47.83055" lon="-3.80029">
        <ele>45.4</ele>
        <time>2023-07-03T12:33:44Z</time>
      </trkpt>
      <trkpt lat="47.8303" lon="-3.80018">
        <ele>42.6</ele>
        <time>2023-07-03T12:33:48Z</time>
      </trkpt>
      <trkpt lat="47.83005" lon="-3.80002">
        <ele>42.2</ele>
        <time>2023-07-03T12:33:52Z</time>
      </trkpt>
      <trkpt lat="47.82981" lon="-3.79982">
        <ele>42.6</ele>
        <time>2023-07-03T12:33:56Z</time>
      </trkpt>
      <trkpt lat="47.82958" lon="-3.7996">
        <ele>42.6</ele>
        <time>2023-07-03T12:34:00Z</time>
      </trkpt>
      <trkpt lat="47.82938" lon="-3.79937">
        <ele>41.6</ele>
        <time>2023-07-03T12:34:04Z</time>
      </trkpt>
      <trkpt lat="47.82918" lon="-3.79911">
        <ele>41.2</ele>
        <time>2023-07-03T12:34:08Z</time>
      </trkpt>
      <trkpt lat="47.829" lon="-3.79886">
        <ele>41.4</ele>
        <time>2023-07-03T12:34:12Z</time>
      </trkpt>
      <trkpt lat="47.82879" lon="-3.79862">
        <ele>41.2</ele>
        <time>2023-07-03T12:34:16Z</time>
      </trkpt>
      <trkpt lat="47.82857" lon="-3.79841">
        <ele>41.8</ele>
        <time>2023-07-03T12:34:20Z</time>
      </trkpt>
      <trkpt lat="47.82838" lon="-3.79819">
        <ele>42.8</ele>
        <time>2023-07-03T12:34:24Z</time>
      </trkpt>
      <trkpt lat="47.82817" lon="-3.79796">
        <ele>42.2</ele>
        <time>2023-07-03T12:34:28Z</time>
      </trkpt>
      <trkpt lat="47.82795" lon="-3.79774">
        <ele>44.6</ele>
        <time>2023-07-03T12:34:32Z</time>
      </trkpt>
      <trkpt lat="47.82777" lon="-3.79754">
        <ele>44.8</ele>
        <time>2023-07-03T12:34:36Z</time>
      </trkpt>
      <trkpt lat="47.82756" lon="-3.79733">
        <ele>44.2</ele>
        <time>2023-07-03T12:34:40Z</time>
      </trkpt>
      <trkpt lat="47.82737" lon="-3.79712">
        <ele>45.8</ele>
        <time>2023-07-03T12:34:44Z</time>
      </trkpt>
      <trkpt lat="47.82718" lon="-3.79692">
        <ele>46.6</ele>
        <time>2023-07-03T12:34:48Z</time>
      </trkpt>
      <trkpt lat="47.82698" lon="-3.79671">
        <ele>45.8</ele>
        <time>2023-07-03T12:34:52Z</time>
      </trkpt>
      <trkpt lat="47.82679" lon="-3.79654">
        <ele>45.8</ele>
        <time>2023-07-03T12:34:56Z</time>
      </trkpt>
      <trkpt lat="47.82659" lon="-3.79638">
        <ele>46.2</ele>
        <time>2023-07-03T12:35:00Z</time>
      </trkpt>
      <trkpt lat="47.82639" lon="-3.79624">
        <ele>44.8</ele>
        <time>2023-07-03T12:35:04Z</time>
      </trkpt>
      <trkpt lat="47.82639" lon="-3.79624">
        <ele>46.4</ele>
        <time>2023-07-03T12:35:08Z</time>
      </trkpt>
      <trkpt lat="47.82634" lon="-3.79621">
        <ele>46</ele>
        <time>2023-07-03T12:35:12Z</time>
      </trkpt>
      <trkpt lat="47.82624" lon="-3.79615">
        <ele>45.6</ele>
        <time>2023-07-03T12:35:16Z</time>
      </trkpt>
      <trkpt lat="47.82606" lon="-3.7961">
        <ele>45</ele>
        <time>2023-07-03T12:35:20Z</time>
      </trkpt>
      <trkpt lat="47.82605" lon="-3.7958">
        <ele>43.8</ele>
        <time>2023-07-03T12:35:24Z</time>
      </trkpt>
      <trkpt lat="47.82603" lon="-3.79547">
        <ele>44.8</ele>
        <time>2023-07-03T12:35:28Z</time>
      </trkpt>
      <trkpt lat="47.82603" lon="-3.79513">
        <ele>45</ele>
        <time>2023-07-03T12:35:32Z</time>
      </trkpt>
      <trkpt lat="47.82607" lon="-3.79478">
        <ele>45</ele>
        <time>2023-07-03T12:35:36Z</time>
      </trkpt>
      <trkpt lat="47.8261" lon="-3.79443">
        <ele>44</ele>
        <time>2023-07-03T12:35:40Z</time>
      </trkpt>
      <trkpt lat="47.82616" lon="-3.79408">
        <ele>44.4</ele>
        <time>2023-07-03T12:35:44Z</time>
      </trkpt>
      <trkpt lat="47.82625" lon="-3.79373">
        <ele>45</ele>
        <time>2023-07-03T12:35:48Z</time>
      </trkpt>
      <trkpt lat="47.82635" lon="-3.79341">
        <ele>43.6</ele>
        <time>2023-07-03T12:35:52Z</time>
      </trkpt>
      <trkpt lat="47.82646" lon="-3.79311">
        <ele>42.4</ele>
        <time>2023-07-03T12:35:56Z</time>
      </trkpt>
      <trkpt lat="47.82656" lon="-3.79288">
        <ele>42.4</ele>
        <time>2023-07-03T12:36:00Z</time>
      </trkpt>
      <trkpt lat="47.82666" lon="-3.79265">
        <ele>42.8</ele>
        <time>2023-07-03T12:36:04Z</time>
      </trkpt>
      <trkpt lat="47.82678" lon="-3.79243">
        <ele>42.8</ele>
        <time>2023-07-03T12:36:08Z</time>
      </trkpt>
      <trkpt lat="47.82692" lon="-3.79223">
        <ele>42.2</ele>
        <time>2023-07-03T12:36:12Z</time>
      </trkpt>
      <trkpt lat="47.82708" lon="-3.79208">
        <ele>42.4</ele>
        <time>2023-07-03T12:36:16Z</time>
      </trkpt>
      <trkpt lat="47.82719" lon="-3.79198">
        <ele>42.8</ele>
        <time>2023-07-03T12:36:20Z</time>
      </trkpt>
      <trkpt lat="47.82733" lon="-3.79183">
        <ele>42.8</ele>
        <time>2023-07-03T12:36:24Z</time>
      </trkpt>
      <trkpt lat="47.82751" lon="-3.79167">
        <ele>41.2</ele>
        <time>2023-07-03T12:36:28Z</time>
      </trkpt>
      <trkpt lat="47.82774" lon="-3.79141">
        <ele>41.6</ele>
        <time>2023-07-03T12:36:32Z</time>
      </trkpt>
      <trkpt lat="47.82796" lon="-3.79117">
        <ele>42</ele>
        <time>2023-07-03T12:36:36Z</time>
      </trkpt>
      <trkpt lat="47.82818" lon="-3.79096">
        <ele>41.2</ele>
        <time>2023-07-03T12:36:40Z</time>
      </trkpt>
      <trkpt lat="47.82838" lon="-3.79078">
        <ele>40.8</ele>
        <time>2023-07-03T12:36:44Z</time>
      </trkpt>
      <trkpt lat="47.82858" lon="-3.7906">
        <ele>39.4</ele>
        <time>2023-07-03T12:36:48Z</time>
      </trkpt>
      <trkpt lat="47.82878" lon="-3.7904">
        <ele>38.8</ele>
        <time>2023-07-03T12:36:52Z</time>
      </trkpt>
      <trkpt lat="47.82895" lon="-3.79021">
        <ele>39.8</ele>
        <time>2023-07-03T12:36:56Z</time>
      </trkpt>
      <trkpt lat="47.8291" lon="-3.79006">
        <ele>39.6</ele>
        <time>2023-07-03T12:37:00Z</time>
      </trkpt>
      <trkpt lat="47.82918" lon="-3.78977">
        <ele>38</ele>
        <time>2023-07-03T12:37:04Z</time>
      </trkpt>
      <trkpt lat="47.82918" lon="-3.78945">
        <ele>37.2</ele>
        <time>2023-07-03T12:37:08Z</time>
      </trkpt>
      <trkpt lat="47.82912" lon="-3.78923">
        <ele>36.6</ele>
        <time>2023-07-03T12:37:12Z</time>
      </trkpt>
      <trkpt lat="47.82899" lon="-3.78905">
        <ele>36.8</ele>
        <time>2023-07-03T12:37:16Z</time>
      </trkpt>
      <trkpt lat="47.82887" lon="-3.78884">
        <ele>37</ele>
        <time>2023-07-03T12:37:20Z</time>
      </trkpt>
      <trkpt lat="47.82874" lon="-3.78861">
        <ele>36.6</ele>
        <time>2023-07-03T12:37:24Z</time>
      </trkpt>
      <trkpt lat="47.82865" lon="-3.78835">
        <ele>36.2</ele>
        <time>2023-07-03T12:37:28Z</time>
      </trkpt>
      <trkpt lat="47.82856" lon="-3.78808">
        <ele>37.8</ele>
        <time>2023-07-03T12:37:32Z</time>
      </trkpt>
      <trkpt lat="47.8285" lon="-3.78778">
        <ele>38.2</ele>
        <time>2023-07-03T12:37:36Z</time>
      </trkpt>
      <trkpt lat="47.8284" lon="-3.78747">
        <ele>36.4</ele>
        <time>2023-07-03T12:37:40Z</time>
      </trkpt>
      <trkpt lat="47.82828" lon="-3.78718">
        <ele>37.2</ele>
        <time>2023-07-03T12:37:44Z</time>
      </trkpt>
      <trkpt lat="47.82805" lon="-3.78692">
        <ele>39.2</ele>
        <time>2023-07-03T12:37:48Z</time>
      </trkpt>
      <trkpt lat="47.82784" lon="-3.78672">
        <ele>39.8</ele>
        <time>2023-07-03T12:37:52Z</time>
      </trkpt>
      <trkpt lat="47.8276" lon="-3.78664">
        <ele>40</ele>
        <time>2023-07-03T12:37:56Z</time>
      </trkpt>
      <trkpt lat="47.82739" lon="-3.78668">
        <ele>39.2</ele>
        <time>2023-07-03T12:38:00Z</time>
      </trkpt>
      <trkpt lat="47.8272" lon="-3.78668">
        <ele>41</ele>
        <time>2023-07-03T12:38:04Z</time>
      </trkpt>
      <trkpt lat="47.827" lon="-3.7866">
        <ele>41.6</ele>
        <time>2023-07-03T12:38:08Z</time>
      </trkpt>
      <trkpt lat="47.82682" lon="-3.78652">
        <ele>41</ele>
        <time>2023-07-03T12:38:12Z</time>
      </trkpt>
      <trkpt lat="47.82665" lon="-3.78644">
        <ele>41.6</ele>
        <time>2023-07-03T12:38:16Z</time>
      </trkpt>
      <trkpt lat="47.8265" lon="-3.7863">
        <ele>41</ele>
        <time>2023-07-03T12:38:20Z</time>
      </trkpt>
      <trkpt lat="47.82636" lon="-3.78611">
        <ele>42</ele>
        <time>2023-07-03T12:38:24Z</time>
      </trkpt>
      <trkpt lat="47.8262" lon="-3.78595">
        <ele>43.8</ele>
        <time>2023-07-03T12:38:28Z</time>
      </trkpt>
      <trkpt lat="47.82617" lon="-3.78573">
        <ele>43.2</ele>
        <time>2023-07-03T12:38:32Z</time>
      </trkpt>
      <trkpt lat="47.82622" lon="-3.78542">
        <ele>43.8</ele>
        <time>2023-07-03T12:38:36Z</time>
      </trkpt>
      <trkpt lat="47.8263" lon="-3.78512">
        <ele>43.2</ele>
        <time>2023-07-03T12:38:40Z</time>
      </trkpt>
      <trkpt lat="47.82642" lon="-3.78487">
        <ele>43.2</ele>
        <time>2023-07-03T12:38:44Z</time>
      </trkpt>
      <trkpt lat="47.82657" lon="-3.78465">
        <ele>43.2</ele>
        <time>2023-07-03T12:38:48Z</time>
      </trkpt>
      <trkpt lat="47.82672" lon="-3.78433">
        <ele>38.4</ele>
        <time>2023-07-03T12:38:52Z</time>
      </trkpt>
      <trkpt lat="47.82684" lon="-3.78393">
        <ele>36.8</ele>
        <time>2023-07-03T12:38:56Z</time>
      </trkpt>
      <trkpt lat="47.82703" lon="-3.78347">
        <ele>32.8</ele>
        <time>2023-07-03T12:39:00Z</time>
      </trkpt>
      <trkpt lat="47.82728" lon="-3.78301">
        <ele>28.2</ele>
        <time>2023-07-03T12:39:04Z</time>
      </trkpt>
      <trkpt lat="47.82752" lon="-3.78243">
        <ele>22.8</ele>
        <time>2023-07-03T12:39:08Z</time>
      </trkpt>
      <trkpt lat="47.82773" lon="-3.7821">
        <ele>31.8</ele>
        <time>2023-07-03T12:39:12Z</time>
      </trkpt>
      <trkpt lat="47.82773" lon="-3.782">
        <ele>31.8</ele>
        <time>2023-07-03T12:39:16Z</time>
      </trkpt>
      <trkpt lat="47.82771" lon="-3.7819">
        <ele>30.2</ele>
        <time>2023-07-03T12:39:20Z</time>
      </trkpt>
      <trkpt lat="47.82774" lon="-3.78176">
        <ele>31.2</ele>
        <time>2023-07-03T12:39:24Z</time>
      </trkpt>
      <trkpt lat="47.82775" lon="-3.78165">
        <ele>31.6</ele>
        <time>2023-07-03T12:39:28Z</time>
      </trkpt>
      <trkpt lat="47.82776" lon="-3.78153">
        <ele>32.6</ele>
        <time>2023-07-03T12:39:32Z</time>
      </trkpt>
      <trkpt lat="47.8278" lon="-3.78144">
        <ele>33</ele>
        <time>2023-07-03T12:39:36Z</time>
      </trkpt>
      <trkpt lat="47.82783" lon="-3.78132">
        <ele>33.6</ele>
        <time>2023-07-03T12:39:40Z</time>
      </trkpt>
      <trkpt lat="47.82783" lon="-3.7812">
        <ele>34</ele>
        <time>2023-07-03T12:39:44Z</time>
      </trkpt>
      <trkpt lat="47.82785" lon="-3.78107">
        <ele>35.4</ele>
        <time>2023-07-03T12:39:48Z</time>
      </trkpt>
      <trkpt lat="47.82788" lon="-3.78096">
        <ele>36.4</ele>
        <time>2023-07-03T12:39:52Z</time>
      </trkpt>
      <trkpt lat="47.82788" lon="-3.78081">
        <ele>37.2</ele>
        <time>2023-07-03T12:39:56Z</time>
      </trkpt>
      <trkpt lat="47.82789" lon="-3.7807">
        <ele>38.2</ele>
        <time>2023-07-03T12:40:00Z</time>
      </trkpt>
      <trkpt lat="47.82789" lon="-3.78056">
        <ele>38.2</ele>
        <time>2023-07-03T12:40:04Z</time>
      </trkpt>
      <trkpt lat="47.82788" lon="-3.78046">
        <ele>39.4</ele>
        <time>2023-07-03T12:40:08Z</time>
      </trkpt>
      <trkpt lat="47.8279" lon="-3.78032">
        <ele>40.2</ele>
        <time>2023-07-03T12:40:12Z</time>
      </trkpt>
      <trkpt lat="47.82791" lon="-3.78018">
        <ele>40.2</ele>
        <time>2023-07-03T12:40:16Z</time>
      </trkpt>
      <trkpt lat="47.82793" lon="-3.78002">
        <ele>40.2</ele>
        <time>2023-07-03T12:40:20Z</time>
      </trkpt>
      <trkpt lat="47.82794" lon="-3.77988">
        <ele>40.8</ele>
        <time>2023-07-03T12:40:24Z</time>
      </trkpt>
      <trkpt lat="47.82796" lon="-3.77973">
        <ele>41.2</ele>
        <time>2023-07-03T12:40:28Z</time>
      </trkpt>
      <trkpt lat="47.82795" lon="-3.77956">
        <ele>41</ele>
        <time>2023-07-03T12:40:32Z</time>
      </trkpt>
      <trkpt lat="47.82785" lon="-3.77946">
        <ele>40.6</ele>
        <time>2023-07-03T12:40:36Z</time>
      </trkpt>
      <trkpt lat="47.82776" lon="-3.77933">
        <ele>39.8</ele>
        <time>2023-07-03T12:40:40Z</time>
      </trkpt>
      <trkpt lat="47.82761" lon="-3.77922">
        <ele>40.8</ele>
        <time>2023-07-03T12:40:44Z</time>
      </trkpt>
      <trkpt lat="47.82754" lon="-3.77912">
        <ele>40.6</ele>
        <time>2023-07-03T12:40:48Z</time>
      </trkpt>
      <trkpt lat="47.82755" lon="-3.77893">
        <ele>39.8</ele>
        <time>2023-07-03T12:40:52Z</time>
      </trkpt>
      <trkpt lat="47.82757" lon="-3.77871">
        <ele>39</ele>
        <time>2023-07-03T12:40:56Z</time>
      </trkpt>
      <trkpt lat="47.82759" lon="-3.77848">
        <ele>40.4</ele>
        <time>2023-07-03T12:41:00Z</time>
      </trkpt>
      <trkpt lat="47.82761" lon="-3.77836">
        <ele>40.2</ele>
        <time>2023-07-03T12:41:04Z</time>
      </trkpt>
      <trkpt lat="47.82764" lon="-3.77822">
        <ele>40.6</ele>
        <time>2023-07-03T12:41:08Z</time>
      </trkpt>
      <trkpt lat="47.82769" lon="-3.77801">
        <ele>41.2</ele>
        <time>2023-07-03T12:41:12Z</time>
      </trkpt>
      <trkpt lat="47.82777" lon="-3.77767">
        <ele>39.8</ele>
        <time>2023-07-03T12:41:16Z</time>
      </trkpt>
      <trkpt lat="47.82766" lon="-3.77741">
        <ele>38.4</ele>
        <time>2023-07-03T12:41:20Z</time>
      </trkpt>
      <trkpt lat="47.82751" lon="-3.77705">
        <ele>38.4</ele>
        <time>2023-07-03T12:41:24Z</time>
      </trkpt>
      <trkpt lat="47.82736" lon="-3.77673">
        <ele>38.4</ele>
        <time>2023-07-03T12:41:28Z</time>
      </trkpt>
      <trkpt lat="47.8272" lon="-3.77643">
        <ele>39.4</ele>
        <time>2023-07-03T12:41:32Z</time>
      </trkpt>
      <trkpt lat="47.82708" lon="-3.77616">
        <ele>41.2</ele>
        <time>2023-07-03T12:41:36Z</time>
      </trkpt>
      <trkpt lat="47.82697" lon="-3.77586">
        <ele>42.2</ele>
        <time>2023-07-03T12:41:40Z</time>
      </trkpt>
      <trkpt lat="47.82682" lon="-3.77559">
        <ele>40.6</ele>
        <time>2023-07-03T12:41:44Z</time>
      </trkpt>
      <trkpt lat="47.82662" lon="-3.77546">
        <ele>39.6</ele>
        <time>2023-07-03T12:41:48Z</time>
      </trkpt>
      <trkpt lat="47.82647" lon="-3.77564">
        <ele>39.6</ele>
        <time>2023-07-03T12:41:52Z</time>
      </trkpt>
      <trkpt lat="47.82636" lon="-3.77587">
        <ele>39.4</ele>
        <time>2023-07-03T12:41:56Z</time>
      </trkpt>
      <trkpt lat="47.8263" lon="-3.77611">
        <ele>40</ele>
        <time>2023-07-03T12:42:00Z</time>
      </trkpt>
      <trkpt lat="47.82621" lon="-3.77623">
        <ele>42</ele>
        <time>2023-07-03T12:42:04Z</time>
      </trkpt>
      <trkpt lat="47.82609" lon="-3.77626">
        <ele>40.8</ele>
        <time>2023-07-03T12:42:08Z</time>
      </trkpt>
      <trkpt lat="47.82595" lon="-3.77633">
        <ele>40.8</ele>
        <time>2023-07-03T12:42:12Z</time>
      </trkpt>
      <trkpt lat="47.82582" lon="-3.77637">
        <ele>41</ele>
        <time>2023-07-03T12:42:16Z</time>
      </trkpt>
      <trkpt lat="47.82567" lon="-3.77641">
        <ele>40.8</ele>
        <time>2023-07-03T12:42:20Z</time>
      </trkpt>
      <trkpt lat="47.82564" lon="-3.77655">
        <ele>40.8</ele>
        <time>2023-07-03T12:42:24Z</time>
      </trkpt>
      <trkpt lat="47.82555" lon="-3.77672">
        <ele>41.6</ele>
        <time>2023-07-03T12:42:28Z</time>
      </trkpt>
      <trkpt lat="47.82542" lon="-3.77683">
        <ele>40.8</ele>
        <time>2023-07-03T12:42:32Z</time>
      </trkpt>
      <trkpt lat="47.8253" lon="-3.777">
        <ele>40.8</ele>
        <time>2023-07-03T12:42:36Z</time>
      </trkpt>
      <trkpt lat="47.82518" lon="-3.77718">
        <ele>41</ele>
        <time>2023-07-03T12:42:40Z</time>
      </trkpt>
      <trkpt lat="47.82502" lon="-3.77737">
        <ele>39.8</ele>
        <time>2023-07-03T12:42:44Z</time>
      </trkpt>
      <trkpt lat="47.82489" lon="-3.77762">
        <ele>38.2</ele>
        <time>2023-07-03T12:42:48Z</time>
      </trkpt>
      <trkpt lat="47.82473" lon="-3.77782">
        <ele>37.6</ele>
        <time>2023-07-03T12:42:52Z</time>
      </trkpt>
      <trkpt lat="47.82464" lon="-3.77794">
        <ele>37</ele>
        <time>2023-07-03T12:42:56Z</time>
      </trkpt>
      <trkpt lat="47.82463" lon="-3.77817">
        <ele>34.4</ele>
        <time>2023-07-03T12:43:00Z</time>
      </trkpt>
      <trkpt lat="47.82457" lon="-3.77836">
        <ele>32.2</ele>
        <time>2023-07-03T12:43:04Z</time>
      </trkpt>
      <trkpt lat="47.82455" lon="-3.77852">
        <ele>30.6</ele>
        <time>2023-07-03T12:43:08Z</time>
      </trkpt>
      <trkpt lat="47.82456" lon="-3.77865">
        <ele>29.4</ele>
        <time>2023-07-03T12:43:12Z</time>
      </trkpt>
      <trkpt lat="47.82446" lon="-3.77874">
        <ele>28</ele>
        <time>2023-07-03T12:43:16Z</time>
      </trkpt>
      <trkpt lat="47.82437" lon="-3.77879">
        <ele>27</ele>
        <time>2023-07-03T12:43:20Z</time>
      </trkpt>
      <trkpt lat="47.82428" lon="-3.7789">
        <ele>26.8</ele>
        <time>2023-07-03T12:43:24Z</time>
      </trkpt>
      <trkpt lat="47.82419" lon="-3.77904">
        <ele>27.2</ele>
        <time>2023-07-03T12:43:28Z</time>
      </trkpt>
      <trkpt lat="47.82409" lon="-3.77913">
        <ele>26.8</ele>
        <time>2023-07-03T12:43:32Z</time>
      </trkpt>
      <trkpt lat="47.82397" lon="-3.77922">
        <ele>27.6</ele>
        <time>2023-07-03T12:43:36Z</time>
      </trkpt>
      <trkpt lat="47.82389" lon="-3.77932">
        <ele>28.4</ele>
        <time>2023-07-03T12:43:40Z</time>
      </trkpt>
      <trkpt lat="47.82384" lon="-3.77943">
        <ele>29.6</ele>
        <time>2023-07-03T12:43:44Z</time>
      </trkpt>
      <trkpt lat="47.82377" lon="-3.77959">
        <ele>28.6</ele>
        <time>2023-07-03T12:43:48Z</time>
      </trkpt>
      <trkpt lat="47.82368" lon="-3.77981">
        <ele>28.6</ele>
        <time>2023-07-03T12:43:52Z</time>
      </trkpt>
      <trkpt lat="47.82359" lon="-3.77998">
        <ele>29.2</ele>
        <time>2023-07-03T12:43:56Z</time>
      </trkpt>
      <trkpt lat="47.82342" lon="-3.78029">
        <ele>29</ele>
        <time>2023-07-03T12:44:00Z</time>
      </trkpt>
      <trkpt lat="47.82339" lon="-3.7806">
        <ele>28.6</ele>
        <time>2023-07-03T12:44:04Z</time>
      </trkpt>
      <trkpt lat="47.82337" lon="-3.78084">
        <ele>28.6</ele>
        <time>2023-07-03T12:44:08Z</time>
      </trkpt>
      <trkpt lat="47.82331" lon="-3.78118">
        <ele>29.6</ele>
        <time>2023-07-03T12:44:12Z</time>
      </trkpt>
      <trkpt lat="47.82326" lon="-3.78148">
        <ele>29.2</ele>
        <time>2023-07-03T12:44:16Z</time>
      </trkpt>
      <trkpt lat="47.82323" lon="-3.78173">
        <ele>30.2</ele>
        <time>2023-07-03T12:44:20Z</time>
      </trkpt>
      <trkpt lat="47.82319" lon="-3.78192">
        <ele>30.4</ele>
        <time>2023-07-03T12:44:24Z</time>
      </trkpt>
      <trkpt lat="47.82309" lon="-3.78211">
        <ele>31</ele>
        <time>2023-07-03T12:44:28Z</time>
      </trkpt>
      <trkpt lat="47.82303" lon="-3.7823">
        <ele>32.8</ele>
        <time>2023-07-03T12:44:32Z</time>
      </trkpt>
      <trkpt lat="47.82293" lon="-3.78257">
        <ele>33.6</ele>
        <time>2023-07-03T12:44:36Z</time>
      </trkpt>
      <trkpt lat="47.82288" lon="-3.78275">
        <ele>35.8</ele>
        <time>2023-07-03T12:44:40Z</time>
      </trkpt>
      <trkpt lat="47.82282" lon="-3.78297">
        <ele>36.4</ele>
        <time>2023-07-03T12:44:44Z</time>
      </trkpt>
      <trkpt lat="47.82274" lon="-3.78315">
        <ele>37.6</ele>
        <time>2023-07-03T12:44:48Z</time>
      </trkpt>
      <trkpt lat="47.82271" lon="-3.7833">
        <ele>37</ele>
        <time>2023-07-03T12:44:52Z</time>
      </trkpt>
      <trkpt lat="47.8226" lon="-3.78352">
        <ele>35.4</ele>
        <time>2023-07-03T12:44:56Z</time>
      </trkpt>
      <trkpt lat="47.82241" lon="-3.78375">
        <ele>33</ele>
        <time>2023-07-03T12:45:00Z</time>
      </trkpt>
      <trkpt lat="47.82229" lon="-3.784">
        <ele>34</ele>
        <time>2023-07-03T12:45:04Z</time>
      </trkpt>
      <trkpt lat="47.8222" lon="-3.78425">
        <ele>34.8</ele>
        <time>2023-07-03T12:45:08Z</time>
      </trkpt>
      <trkpt lat="47.8221" lon="-3.78451">
        <ele>35.2</ele>
        <time>2023-07-03T12:45:12Z</time>
      </trkpt>
      <trkpt lat="47.82201" lon="-3.78472">
        <ele>35</ele>
        <time>2023-07-03T12:45:16Z</time>
      </trkpt>
      <trkpt lat="47.82192" lon="-3.78493">
        <ele>36</ele>
        <time>2023-07-03T12:45:20Z</time>
      </trkpt>
      <trkpt lat="47.82183" lon="-3.78514">
        <ele>36.4</ele>
        <time>2023-07-03T12:45:24Z</time>
      </trkpt>
      <trkpt lat="47.82176" lon="-3.78537">
        <ele>37.4</ele>
        <time>2023-07-03T12:45:28Z</time>
      </trkpt>
      <trkpt lat="47.8217" lon="-3.78561">
        <ele>38.4</ele>
        <time>2023-07-03T12:45:32Z</time>
      </trkpt>
      <trkpt lat="47.82163" lon="-3.78584">
        <ele>39.4</ele>
        <time>2023-07-03T12:45:36Z</time>
      </trkpt>
      <trkpt lat="47.82156" lon="-3.78607">
        <ele>38.4</ele>
        <time>2023-07-03T12:45:40Z</time>
      </trkpt>
      <trkpt lat="47.82147" lon="-3.78632">
        <ele>38.4</ele>
        <time>2023-07-03T12:45:44Z</time>
      </trkpt>
      <trkpt lat="47.82139" lon="-3.78658">
        <ele>38.4</ele>
        <time>2023-07-03T12:45:48Z</time>
      </trkpt>
      <trkpt lat="47.82131" lon="-3.78684">
        <ele>37.8</ele>
        <time>2023-07-03T12:45:52Z</time>
      </trkpt>
      <trkpt lat="47.82122" lon="-3.7871">
        <ele>38.4</ele>
        <time>2023-07-03T12:45:56Z</time>
      </trkpt>
      <trkpt lat="47.82114" lon="-3.78734">
        <ele>39.8</ele>
        <time>2023-07-03T12:46:00Z</time>
      </trkpt>
      <trkpt lat="47.82106" lon="-3.78758">
        <ele>39.8</ele>
        <time>2023-07-03T12:46:04Z</time>
      </trkpt>
      <trkpt lat="47.82096" lon="-3.78779">
        <ele>41.6</ele>
        <time>2023-07-03T12:46:08Z</time>
      </trkpt>
      <trkpt lat="47.82084" lon="-3.78799">
        <ele>41</ele>
        <time>2023-07-03T12:46:12Z</time>
      </trkpt>
      <trkpt lat="47.8207" lon="-3.78819">
        <ele>41.2</ele>
        <time>2023-07-03T12:46:16Z</time>
      </trkpt>
      <trkpt lat="47.82053" lon="-3.78838">
        <ele>37.6</ele>
        <time>2023-07-03T12:46:20Z</time>
      </trkpt>
      <trkpt lat="47.82037" lon="-3.7886">
        <ele>40.6</ele>
        <time>2023-07-03T12:46:24Z</time>
      </trkpt>
      <trkpt lat="47.82023" lon="-3.78885">
        <ele>39.6</ele>
        <time>2023-07-03T12:46:28Z</time>
      </trkpt>
      <trkpt lat="47.82014" lon="-3.78917">
        <ele>38.4</ele>
        <time>2023-07-03T12:46:32Z</time>
      </trkpt>
      <trkpt lat="47.82006" lon="-3.78949">
        <ele>37.4</ele>
        <time>2023-07-03T12:46:36Z</time>
      </trkpt>
      <trkpt lat="47.81996" lon="-3.78977">
        <ele>37.8</ele>
        <time>2023-07-03T12:46:40Z</time>
      </trkpt>
      <trkpt lat="47.81989" lon="-3.79004">
        <ele>38.4</ele>
        <time>2023-07-03T12:46:44Z</time>
      </trkpt>
      <trkpt lat="47.81982" lon="-3.79033">
        <ele>39.2</ele>
        <time>2023-07-03T12:46:48Z</time>
      </trkpt>
      <trkpt lat="47.81977" lon="-3.79066">
        <ele>39.8</ele>
        <time>2023-07-03T12:46:52Z</time>
      </trkpt>
      <trkpt lat="47.81974" lon="-3.79098">
        <ele>39.8</ele>
        <time>2023-07-03T12:46:56Z</time>
      </trkpt>
      <trkpt lat="47.8197" lon="-3.79129">
        <ele>40.8</ele>
        <time>2023-07-03T12:47:00Z</time>
      </trkpt>
      <trkpt lat="47.81961" lon="-3.79154">
        <ele>43.2</ele>
        <time>2023-07-03T12:47:04Z</time>
      </trkpt>
      <trkpt lat="47.81956" lon="-3.79183">
        <ele>43.4</ele>
        <time>2023-07-03T12:47:08Z</time>
      </trkpt>
      <trkpt lat="47.81968" lon="-3.79208">
        <ele>42.4</ele>
        <time>2023-07-03T12:47:12Z</time>
      </trkpt>
      <trkpt lat="47.81987" lon="-3.7922">
        <ele>43.6</ele>
        <time>2023-07-03T12:47:16Z</time>
      </trkpt>
      <trkpt lat="47.82006" lon="-3.79241">
        <ele>41.4</ele>
        <time>2023-07-03T12:47:20Z</time>
      </trkpt>
      <trkpt lat="47.82025" lon="-3.79266">
        <ele>41</ele>
        <time>2023-07-03T12:47:24Z</time>
      </trkpt>
      <trkpt lat="47.82045" lon="-3.79287">
        <ele>43.8</ele>
        <time>2023-07-03T12:47:28Z</time>
      </trkpt>
      <trkpt lat="47.82068" lon="-3.79299">
        <ele>43.6</ele>
        <time>2023-07-03T12:47:32Z</time>
      </trkpt>
      <trkpt lat="47.82092" lon="-3.79313">
        <ele>40.4</ele>
        <time>2023-07-03T12:47:36Z</time>
      </trkpt>
      <trkpt lat="47.82115" lon="-3.79331">
        <ele>41.4</ele>
        <time>2023-07-03T12:47:40Z</time>
      </trkpt>
      <trkpt lat="47.82139" lon="-3.79347">
        <ele>39.8</ele>
        <time>2023-07-03T12:47:44Z</time>
      </trkpt>
      <trkpt lat="47.82164" lon="-3.79367">
        <ele>42</ele>
        <time>2023-07-03T12:47:48Z</time>
      </trkpt>
      <trkpt lat="47.82189" lon="-3.79384">
        <ele>40.4</ele>
        <time>2023-07-03T12:47:52Z</time>
      </trkpt>
      <trkpt lat="47.82212" lon="-3.79398">
        <ele>39.8</ele>
        <time>2023-07-03T12:47:56Z</time>
      </trkpt>
      <trkpt lat="47.82224" lon="-3.79416">
        <ele>39.8</ele>
        <time>2023-07-03T12:48:00Z</time>
      </trkpt>
      <trkpt lat="47.82219" lon="-3.79449">
        <ele>37</ele>
        <time>2023-07-03T12:48:04Z</time>
      </trkpt>
      <trkpt lat="47.82216" lon="-3.79485">
        <ele>37.8</ele>
        <time>2023-07-03T12:48:08Z</time>
      </trkpt>
      <trkpt lat="47.82214" lon="-3.79522">
        <ele>38.8</ele>
        <time>2023-07-03T12:48:12Z</time>
      </trkpt>
      <trkpt lat="47.82211" lon="-3.79561">
        <ele>35.2</ele>
        <time>2023-07-03T12:48:16Z</time>
      </trkpt>
      <trkpt lat="47.82209" lon="-3.79597">
        <ele>37.4</ele>
        <time>2023-07-03T12:48:20Z</time>
      </trkpt>
      <trkpt lat="47.82205" lon="-3.79633">
        <ele>37</ele>
        <time>2023-07-03T12:48:24Z</time>
      </trkpt>
      <trkpt lat="47.82209" lon="-3.79667">
        <ele>39.8</ele>
        <time>2023-07-03T12:48:28Z</time>
      </trkpt>
      <trkpt lat="47.82231" lon="-3.79689">
        <ele>37.4</ele>
        <time>2023-07-03T12:48:32Z</time>
      </trkpt>
      <trkpt lat="47.82249" lon="-3.79709">
        <ele>41.6</ele>
        <time>2023-07-03T12:48:36Z</time>
      </trkpt>
      <trkpt lat="47.82264" lon="-3.79726">
        <ele>42.2</ele>
        <time>2023-07-03T12:48:40Z</time>
      </trkpt>
      <trkpt lat="47.82281" lon="-3.79745">
        <ele>41.2</ele>
        <time>2023-07-03T12:48:44Z</time>
      </trkpt>
      <trkpt lat="47.82298" lon="-3.79765">
        <ele>41</ele>
        <time>2023-07-03T12:48:48Z</time>
      </trkpt>
      <trkpt lat="47.82315" lon="-3.79785">
        <ele>40.2</ele>
        <time>2023-07-03T12:48:52Z</time>
      </trkpt>
      <trkpt lat="47.82331" lon="-3.79801">
        <ele>39.4</ele>
        <time>2023-07-03T12:48:56Z</time>
      </trkpt>
      <trkpt lat="47.82346" lon="-3.79818">
        <ele>39.8</ele>
        <time>2023-07-03T12:49:00Z</time>
      </trkpt>
      <trkpt lat="47.8236" lon="-3.7983">
        <ele>40.2</ele>
        <time>2023-07-03T12:49:04Z</time>
      </trkpt>
      <trkpt lat="47.82368" lon="-3.79849">
        <ele>38.8</ele>
        <time>2023-07-03T12:49:08Z</time>
      </trkpt>
      <trkpt lat="47.82367" lon="-3.79871">
        <ele>38</ele>
        <time>2023-07-03T12:49:12Z</time>
      </trkpt>
      <trkpt lat="47.82369" lon="-3.79897">
        <ele>37.2</ele>
        <time>2023-07-03T12:49:16Z</time>
      </trkpt>
      <trkpt lat="47.82375" lon="-3.79921">
        <ele>39</ele>
        <time>2023-07-03T12:49:20Z</time>
      </trkpt>
      <trkpt lat="47.82378" lon="-3.79942">
        <ele>39</ele>
        <time>2023-07-03T12:49:24Z</time>
      </trkpt>
      <trkpt lat="47.82376" lon="-3.79966">
        <ele>39.4</ele>
        <time>2023-07-03T12:49:28Z</time>
      </trkpt>
      <trkpt lat="47.82375" lon="-3.79988">
        <ele>39.6</ele>
        <time>2023-07-03T12:49:32Z</time>
      </trkpt>
      <trkpt lat="47.82374" lon="-3.80012">
        <ele>37.8</ele>
        <time>2023-07-03T12:49:36Z</time>
      </trkpt>
      <trkpt lat="47.82369" lon="-3.80035">
        <ele>38.4</ele>
        <time>2023-07-03T12:49:40Z</time>
      </trkpt>
      <trkpt lat="47.82365" lon="-3.80059">
        <ele>38.4</ele>
        <time>2023-07-03T12:49:44Z</time>
      </trkpt>
      <trkpt lat="47.82364" lon="-3.8009">
        <ele>39.8</ele>
        <time>2023-07-03T12:49:48Z</time>
      </trkpt>
      <trkpt lat="47.82367" lon="-3.8011">
        <ele>39.8</ele>
        <time>2023-07-03T12:49:52Z</time>
      </trkpt>
      <trkpt lat="47.8237" lon="-3.80136">
        <ele>40.8</ele>
        <time>2023-07-03T12:49:56Z</time>
      </trkpt>
      <trkpt lat="47.82373" lon="-3.80155">
        <ele>40.2</ele>
        <time>2023-07-03T12:50:00Z</time>
      </trkpt>
      <trkpt lat="47.82372" lon="-3.80181">
        <ele>40.2</ele>
        <time>2023-07-03T12:50:04Z</time>
      </trkpt>
      <trkpt lat="47.82372" lon="-3.80203">
        <ele>41</ele>
        <time>2023-07-03T12:50:08Z</time>
      </trkpt>
      <trkpt lat="47.8237" lon="-3.80215">
        <ele>40.8</ele>
        <time>2023-07-03T12:50:12Z</time>
      </trkpt>
      <trkpt lat="47.8237" lon="-3.80215">
        <ele>40.6</ele>
        <time>2023-07-03T12:50:16Z</time>
      </trkpt>
      <trkpt lat="47.8237" lon="-3.80215">
        <ele>40.6</ele>
        <time>2023-07-03T12:50:20Z</time>
      </trkpt>
      <trkpt lat="47.8237" lon="-3.80215">
        <ele>40.6</ele>
        <time>2023-07-03T12:50:24Z</time>
      </trkpt>
      <trkpt lat="47.82369" lon="-3.80233">
        <ele>39.8</ele>
        <time>2023-07-03T12:50:28Z</time>
      </trkpt>
      <trkpt lat="47.82367" lon="-3.80247">
        <ele>39.8</ele>
        <time>2023-07-03T12:50:32Z</time>
      </trkpt>
      <trkpt lat="47.82365" lon="-3.80265">
        <ele>40.2</ele>
        <time>2023-07-03T12:50:36Z</time>
      </trkpt>
      <trkpt lat="47.82363" lon="-3.80282">
        <ele>39.4</ele>
        <time>2023-07-03T12:50:40Z</time>
      </trkpt>
      <trkpt lat="47.82361" lon="-3.80301">
        <ele>39.4</ele>
        <time>2023-07-03T12:50:44Z</time>
      </trkpt>
      <trkpt lat="47.82359" lon="-3.80324">
        <ele>38.2</ele>
        <time>2023-07-03T12:50:48Z</time>
      </trkpt>
      <trkpt lat="47.82356" lon="-3.80349">
        <ele>38.6</ele>
        <time>2023-07-03T12:50:52Z</time>
      </trkpt>
      <trkpt lat="47.82356" lon="-3.80378">
        <ele>36.8</ele>
        <time>2023-07-03T12:50:56Z</time>
      </trkpt>
      <trkpt lat="47.82359" lon="-3.80411">
        <ele>35.4</ele>
        <time>2023-07-03T12:51:00Z</time>
      </trkpt>
      <trkpt lat="47.82361" lon="-3.80452">
        <ele>35.4</ele>
        <time>2023-07-03T12:51:04Z</time>
      </trkpt>
      <trkpt lat="47.82365" lon="-3.80488">
        <ele>34</ele>
        <time>2023-07-03T12:51:08Z</time>
      </trkpt>
      <trkpt lat="47.8237" lon="-3.80518">
        <ele>34.8</ele>
        <time>2023-07-03T12:51:12Z</time>
      </trkpt>
      <trkpt lat="47.82371" lon="-3.80541">
        <ele>36</ele>
        <time>2023-07-03T12:51:16Z</time>
      </trkpt>
      <trkpt lat="47.82367" lon="-3.80557">
        <ele>37</ele>
        <time>2023-07-03T12:51:20Z</time>
      </trkpt>
      <trkpt lat="47.82365" lon="-3.80574">
        <ele>37</ele>
        <time>2023-07-03T12:51:24Z</time>
      </trkpt>
      <trkpt lat="47.8237" lon="-3.80592">
        <ele>37.4</ele>
        <time>2023-07-03T12:51:28Z</time>
      </trkpt>
      <trkpt lat="47.8237" lon="-3.80613">
        <ele>38.4</ele>
        <time>2023-07-03T12:51:32Z</time>
      </trkpt>
      <trkpt lat="47.82374" lon="-3.80631">
        <ele>38.4</ele>
        <time>2023-07-03T12:51:36Z</time>
      </trkpt>
      <trkpt lat="47.82378" lon="-3.80646">
        <ele>38</ele>
        <time>2023-07-03T12:51:40Z</time>
      </trkpt>
      <trkpt lat="47.82379" lon="-3.8066">
        <ele>38.8</ele>
        <time>2023-07-03T12:51:44Z</time>
      </trkpt>
      <trkpt lat="47.8238" lon="-3.80679">
        <ele>39.2</ele>
        <time>2023-07-03T12:51:48Z</time>
      </trkpt>
      <trkpt lat="47.82386" lon="-3.80699">
        <ele>39.4</ele>
        <time>2023-07-03T12:51:52Z</time>
      </trkpt>
      <trkpt lat="47.82389" lon="-3.80719">
        <ele>39.6</ele>
        <time>2023-07-03T12:51:56Z</time>
      </trkpt>
      <trkpt lat="47.8239" lon="-3.80738">
        <ele>39.8</ele>
        <time>2023-07-03T12:52:00Z</time>
      </trkpt>
      <trkpt lat="47.82382" lon="-3.8076">
        <ele>39.8</ele>
        <time>2023-07-03T12:52:04Z</time>
      </trkpt>
      <trkpt lat="47.82369" lon="-3.80782">
        <ele>38.6</ele>
        <time>2023-07-03T12:52:08Z</time>
      </trkpt>
      <trkpt lat="47.82355" lon="-3.80803">
        <ele>39.6</ele>
        <time>2023-07-03T12:52:12Z</time>
      </trkpt>
      <trkpt lat="47.8234" lon="-3.80824">
        <ele>37.4</ele>
        <time>2023-07-03T12:52:16Z</time>
      </trkpt>
      <trkpt lat="47.82324" lon="-3.80843">
        <ele>38</ele>
        <time>2023-07-03T12:52:20Z</time>
      </trkpt>
      <trkpt lat="47.82307" lon="-3.80852">
        <ele>38.8</ele>
        <time>2023-07-03T12:52:24Z</time>
      </trkpt>
      <trkpt lat="47.8229" lon="-3.80862">
        <ele>39</ele>
        <time>2023-07-03T12:52:28Z</time>
      </trkpt>
      <trkpt lat="47.82272" lon="-3.80873">
        <ele>39.4</ele>
        <time>2023-07-03T12:52:32Z</time>
      </trkpt>
      <trkpt lat="47.82252" lon="-3.80886">
        <ele>40.2</ele>
        <time>2023-07-03T12:52:36Z</time>
      </trkpt>
      <trkpt lat="47.8223" lon="-3.80902">
        <ele>39.6</ele>
        <time>2023-07-03T12:52:40Z</time>
      </trkpt>
      <trkpt lat="47.82207" lon="-3.80918">
        <ele>39.8</ele>
        <time>2023-07-03T12:52:44Z</time>
      </trkpt>
      <trkpt lat="47.82185" lon="-3.80931">
        <ele>38.4</ele>
        <time>2023-07-03T12:52:48Z</time>
      </trkpt>
      <trkpt lat="47.82164" lon="-3.80942">
        <ele>37.2</ele>
        <time>2023-07-03T12:52:52Z</time>
      </trkpt>
      <trkpt lat="47.82137" lon="-3.8096">
        <ele>36.8</ele>
        <time>2023-07-03T12:52:56Z</time>
      </trkpt>
      <trkpt lat="47.82112" lon="-3.80973">
        <ele>36.6</ele>
        <time>2023-07-03T12:53:00Z</time>
      </trkpt>
      <trkpt lat="47.82093" lon="-3.80987">
        <ele>37.2</ele>
        <time>2023-07-03T12:53:04Z</time>
      </trkpt>
      <trkpt lat="47.82076" lon="-3.81004">
        <ele>37.2</ele>
        <time>2023-07-03T12:53:08Z</time>
      </trkpt>
      <trkpt lat="47.8206" lon="-3.81024">
        <ele>36.8</ele>
        <time>2023-07-03T12:53:12Z</time>
      </trkpt>
      <trkpt lat="47.82044" lon="-3.81049">
        <ele>37.4</ele>
        <time>2023-07-03T12:53:16Z</time>
      </trkpt>
      <trkpt lat="47.82021" lon="-3.81077">
        <ele>35.4</ele>
        <time>2023-07-03T12:53:20Z</time>
      </trkpt>
      <trkpt lat="47.81995" lon="-3.81094">
        <ele>35.6</ele>
        <time>2023-07-03T12:53:24Z</time>
      </trkpt>
      <trkpt lat="47.81967" lon="-3.811">
        <ele>35.6</ele>
        <time>2023-07-03T12:53:28Z</time>
      </trkpt>
      <trkpt lat="47.81938" lon="-3.81099">
        <ele>35.6</ele>
        <time>2023-07-03T12:53:32Z</time>
      </trkpt>
      <trkpt lat="47.81908" lon="-3.81098">
        <ele>35.6</ele>
        <time>2023-07-03T12:53:36Z</time>
      </trkpt>
      <trkpt lat="47.81881" lon="-3.81101">
        <ele>36.2</ele>
        <time>2023-07-03T12:53:40Z</time>
      </trkpt>
      <trkpt lat="47.81855" lon="-3.81107">
        <ele>36.4</ele>
        <time>2023-07-03T12:53:44Z</time>
      </trkpt>
      <trkpt lat="47.8183" lon="-3.81117">
        <ele>37.8</ele>
        <time>2023-07-03T12:53:48Z</time>
      </trkpt>
      <trkpt lat="47.81807" lon="-3.81124">
        <ele>37.8</ele>
        <time>2023-07-03T12:53:52Z</time>
      </trkpt>
      <trkpt lat="47.81784" lon="-3.8113">
        <ele>37.8</ele>
        <time>2023-07-03T12:53:56Z</time>
      </trkpt>
      <trkpt lat="47.81764" lon="-3.81131">
        <ele>37.8</ele>
        <time>2023-07-03T12:54:00Z</time>
      </trkpt>
      <trkpt lat="47.81753" lon="-3.81134">
        <ele>38.8</ele>
        <time>2023-07-03T12:54:04Z</time>
      </trkpt>
      <trkpt lat="47.8175" lon="-3.81136">
        <ele>38.8</ele>
        <time>2023-07-03T12:54:08Z</time>
      </trkpt>
      <trkpt lat="47.8175" lon="-3.81136">
        <ele>38.8</ele>
        <time>2023-07-03T12:54:12Z</time>
      </trkpt>
      <trkpt lat="47.8175" lon="-3.81136">
        <ele>39.4</ele>
        <time>2023-07-03T12:54:16Z</time>
      </trkpt>
      <trkpt lat="47.8175" lon="-3.81136">
        <ele>39</ele>
        <time>2023-07-03T12:54:20Z</time>
      </trkpt>
      <trkpt lat="47.8175" lon="-3.81136">
        <ele>38.6</ele>
        <time>2023-07-03T12:54:24Z</time>
      </trkpt>
      <trkpt lat="47.8175" lon="-3.81136">
        <ele>39</ele>
        <time>2023-07-03T12:54:28Z</time>
      </trkpt>
      <trkpt lat="47.8175" lon="-3.81136">
        <ele>38.8</ele>
        <time>2023-07-03T12:54:32Z</time>
      </trkpt>
      <trkpt lat="47.81749" lon="-3.81138">
        <ele>38.6</ele>
        <time>2023-07-03T12:54:36Z</time>
      </trkpt>
      <trkpt lat="47.81751" lon="-3.81136">
        <ele>39</ele>
        <time>2023-07-03T12:54:40Z</time>
      </trkpt>
      <trkpt lat="47.81752" lon="-3.81129">
        <ele>38.8</ele>
        <time>2023-07-03T12:54:44Z</time>
      </trkpt>
      <trkpt lat="47.81744" lon="-3.81126">
        <ele>37.8</ele>
        <time>2023-07-03T12:54:48Z</time>
      </trkpt>
      <trkpt lat="47.8173" lon="-3.81112">
        <ele>35.8</ele>
        <time>2023-07-03T12:54:52Z</time>
      </trkpt>
      <trkpt lat="47.81713" lon="-3.81092">
        <ele>34.8</ele>
        <time>2023-07-03T12:54:56Z</time>
      </trkpt>
      <trkpt lat="47.81693" lon="-3.81075">
        <ele>32.6</ele>
        <time>2023-07-03T12:55:00Z</time>
      </trkpt>
      <trkpt lat="47.81675" lon="-3.81081">
        <ele>31.6</ele>
        <time>2023-07-03T12:55:04Z</time>
      </trkpt>
      <trkpt lat="47.81662" lon="-3.81104">
        <ele>31</ele>
        <time>2023-07-03T12:55:08Z</time>
      </trkpt>
      <trkpt lat="47.81652" lon="-3.8113">
        <ele>32.8</ele>
        <time>2023-07-03T12:55:12Z</time>
      </trkpt>
      <trkpt lat="47.81641" lon="-3.81157">
        <ele>32.8</ele>
        <time>2023-07-03T12:55:16Z</time>
      </trkpt>
      <trkpt lat="47.81631" lon="-3.81184">
        <ele>34.4</ele>
        <time>2023-07-03T12:55:20Z</time>
      </trkpt>
      <trkpt lat="47.81622" lon="-3.8121">
        <ele>34.4</ele>
        <time>2023-07-03T12:55:24Z</time>
      </trkpt>
      <trkpt lat="47.81615" lon="-3.81234">
        <ele>34.8</ele>
        <time>2023-07-03T12:55:28Z</time>
      </trkpt>
      <trkpt lat="47.81621" lon="-3.81257">
        <ele>36.2</ele>
        <time>2023-07-03T12:55:32Z</time>
      </trkpt>
      <trkpt lat="47.81639" lon="-3.81262">
        <ele>35.6</ele>
        <time>2023-07-03T12:55:36Z</time>
      </trkpt>
      <trkpt lat="47.81656" lon="-3.81272">
        <ele>35.6</ele>
        <time>2023-07-03T12:55:40Z</time>
      </trkpt>
      <trkpt lat="47.81674" lon="-3.81289">
        <ele>38.6</ele>
        <time>2023-07-03T12:55:44Z</time>
      </trkpt>
      <trkpt lat="47.81688" lon="-3.81311">
        <ele>37.4</ele>
        <time>2023-07-03T12:55:48Z</time>
      </trkpt>
      <trkpt lat="47.81703" lon="-3.81331">
        <ele>38.4</ele>
        <time>2023-07-03T12:55:52Z</time>
      </trkpt>
      <trkpt lat="47.81718" lon="-3.81354">
        <ele>38</ele>
        <time>2023-07-03T12:55:56Z</time>
      </trkpt>
      <trkpt lat="47.81735" lon="-3.81377">
        <ele>37.2</ele>
        <time>2023-07-03T12:56:00Z</time>
      </trkpt>
      <trkpt lat="47.81751" lon="-3.81399">
        <ele>37.6</ele>
        <time>2023-07-03T12:56:04Z</time>
      </trkpt>
      <trkpt lat="47.81769" lon="-3.81421">
        <ele>36.8</ele>
        <time>2023-07-03T12:56:08Z</time>
      </trkpt>
      <trkpt lat="47.8179" lon="-3.81444">
        <ele>35</ele>
        <time>2023-07-03T12:56:12Z</time>
      </trkpt>
      <trkpt lat="47.81814" lon="-3.81464">
        <ele>34</ele>
        <time>2023-07-03T12:56:16Z</time>
      </trkpt>
      <trkpt lat="47.81839" lon="-3.81481">
        <ele>34</ele>
        <time>2023-07-03T12:56:20Z</time>
      </trkpt>
      <trkpt lat="47.81864" lon="-3.81497">
        <ele>33</ele>
        <time>2023-07-03T12:56:24Z</time>
      </trkpt>
      <trkpt lat="47.8189" lon="-3.81514">
        <ele>33</ele>
        <time>2023-07-03T12:56:28Z</time>
      </trkpt>
      <trkpt lat="47.81916" lon="-3.81531">
        <ele>33.6</ele>
        <time>2023-07-03T12:56:32Z</time>
      </trkpt>
      <trkpt lat="47.81944" lon="-3.81551">
        <ele>34.6</ele>
        <time>2023-07-03T12:56:36Z</time>
      </trkpt>
      <trkpt lat="47.81969" lon="-3.81568">
        <ele>35.4</ele>
        <time>2023-07-03T12:56:40Z</time>
      </trkpt>
      <trkpt lat="47.81991" lon="-3.81585">
        <ele>36.8</ele>
        <time>2023-07-03T12:56:44Z</time>
      </trkpt>
      <trkpt lat="47.82013" lon="-3.816">
        <ele>36.2</ele>
        <time>2023-07-03T12:56:48Z</time>
      </trkpt>
      <trkpt lat="47.82035" lon="-3.81614">
        <ele>36.2</ele>
        <time>2023-07-03T12:56:52Z</time>
      </trkpt>
      <trkpt lat="47.8206" lon="-3.8163">
        <ele>35</ele>
        <time>2023-07-03T12:56:56Z</time>
      </trkpt>
      <trkpt lat="47.82087" lon="-3.81644">
        <ele>33.8</ele>
        <time>2023-07-03T12:57:00Z</time>
      </trkpt>
      <trkpt lat="47.82115" lon="-3.81659">
        <ele>32.4</ele>
        <time>2023-07-03T12:57:04Z</time>
      </trkpt>
      <trkpt lat="47.82144" lon="-3.81673">
        <ele>33</ele>
        <time>2023-07-03T12:57:08Z</time>
      </trkpt>
      <trkpt lat="47.82171" lon="-3.81685">
        <ele>35.8</ele>
        <time>2023-07-03T12:57:12Z</time>
      </trkpt>
      <trkpt lat="47.82197" lon="-3.81696">
        <ele>35.8</ele>
        <time>2023-07-03T12:57:16Z</time>
      </trkpt>
      <trkpt lat="47.8222" lon="-3.81707">
        <ele>37.4</ele>
        <time>2023-07-03T12:57:20Z</time>
      </trkpt>
      <trkpt lat="47.8224" lon="-3.81717">
        <ele>38.6</ele>
        <time>2023-07-03T12:57:24Z</time>
      </trkpt>
      <trkpt lat="47.82257" lon="-3.81723">
        <ele>38.8</ele>
        <time>2023-07-03T12:57:28Z</time>
      </trkpt>
      <trkpt lat="47.82275" lon="-3.81734">
        <ele>40</ele>
        <time>2023-07-03T12:57:32Z</time>
      </trkpt>
      <trkpt lat="47.823" lon="-3.81744">
        <ele>40.8</ele>
        <time>2023-07-03T12:57:36Z</time>
      </trkpt>
      <trkpt lat="47.82322" lon="-3.81756">
        <ele>43.4</ele>
        <time>2023-07-03T12:57:40Z</time>
      </trkpt>
      <trkpt lat="47.82341" lon="-3.81767">
        <ele>44</ele>
        <time>2023-07-03T12:57:44Z</time>
      </trkpt>
      <trkpt lat="47.82351" lon="-3.81794">
        <ele>44</ele>
        <time>2023-07-03T12:57:48Z</time>
      </trkpt>
      <trkpt lat="47.8235" lon="-3.8183">
        <ele>41.6</ele>
        <time>2023-07-03T12:57:52Z</time>
      </trkpt>
      <trkpt lat="47.82354" lon="-3.81865">
        <ele>40</ele>
        <time>2023-07-03T12:57:56Z</time>
      </trkpt>
      <trkpt lat="47.82352" lon="-3.81908">
        <ele>39</ele>
        <time>2023-07-03T12:58:00Z</time>
      </trkpt>
      <trkpt lat="47.8235" lon="-3.81948">
        <ele>36.8</ele>
        <time>2023-07-03T12:58:04Z</time>
      </trkpt>
      <trkpt lat="47.82334" lon="-3.81979">
        <ele>33.4</ele>
        <time>2023-07-03T12:58:08Z</time>
      </trkpt>
      <trkpt lat="47.82307" lon="-3.81992">
        <ele>33.2</ele>
        <time>2023-07-03T12:58:12Z</time>
      </trkpt>
      <trkpt lat="47.82274" lon="-3.82007">
        <ele>33.2</ele>
        <time>2023-07-03T12:58:16Z</time>
      </trkpt>
      <trkpt lat="47.82244" lon="-3.82017">
        <ele>32.8</ele>
        <time>2023-07-03T12:58:20Z</time>
      </trkpt>
      <trkpt lat="47.82214" lon="-3.82024">
        <ele>30.6</ele>
        <time>2023-07-03T12:58:24Z</time>
      </trkpt>
      <trkpt lat="47.8218" lon="-3.82021">
        <ele>31.6</ele>
        <time>2023-07-03T12:58:28Z</time>
      </trkpt>
      <trkpt lat="47.82144" lon="-3.82032">
        <ele>29.4</ele>
        <time>2023-07-03T12:58:32Z</time>
      </trkpt>
      <trkpt lat="47.82114" lon="-3.82051">
        <ele>27.8</ele>
        <time>2023-07-03T12:58:36Z</time>
      </trkpt>
      <trkpt lat="47.82084" lon="-3.82071">
        <ele>26.6</ele>
        <time>2023-07-03T12:58:40Z</time>
      </trkpt>
      <trkpt lat="47.82055" lon="-3.82094">
        <ele>25.2</ele>
        <time>2023-07-03T12:58:44Z</time>
      </trkpt>
      <trkpt lat="47.82028" lon="-3.82112">
        <ele>25.2</ele>
        <time>2023-07-03T12:58:48Z</time>
      </trkpt>
      <trkpt lat="47.82003" lon="-3.82129">
        <ele>25</ele>
        <time>2023-07-03T12:58:52Z</time>
      </trkpt>
      <trkpt lat="47.81981" lon="-3.82141">
        <ele>25</ele>
        <time>2023-07-03T12:58:56Z</time>
      </trkpt>
      <trkpt lat="47.81957" lon="-3.82159">
        <ele>24.4</ele>
        <time>2023-07-03T12:59:00Z</time>
      </trkpt>
      <trkpt lat="47.81934" lon="-3.82182">
        <ele>23.8</ele>
        <time>2023-07-03T12:59:04Z</time>
      </trkpt>
      <trkpt lat="47.81907" lon="-3.82209">
        <ele>26.8</ele>
        <time>2023-07-03T12:59:08Z</time>
      </trkpt>
      <trkpt lat="47.81879" lon="-3.82234">
        <ele>28.2</ele>
        <time>2023-07-03T12:59:12Z</time>
      </trkpt>
      <trkpt lat="47.8185" lon="-3.82253">
        <ele>28</ele>
        <time>2023-07-03T12:59:16Z</time>
      </trkpt>
      <trkpt lat="47.81822" lon="-3.82265">
        <ele>30</ele>
        <time>2023-07-03T12:59:20Z</time>
      </trkpt>
      <trkpt lat="47.81801" lon="-3.82282">
        <ele>27.8</ele>
        <time>2023-07-03T12:59:24Z</time>
      </trkpt>
      <trkpt lat="47.81786" lon="-3.82307">
        <ele>28.6</ele>
        <time>2023-07-03T12:59:28Z</time>
      </trkpt>
      <trkpt lat="47.81769" lon="-3.82329">
        <ele>28.6</ele>
        <time>2023-07-03T12:59:32Z</time>
      </trkpt>
      <trkpt lat="47.81748" lon="-3.82352">
        <ele>28.8</ele>
        <time>2023-07-03T12:59:36Z</time>
      </trkpt>
      <trkpt lat="47.81734" lon="-3.82379">
        <ele>28</ele>
        <time>2023-07-03T12:59:40Z</time>
      </trkpt>
      <trkpt lat="47.81726" lon="-3.82416">
        <ele>29.4</ele>
        <time>2023-07-03T12:59:44Z</time>
      </trkpt>
      <trkpt lat="47.81738" lon="-3.82436">
        <ele>28.8</ele>
        <time>2023-07-03T12:59:48Z</time>
      </trkpt>
      <trkpt lat="47.8175" lon="-3.82447">
        <ele>30</ele>
        <time>2023-07-03T12:59:52Z</time>
      </trkpt>
      <trkpt lat="47.8176" lon="-3.82459">
        <ele>29.2</ele>
        <time>2023-07-03T12:59:56Z</time>
      </trkpt>
      <trkpt lat="47.81772" lon="-3.82468">
        <ele>28.4</ele>
        <time>2023-07-03T13:00:00Z</time>
      </trkpt>
      <trkpt lat="47.81783" lon="-3.82477">
        <ele>28.6</ele>
        <time>2023-07-03T13:00:04Z</time>
      </trkpt>
      <trkpt lat="47.81783" lon="-3.82477">
        <ele>29.4</ele>
        <time>2023-07-03T13:00:08Z</time>
      </trkpt>
      <trkpt lat="47.81783" lon="-3.82477">
        <ele>29.6</ele>
        <time>2023-07-03T13:00:12Z</time>
      </trkpt>
      <trkpt lat="47.81783" lon="-3.82477">
        <ele>29.4</ele>
        <time>2023-07-03T13:00:16Z</time>
      </trkpt>
      <trkpt lat="47.81791" lon="-3.82492">
        <ele>29.2</ele>
        <time>2023-07-03T13:00:20Z</time>
      </trkpt>
      <trkpt lat="47.81799" lon="-3.82497">
        <ele>28.6</ele>
        <time>2023-07-03T13:00:24Z</time>
      </trkpt>
      <trkpt lat="47.81808" lon="-3.82505">
        <ele>27.2</ele>
        <time>2023-07-03T13:00:28Z</time>
      </trkpt>
      <trkpt lat="47.81821" lon="-3.82514">
        <ele>27.6</ele>
        <time>2023-07-03T13:00:32Z</time>
      </trkpt>
      <trkpt lat="47.81834" lon="-3.82522">
        <ele>26.8</ele>
        <time>2023-07-03T13:00:36Z</time>
      </trkpt>
      <trkpt lat="47.81847" lon="-3.82532">
        <ele>26.4</ele>
        <time>2023-07-03T13:00:40Z</time>
      </trkpt>
      <trkpt lat="47.81862" lon="-3.82546">
        <ele>27.8</ele>
        <time>2023-07-03T13:00:44Z</time>
      </trkpt>
      <trkpt lat="47.81876" lon="-3.82563">
        <ele>26.8</ele>
        <time>2023-07-03T13:00:48Z</time>
      </trkpt>
      <trkpt lat="47.81884" lon="-3.82586">
        <ele>26</ele>
        <time>2023-07-03T13:00:52Z</time>
      </trkpt>
      <trkpt lat="47.81884" lon="-3.82605">
        <ele>26</ele>
        <time>2023-07-03T13:00:56Z</time>
      </trkpt>
      <trkpt lat="47.81879" lon="-3.82625">
        <ele>26.4</ele>
        <time>2023-07-03T13:01:00Z</time>
      </trkpt>
      <trkpt lat="47.81872" lon="-3.82638">
        <ele>27.4</ele>
        <time>2023-07-03T13:01:04Z</time>
      </trkpt>
      <trkpt lat="47.81869" lon="-3.82659">
        <ele>28.6</ele>
        <time>2023-07-03T13:01:08Z</time>
      </trkpt>
      <trkpt lat="47.81867" lon="-3.82684">
        <ele>28.4</ele>
        <time>2023-07-03T13:01:12Z</time>
      </trkpt>
      <trkpt lat="47.81863" lon="-3.8272">
        <ele>28</ele>
        <time>2023-07-03T13:01:16Z</time>
      </trkpt>
      <trkpt lat="47.81856" lon="-3.82758">
        <ele>24.8</ele>
        <time>2023-07-03T13:01:20Z</time>
      </trkpt>
      <trkpt lat="47.81842" lon="-3.82792">
        <ele>24.2</ele>
        <time>2023-07-03T13:01:24Z</time>
      </trkpt>
      <trkpt lat="47.81826" lon="-3.82824">
        <ele>25.4</ele>
        <time>2023-07-03T13:01:28Z</time>
      </trkpt>
      <trkpt lat="47.8181" lon="-3.82857">
        <ele>25</ele>
        <time>2023-07-03T13:01:32Z</time>
      </trkpt>
      <trkpt lat="47.81796" lon="-3.8289">
        <ele>25.6</ele>
        <time>2023-07-03T13:01:36Z</time>
      </trkpt>
      <trkpt lat="47.81783" lon="-3.82916">
        <ele>26</ele>
        <time>2023-07-03T13:01:40Z</time>
      </trkpt>
      <trkpt lat="47.8177" lon="-3.82949">
        <ele>25.2</ele>
        <time>2023-07-03T13:01:44Z</time>
      </trkpt>
      <trkpt lat="47.81779" lon="-3.82983">
        <ele>24.8</ele>
        <time>2023-07-03T13:01:48Z</time>
      </trkpt>
      <trkpt lat="47.81796" lon="-3.83011">
        <ele>25.8</ele>
        <time>2023-07-03T13:01:52Z</time>
      </trkpt>
      <trkpt lat="47.81815" lon="-3.8304">
        <ele>27.2</ele>
        <time>2023-07-03T13:01:56Z</time>
      </trkpt>
      <trkpt lat="47.81835" lon="-3.83071">
        <ele>25.8</ele>
        <time>2023-07-03T13:02:00Z</time>
      </trkpt>
      <trkpt lat="47.81858" lon="-3.83099">
        <ele>24</ele>
        <time>2023-07-03T13:02:04Z</time>
      </trkpt>
      <trkpt lat="47.81883" lon="-3.83124">
        <ele>24</ele>
        <time>2023-07-03T13:02:08Z</time>
      </trkpt>
      <trkpt lat="47.81907" lon="-3.8315">
        <ele>20.8</ele>
        <time>2023-07-03T13:02:12Z</time>
      </trkpt>
      <trkpt lat="47.81933" lon="-3.83178">
        <ele>21.8</ele>
        <time>2023-07-03T13:02:16Z</time>
      </trkpt>
      <trkpt lat="47.81957" lon="-3.83204">
        <ele>19.4</ele>
        <time>2023-07-03T13:02:20Z</time>
      </trkpt>
      <trkpt lat="47.81985" lon="-3.83235">
        <ele>19.2</ele>
        <time>2023-07-03T13:02:24Z</time>
      </trkpt>
      <trkpt lat="47.82012" lon="-3.83272">
        <ele>18</ele>
        <time>2023-07-03T13:02:28Z</time>
      </trkpt>
      <trkpt lat="47.82034" lon="-3.83305">
        <ele>23</ele>
        <time>2023-07-03T13:02:32Z</time>
      </trkpt>
      <trkpt lat="47.82054" lon="-3.83334">
        <ele>23</ele>
        <time>2023-07-03T13:02:36Z</time>
      </trkpt>
      <trkpt lat="47.82073" lon="-3.83362">
        <ele>24</ele>
        <time>2023-07-03T13:02:40Z</time>
      </trkpt>
      <trkpt lat="47.82091" lon="-3.83386">
        <ele>24.6</ele>
        <time>2023-07-03T13:02:44Z</time>
      </trkpt>
      <trkpt lat="47.8211" lon="-3.83413">
        <ele>23.4</ele>
        <time>2023-07-03T13:02:48Z</time>
      </trkpt>
      <trkpt lat="47.82128" lon="-3.83439">
        <ele>26.6</ele>
        <time>2023-07-03T13:02:52Z</time>
      </trkpt>
      <trkpt lat="47.82145" lon="-3.83464">
        <ele>26.2</ele>
        <time>2023-07-03T13:02:56Z</time>
      </trkpt>
      <trkpt lat="47.82162" lon="-3.8349">
        <ele>26.8</ele>
        <time>2023-07-03T13:03:00Z</time>
      </trkpt>
      <trkpt lat="47.8218" lon="-3.83519">
        <ele>28</ele>
        <time>2023-07-03T13:03:04Z</time>
      </trkpt>
      <trkpt lat="47.82197" lon="-3.8355">
        <ele>26.6</ele>
        <time>2023-07-03T13:03:08Z</time>
      </trkpt>
      <trkpt lat="47.82216" lon="-3.83581">
        <ele>26.2</ele>
        <time>2023-07-03T13:03:12Z</time>
      </trkpt>
      <trkpt lat="47.82235" lon="-3.83609">
        <ele>26.2</ele>
        <time>2023-07-03T13:03:16Z</time>
      </trkpt>
      <trkpt lat="47.82252" lon="-3.83636">
        <ele>26</ele>
        <time>2023-07-03T13:03:20Z</time>
      </trkpt>
      <trkpt lat="47.82261" lon="-3.83663">
        <ele>26</ele>
        <time>2023-07-03T13:03:24Z</time>
      </trkpt>
      <trkpt lat="47.82261" lon="-3.83663">
        <ele>27.4</ele>
        <time>2023-07-03T13:03:28Z</time>
      </trkpt>
      <trkpt lat="47.8226" lon="-3.83677">
        <ele>29.4</ele>
        <time>2023-07-03T13:03:32Z</time>
      </trkpt>
      <trkpt lat="47.82252" lon="-3.83685">
        <ele>28.6</ele>
        <time>2023-07-03T13:03:36Z</time>
      </trkpt>
      <trkpt lat="47.82235" lon="-3.83694">
        <ele>28.8</ele>
        <time>2023-07-03T13:03:40Z</time>
      </trkpt>
      <trkpt lat="47.82228" lon="-3.83723">
        <ele>25.8</ele>
        <time>2023-07-03T13:03:44Z</time>
      </trkpt>
      <trkpt lat="47.82219" lon="-3.83756">
        <ele>26</ele>
        <time>2023-07-03T13:03:48Z</time>
      </trkpt>
      <trkpt lat="47.82209" lon="-3.83789">
        <ele>27.6</ele>
        <time>2023-07-03T13:03:52Z</time>
      </trkpt>
      <trkpt lat="47.82198" lon="-3.83823">
        <ele>25.8</ele>
        <time>2023-07-03T13:03:56Z</time>
      </trkpt>
      <trkpt lat="47.82188" lon="-3.83859">
        <ele>23.8</ele>
        <time>2023-07-03T13:04:00Z</time>
      </trkpt>
      <trkpt lat="47.82177" lon="-3.83895">
        <ele>24</ele>
        <time>2023-07-03T13:04:04Z</time>
      </trkpt>
      <trkpt lat="47.82168" lon="-3.83934">
        <ele>23.2</ele>
        <time>2023-07-03T13:04:08Z</time>
      </trkpt>
      <trkpt lat="47.82164" lon="-3.83976">
        <ele>22.2</ele>
        <time>2023-07-03T13:04:12Z</time>
      </trkpt>
      <trkpt lat="47.82161" lon="-3.84023">
        <ele>20</ele>
        <time>2023-07-03T13:04:16Z</time>
      </trkpt>
      <trkpt lat="47.82164" lon="-3.84064">
        <ele>16.4</ele>
        <time>2023-07-03T13:04:20Z</time>
      </trkpt>
      <trkpt lat="47.82164" lon="-3.84102">
        <ele>20.8</ele>
        <time>2023-07-03T13:04:24Z</time>
      </trkpt>
      <trkpt lat="47.82159" lon="-3.84133">
        <ele>20</ele>
        <time>2023-07-03T13:04:28Z</time>
      </trkpt>
      <trkpt lat="47.82156" lon="-3.84162">
        <ele>20.8</ele>
        <time>2023-07-03T13:04:32Z</time>
      </trkpt>
      <trkpt lat="47.82153" lon="-3.84193">
        <ele>21.6</ele>
        <time>2023-07-03T13:04:36Z</time>
      </trkpt>
      <trkpt lat="47.82148" lon="-3.84225">
        <ele>23</ele>
        <time>2023-07-03T13:04:40Z</time>
      </trkpt>
      <trkpt lat="47.82142" lon="-3.84257">
        <ele>23.8</ele>
        <time>2023-07-03T13:04:44Z</time>
      </trkpt>
      <trkpt lat="47.82129" lon="-3.84286">
        <ele>17.4</ele>
        <time>2023-07-03T13:04:48Z</time>
      </trkpt>
      <trkpt lat="47.82109" lon="-3.84294">
        <ele>22.2</ele>
        <time>2023-07-03T13:04:52Z</time>
      </trkpt>
      <trkpt lat="47.82083" lon="-3.84296">
        <ele>22.2</ele>
        <time>2023-07-03T13:04:56Z</time>
      </trkpt>
      <trkpt lat="47.82059" lon="-3.84299">
        <ele>24.2</ele>
        <time>2023-07-03T13:05:00Z</time>
      </trkpt>
      <trkpt lat="47.82035" lon="-3.84299">
        <ele>24</ele>
        <time>2023-07-03T13:05:04Z</time>
      </trkpt>
      <trkpt lat="47.8201" lon="-3.84301">
        <ele>23</ele>
        <time>2023-07-03T13:05:08Z</time>
      </trkpt>
      <trkpt lat="47.81983" lon="-3.84302">
        <ele>22.4</ele>
        <time>2023-07-03T13:05:12Z</time>
      </trkpt>
      <trkpt lat="47.81953" lon="-3.84303">
        <ele>18.6</ele>
        <time>2023-07-03T13:05:16Z</time>
      </trkpt>
      <trkpt lat="47.81938" lon="-3.84326">
        <ele>17.6</ele>
        <time>2023-07-03T13:05:20Z</time>
      </trkpt>
      <trkpt lat="47.81934" lon="-3.84358">
        <ele>19</ele>
        <time>2023-07-03T13:05:24Z</time>
      </trkpt>
      <trkpt lat="47.81929" lon="-3.84388">
        <ele>19.2</ele>
        <time>2023-07-03T13:05:28Z</time>
      </trkpt>
      <trkpt lat="47.81924" lon="-3.84416">
        <ele>21.2</ele>
        <time>2023-07-03T13:05:32Z</time>
      </trkpt>
      <trkpt lat="47.81906" lon="-3.84429">
        <ele>21.2</ele>
        <time>2023-07-03T13:05:36Z</time>
      </trkpt>
      <trkpt lat="47.81883" lon="-3.84428">
        <ele>20.8</ele>
        <time>2023-07-03T13:05:40Z</time>
      </trkpt>
      <trkpt lat="47.8186" lon="-3.84427">
        <ele>21.4</ele>
        <time>2023-07-03T13:05:44Z</time>
      </trkpt>
      <trkpt lat="47.81836" lon="-3.84427">
        <ele>20.2</ele>
        <time>2023-07-03T13:05:48Z</time>
      </trkpt>
      <trkpt lat="47.81812" lon="-3.84427">
        <ele>21.6</ele>
        <time>2023-07-03T13:05:52Z</time>
      </trkpt>
      <trkpt lat="47.81788" lon="-3.84425">
        <ele>22</ele>
        <time>2023-07-03T13:05:56Z</time>
      </trkpt>
      <trkpt lat="47.81764" lon="-3.84424">
        <ele>22</ele>
        <time>2023-07-03T13:06:00Z</time>
      </trkpt>
      <trkpt lat="47.81741" lon="-3.84423">
        <ele>23.2</ele>
        <time>2023-07-03T13:06:04Z</time>
      </trkpt>
      <trkpt lat="47.81719" lon="-3.84424">
        <ele>23.6</ele>
        <time>2023-07-03T13:06:08Z</time>
      </trkpt>
      <trkpt lat="47.81698" lon="-3.84427">
        <ele>23</ele>
        <time>2023-07-03T13:06:12Z</time>
      </trkpt>
      <trkpt lat="47.81676" lon="-3.84426">
        <ele>21.4</ele>
        <time>2023-07-03T13:06:16Z</time>
      </trkpt>
      <trkpt lat="47.81653" lon="-3.84425">
        <ele>19.4</ele>
        <time>2023-07-03T13:06:20Z</time>
      </trkpt>
      <trkpt lat="47.81628" lon="-3.84423">
        <ele>19.4</ele>
        <time>2023-07-03T13:06:24Z</time>
      </trkpt>
      <trkpt lat="47.816" lon="-3.84421">
        <ele>20.4</ele>
        <time>2023-07-03T13:06:28Z</time>
      </trkpt>
      <trkpt lat="47.81573" lon="-3.84419">
        <ele>21.4</ele>
        <time>2023-07-03T13:06:32Z</time>
      </trkpt>
      <trkpt lat="47.81547" lon="-3.84413">
        <ele>21.6</ele>
        <time>2023-07-03T13:06:36Z</time>
      </trkpt>
      <trkpt lat="47.81523" lon="-3.84402">
        <ele>21.4</ele>
        <time>2023-07-03T13:06:40Z</time>
      </trkpt>
      <trkpt lat="47.81501" lon="-3.84387">
        <ele>21.4</ele>
        <time>2023-07-03T13:06:44Z</time>
      </trkpt>
      <trkpt lat="47.8148" lon="-3.84374">
        <ele>22</ele>
        <time>2023-07-03T13:06:48Z</time>
      </trkpt>
      <trkpt lat="47.81459" lon="-3.84363">
        <ele>21.8</ele>
        <time>2023-07-03T13:06:52Z</time>
      </trkpt>
      <trkpt lat="47.81433" lon="-3.84352">
        <ele>22.8</ele>
        <time>2023-07-03T13:06:56Z</time>
      </trkpt>
      <trkpt lat="47.81405" lon="-3.84344">
        <ele>20.6</ele>
        <time>2023-07-03T13:07:00Z</time>
      </trkpt>
      <trkpt lat="47.81379" lon="-3.84339">
        <ele>20.6</ele>
        <time>2023-07-03T13:07:04Z</time>
      </trkpt>
      <trkpt lat="47.81354" lon="-3.84336">
        <ele>18.8</ele>
        <time>2023-07-03T13:07:08Z</time>
      </trkpt>
      <trkpt lat="47.81332" lon="-3.84337">
        <ele>22</ele>
        <time>2023-07-03T13:07:12Z</time>
      </trkpt>
      <trkpt lat="47.81309" lon="-3.8434">
        <ele>21</ele>
        <time>2023-07-03T13:07:16Z</time>
      </trkpt>
      <trkpt lat="47.81288" lon="-3.84342">
        <ele>19.6</ele>
        <time>2023-07-03T13:07:20Z</time>
      </trkpt>
      <trkpt lat="47.81265" lon="-3.84344">
        <ele>20.6</ele>
        <time>2023-07-03T13:07:24Z</time>
      </trkpt>
      <trkpt lat="47.81241" lon="-3.84345">
        <ele>19.8</ele>
        <time>2023-07-03T13:07:28Z</time>
      </trkpt>
      <trkpt lat="47.81224" lon="-3.84323">
        <ele>20.2</ele>
        <time>2023-07-03T13:07:32Z</time>
      </trkpt>
      <trkpt lat="47.81213" lon="-3.8429">
        <ele>17</ele>
        <time>2023-07-03T13:07:36Z</time>
      </trkpt>
      <trkpt lat="47.81203" lon="-3.84251">
        <ele>16.6</ele>
        <time>2023-07-03T13:07:40Z</time>
      </trkpt>
      <trkpt lat="47.81194" lon="-3.84216">
        <ele>14.2</ele>
        <time>2023-07-03T13:07:44Z</time>
      </trkpt>
      <trkpt lat="47.8118" lon="-3.84172">
        <ele>11.6</ele>
        <time>2023-07-03T13:07:48Z</time>
      </trkpt>
      <trkpt lat="47.81158" lon="-3.84122">
        <ele>4.8</ele>
        <time>2023-07-03T13:07:52Z</time>
      </trkpt>
      <trkpt lat="47.81136" lon="-3.84066">
        <ele>6.8</ele>
        <time>2023-07-03T13:07:56Z</time>
      </trkpt>
      <trkpt lat="47.81116" lon="-3.84032">
        <ele>7.8</ele>
        <time>2023-07-03T13:08:00Z</time>
      </trkpt>
      <trkpt lat="47.81099" lon="-3.84016">
        <ele>12.6</ele>
        <time>2023-07-03T13:08:04Z</time>
      </trkpt>
      <trkpt lat="47.81086" lon="-3.83995">
        <ele>14.2</ele>
        <time>2023-07-03T13:08:08Z</time>
      </trkpt>
      <trkpt lat="47.81073" lon="-3.83967">
        <ele>15.6</ele>
        <time>2023-07-03T13:08:12Z</time>
      </trkpt>
      <trkpt lat="47.8106" lon="-3.8395">
        <ele>17</ele>
        <time>2023-07-03T13:08:16Z</time>
      </trkpt>
      <trkpt lat="47.8104" lon="-3.83932">
        <ele>18.8</ele>
        <time>2023-07-03T13:08:20Z</time>
      </trkpt>
      <trkpt lat="47.81019" lon="-3.83902">
        <ele>19.6</ele>
        <time>2023-07-03T13:08:24Z</time>
      </trkpt>
      <trkpt lat="47.81002" lon="-3.83882">
        <ele>21.4</ele>
        <time>2023-07-03T13:08:28Z</time>
      </trkpt>
      <trkpt lat="47.80986" lon="-3.83866">
        <ele>22.8</ele>
        <time>2023-07-03T13:08:32Z</time>
      </trkpt>
      <trkpt lat="47.80969" lon="-3.83848">
        <ele>21.6</ele>
        <time>2023-07-03T13:08:36Z</time>
      </trkpt>
      <trkpt lat="47.80951" lon="-3.83832">
        <ele>22.4</ele>
        <time>2023-07-03T13:08:40Z</time>
      </trkpt>
      <trkpt lat="47.80932" lon="-3.8382">
        <ele>23</ele>
        <time>2023-07-03T13:08:44Z</time>
      </trkpt>
      <trkpt lat="47.80912" lon="-3.83813">
        <ele>22.2</ele>
        <time>2023-07-03T13:08:48Z</time>
      </trkpt>
      <trkpt lat="47.80891" lon="-3.8381">
        <ele>22.4</ele>
        <time>2023-07-03T13:08:52Z</time>
      </trkpt>
      <trkpt lat="47.8087" lon="-3.83807">
        <ele>22</ele>
        <time>2023-07-03T13:08:56Z</time>
      </trkpt>
      <trkpt lat="47.80848" lon="-3.83806">
        <ele>20.6</ele>
        <time>2023-07-03T13:09:00Z</time>
      </trkpt>
      <trkpt lat="47.80827" lon="-3.8381">
        <ele>22</ele>
        <time>2023-07-03T13:09:04Z</time>
      </trkpt>
      <trkpt lat="47.80806" lon="-3.83815">
        <ele>22.2</ele>
        <time>2023-07-03T13:09:08Z</time>
      </trkpt>
      <trkpt lat="47.80787" lon="-3.83811">
        <ele>21.6</ele>
        <time>2023-07-03T13:09:12Z</time>
      </trkpt>
      <trkpt lat="47.80771" lon="-3.83824">
        <ele>20</ele>
        <time>2023-07-03T13:09:16Z</time>
      </trkpt>
      <trkpt lat="47.80754" lon="-3.83845">
        <ele>18.2</ele>
        <time>2023-07-03T13:09:20Z</time>
      </trkpt>
      <trkpt lat="47.80736" lon="-3.83867">
        <ele>18</ele>
        <time>2023-07-03T13:09:24Z</time>
      </trkpt>
      <trkpt lat="47.80715" lon="-3.83876">
        <ele>19.6</ele>
        <time>2023-07-03T13:09:28Z</time>
      </trkpt>
      <trkpt lat="47.80704" lon="-3.83849">
        <ele>19.6</ele>
        <time>2023-07-03T13:09:32Z</time>
      </trkpt>
      <trkpt lat="47.80698" lon="-3.83814">
        <ele>18.8</ele>
        <time>2023-07-03T13:09:36Z</time>
      </trkpt>
      <trkpt lat="47.80696" lon="-3.83776">
        <ele>18</ele>
        <time>2023-07-03T13:09:40Z</time>
      </trkpt>
      <trkpt lat="47.80694" lon="-3.83737">
        <ele>17.6</ele>
        <time>2023-07-03T13:09:44Z</time>
      </trkpt>
      <trkpt lat="47.80693" lon="-3.83691">
        <ele>16.8</ele>
        <time>2023-07-03T13:09:48Z</time>
      </trkpt>
      <trkpt lat="47.80689" lon="-3.83643">
        <ele>14.4</ele>
        <time>2023-07-03T13:09:52Z</time>
      </trkpt>
      <trkpt lat="47.80683" lon="-3.83597">
        <ele>15.2</ele>
        <time>2023-07-03T13:09:56Z</time>
      </trkpt>
      <trkpt lat="47.80672" lon="-3.83552">
        <ele>13.6</ele>
        <time>2023-07-03T13:10:00Z</time>
      </trkpt>
      <trkpt lat="47.80656" lon="-3.83507">
        <ele>12.4</ele>
        <time>2023-07-03T13:10:04Z</time>
      </trkpt>
      <trkpt lat="47.80636" lon="-3.83458">
        <ele>7</ele>
        <time>2023-07-03T13:10:08Z</time>
      </trkpt>
      <trkpt lat="47.80619" lon="-3.83409">
        <ele>8.8</ele>
        <time>2023-07-03T13:10:12Z</time>
      </trkpt>
      <trkpt lat="47.80602" lon="-3.8337">
        <ele>10.6</ele>
        <time>2023-07-03T13:10:16Z</time>
      </trkpt>
      <trkpt lat="47.80589" lon="-3.83338">
        <ele>11.6</ele>
        <time>2023-07-03T13:10:20Z</time>
      </trkpt>
      <trkpt lat="47.80569" lon="-3.83328">
        <ele>12.4</ele>
        <time>2023-07-03T13:10:24Z</time>
      </trkpt>
      <trkpt lat="47.80548" lon="-3.83341">
        <ele>11.8</ele>
        <time>2023-07-03T13:10:28Z</time>
      </trkpt>
      <trkpt lat="47.80553" lon="-3.83362">
        <ele>13.8</ele>
        <time>2023-07-03T13:10:32Z</time>
      </trkpt>
      <trkpt lat="47.8056" lon="-3.83381">
        <ele>16.4</ele>
        <time>2023-07-03T13:10:36Z</time>
      </trkpt>
      <trkpt lat="47.80565" lon="-3.834">
        <ele>16.2</ele>
        <time>2023-07-03T13:10:40Z</time>
      </trkpt>
      <trkpt lat="47.80568" lon="-3.83426">
        <ele>14</ele>
        <time>2023-07-03T13:10:44Z</time>
      </trkpt>
      <trkpt lat="47.80568" lon="-3.83455">
        <ele>12</ele>
        <time>2023-07-03T13:10:48Z</time>
      </trkpt>
      <trkpt lat="47.80566" lon="-3.83466">
        <ele>11.2</ele>
        <time>2023-07-03T13:10:52Z</time>
      </trkpt>
      <trkpt lat="47.80557" lon="-3.83471">
        <ele>11.2</ele>
        <time>2023-07-03T13:10:56Z</time>
      </trkpt>
      <trkpt lat="47.80547" lon="-3.83477">
        <ele>13.4</ele>
        <time>2023-07-03T13:11:00Z</time>
      </trkpt>
      <trkpt lat="47.8054" lon="-3.83481">
        <ele>14.4</ele>
        <time>2023-07-03T13:11:04Z</time>
      </trkpt>
      <trkpt lat="47.80529" lon="-3.83485">
        <ele>16.2</ele>
        <time>2023-07-03T13:11:08Z</time>
      </trkpt>
      <trkpt lat="47.80514" lon="-3.8349">
        <ele>16.6</ele>
        <time>2023-07-03T13:11:12Z</time>
      </trkpt>
      <trkpt lat="47.80497" lon="-3.83494">
        <ele>17</ele>
        <time>2023-07-03T13:11:16Z</time>
      </trkpt>
      <trkpt lat="47.80477" lon="-3.83499">
        <ele>17</ele>
        <time>2023-07-03T13:11:20Z</time>
      </trkpt>
      <trkpt lat="47.80457" lon="-3.8351">
        <ele>16.6</ele>
        <time>2023-07-03T13:11:24Z</time>
      </trkpt>
      <trkpt lat="47.80443" lon="-3.83521">
        <ele>17.6</ele>
        <time>2023-07-03T13:11:28Z</time>
      </trkpt>
      <trkpt lat="47.80429" lon="-3.83533">
        <ele>18.8</ele>
        <time>2023-07-03T13:11:32Z</time>
      </trkpt>
      <trkpt lat="47.80421" lon="-3.83544">
        <ele>17.8</ele>
        <time>2023-07-03T13:11:36Z</time>
      </trkpt>
      <trkpt lat="47.80417" lon="-3.83569">
        <ele>16.6</ele>
        <time>2023-07-03T13:11:40Z</time>
      </trkpt>
      <trkpt lat="47.80412" lon="-3.83587">
        <ele>16.2</ele>
        <time>2023-07-03T13:11:44Z</time>
      </trkpt>
      <trkpt lat="47.80405" lon="-3.83602">
        <ele>12.8</ele>
        <time>2023-07-03T13:11:48Z</time>
      </trkpt>
      <trkpt lat="47.80396" lon="-3.83616">
        <ele>12.8</ele>
        <time>2023-07-03T13:11:52Z</time>
      </trkpt>
      <trkpt lat="47.80386" lon="-3.83634">
        <ele>14.2</ele>
        <time>2023-07-03T13:11:56Z</time>
      </trkpt>
      <trkpt lat="47.80374" lon="-3.83648">
        <ele>14.6</ele>
        <time>2023-07-03T13:12:00Z</time>
      </trkpt>
      <trkpt lat="47.80363" lon="-3.83662">
        <ele>14.4</ele>
        <time>2023-07-03T13:12:04Z</time>
      </trkpt>
      <trkpt lat="47.80349" lon="-3.83676">
        <ele>13.8</ele>
        <time>2023-07-03T13:12:08Z</time>
      </trkpt>
      <trkpt lat="47.80328" lon="-3.83691">
        <ele>13.2</ele>
        <time>2023-07-03T13:12:12Z</time>
      </trkpt>
      <trkpt lat="47.80311" lon="-3.837">
        <ele>14.2</ele>
        <time>2023-07-03T13:12:16Z</time>
      </trkpt>
      <trkpt lat="47.80296" lon="-3.83706">
        <ele>14.8</ele>
        <time>2023-07-03T13:12:20Z</time>
      </trkpt>
      <trkpt lat="47.80277" lon="-3.83707">
        <ele>12.6</ele>
        <time>2023-07-03T13:12:24Z</time>
      </trkpt>
      <trkpt lat="47.80259" lon="-3.83699">
        <ele>11.8</ele>
        <time>2023-07-03T13:12:28Z</time>
      </trkpt>
      <trkpt lat="47.8024" lon="-3.83706">
        <ele>13.8</ele>
        <time>2023-07-03T13:12:32Z</time>
      </trkpt>
      <trkpt lat="47.80226" lon="-3.83716">
        <ele>13.8</ele>
        <time>2023-07-03T13:12:36Z</time>
      </trkpt>
      <trkpt lat="47.8021" lon="-3.83732">
        <ele>11.6</ele>
        <time>2023-07-03T13:12:40Z</time>
      </trkpt>
      <trkpt lat="47.80191" lon="-3.83737">
        <ele>11.2</ele>
        <time>2023-07-03T13:12:44Z</time>
      </trkpt>
      <trkpt lat="47.80172" lon="-3.83739">
        <ele>11.2</ele>
        <time>2023-07-03T13:12:48Z</time>
      </trkpt>
      <trkpt lat="47.80155" lon="-3.83745">
        <ele>11.8</ele>
        <time>2023-07-03T13:12:52Z</time>
      </trkpt>
      <trkpt lat="47.80136" lon="-3.83747">
        <ele>12.6</ele>
        <time>2023-07-03T13:12:56Z</time>
      </trkpt>
      <trkpt lat="47.80116" lon="-3.8375">
        <ele>12.2</ele>
        <time>2023-07-03T13:13:00Z</time>
      </trkpt>
      <trkpt lat="47.80086" lon="-3.83754">
        <ele>9.4</ele>
        <time>2023-07-03T13:13:04Z</time>
      </trkpt>
      <trkpt lat="47.80061" lon="-3.83755">
        <ele>8.2</ele>
        <time>2023-07-03T13:13:08Z</time>
      </trkpt>
      <trkpt lat="47.8004" lon="-3.83761">
        <ele>9.4</ele>
        <time>2023-07-03T13:13:12Z</time>
      </trkpt>
      <trkpt lat="47.80014" lon="-3.83768">
        <ele>10.4</ele>
        <time>2023-07-03T13:13:16Z</time>
      </trkpt>
      <trkpt lat="47.79991" lon="-3.83774">
        <ele>12.2</ele>
        <time>2023-07-03T13:13:20Z</time>
      </trkpt>
      <trkpt lat="47.79972" lon="-3.83769">
        <ele>11.2</ele>
        <time>2023-07-03T13:13:24Z</time>
      </trkpt>
      <trkpt lat="47.79955" lon="-3.83762">
        <ele>9.6</ele>
        <time>2023-07-03T13:13:28Z</time>
      </trkpt>
      <trkpt lat="47.79933" lon="-3.83767">
        <ele>7.6</ele>
        <time>2023-07-03T13:13:32Z</time>
      </trkpt>
      <trkpt lat="47.79907" lon="-3.83776">
        <ele>6</ele>
        <time>2023-07-03T13:13:36Z</time>
      </trkpt>
      <trkpt lat="47.79886" lon="-3.83794">
        <ele>7.2</ele>
        <time>2023-07-03T13:13:40Z</time>
      </trkpt>
      <trkpt lat="47.79874" lon="-3.8382">
        <ele>5.4</ele>
        <time>2023-07-03T13:13:44Z</time>
      </trkpt>
      <trkpt lat="47.79868" lon="-3.83845">
        <ele>6</ele>
        <time>2023-07-03T13:13:48Z</time>
      </trkpt>
      <trkpt lat="47.79864" lon="-3.83868">
        <ele>6.4</ele>
        <time>2023-07-03T13:13:52Z</time>
      </trkpt>
      <trkpt lat="47.79862" lon="-3.83901">
        <ele>3.8</ele>
        <time>2023-07-03T13:13:56Z</time>
      </trkpt>
      <trkpt lat="47.79856" lon="-3.83935">
        <ele>0.8</ele>
        <time>2023-07-03T13:14:00Z</time>
      </trkpt>
      <trkpt lat="47.79846" lon="-3.83965">
        <ele>4.4</ele>
        <time>2023-07-03T13:14:04Z</time>
      </trkpt>
      <trkpt lat="47.79834" lon="-3.8399">
        <ele>5.4</ele>
        <time>2023-07-03T13:14:08Z</time>
      </trkpt>
      <trkpt lat="47.79821" lon="-3.84012">
        <ele>6.4</ele>
        <time>2023-07-03T13:14:12Z</time>
      </trkpt>
      <trkpt lat="47.79804" lon="-3.84029">
        <ele>7.8</ele>
        <time>2023-07-03T13:14:16Z</time>
      </trkpt>
      <trkpt lat="47.79786" lon="-3.84044">
        <ele>8.8</ele>
        <time>2023-07-03T13:14:20Z</time>
      </trkpt>
      <trkpt lat="47.79767" lon="-3.84056">
        <ele>10</ele>
        <time>2023-07-03T13:14:24Z</time>
      </trkpt>
      <trkpt lat="47.79748" lon="-3.84068">
        <ele>9.8</ele>
        <time>2023-07-03T13:14:28Z</time>
      </trkpt>
      <trkpt lat="47.7973" lon="-3.84082">
        <ele>9.4</ele>
        <time>2023-07-03T13:14:32Z</time>
      </trkpt>
      <trkpt lat="47.79711" lon="-3.84094">
        <ele>10</ele>
        <time>2023-07-03T13:14:36Z</time>
      </trkpt>
      <trkpt lat="47.79692" lon="-3.84107">
        <ele>8.6</ele>
        <time>2023-07-03T13:14:40Z</time>
      </trkpt>
      <trkpt lat="47.79673" lon="-3.8412">
        <ele>9.4</ele>
        <time>2023-07-03T13:14:44Z</time>
      </trkpt>
      <trkpt lat="47.79654" lon="-3.84134">
        <ele>8.6</ele>
        <time>2023-07-03T13:14:48Z</time>
      </trkpt>
      <trkpt lat="47.79632" lon="-3.84149">
        <ele>9.8</ele>
        <time>2023-07-03T13:14:52Z</time>
      </trkpt>
      <trkpt lat="47.79607" lon="-3.84166">
        <ele>8.8</ele>
        <time>2023-07-03T13:14:56Z</time>
      </trkpt>
      <trkpt lat="47.79582" lon="-3.84186">
        <ele>5.4</ele>
        <time>2023-07-03T13:15:00Z</time>
      </trkpt>
      <trkpt lat="47.79561" lon="-3.84209">
        <ele>6.2</ele>
        <time>2023-07-03T13:15:04Z</time>
      </trkpt>
      <trkpt lat="47.79544" lon="-3.84235">
        <ele>4</ele>
        <time>2023-07-03T13:15:08Z</time>
      </trkpt>
      <trkpt lat="47.79529" lon="-3.84264">
        <ele>5.6</ele>
        <time>2023-07-03T13:15:12Z</time>
      </trkpt>
      <trkpt lat="47.79517" lon="-3.84296">
        <ele>4.4</ele>
        <time>2023-07-03T13:15:16Z</time>
      </trkpt>
      <trkpt lat="47.79508" lon="-3.84328">
        <ele>3.6</ele>
        <time>2023-07-03T13:15:20Z</time>
      </trkpt>
      <trkpt lat="47.79499" lon="-3.84361">
        <ele>3.6</ele>
        <time>2023-07-03T13:15:24Z</time>
      </trkpt>
      <trkpt lat="47.7949" lon="-3.84396">
        <ele>4.4</ele>
        <time>2023-07-03T13:15:28Z</time>
      </trkpt>
      <trkpt lat="47.79479" lon="-3.8443">
        <ele>4</ele>
        <time>2023-07-03T13:15:32Z</time>
      </trkpt>
      <trkpt lat="47.79463" lon="-3.84459">
        <ele>6.8</ele>
        <time>2023-07-03T13:15:36Z</time>
      </trkpt>
      <trkpt lat="47.79447" lon="-3.84485">
        <ele>7.4</ele>
        <time>2023-07-03T13:15:40Z</time>
      </trkpt>
      <trkpt lat="47.7943" lon="-3.84508">
        <ele>7.4</ele>
        <time>2023-07-03T13:15:44Z</time>
      </trkpt>
      <trkpt lat="47.79412" lon="-3.84528">
        <ele>7.6</ele>
        <time>2023-07-03T13:15:48Z</time>
      </trkpt>
      <trkpt lat="47.79391" lon="-3.84546">
        <ele>7.4</ele>
        <time>2023-07-03T13:15:52Z</time>
      </trkpt>
      <trkpt lat="47.7937" lon="-3.84562">
        <ele>7.4</ele>
        <time>2023-07-03T13:15:56Z</time>
      </trkpt>
      <trkpt lat="47.79347" lon="-3.84578">
        <ele>6.4</ele>
        <time>2023-07-03T13:16:00Z</time>
      </trkpt>
      <trkpt lat="47.79325" lon="-3.84593">
        <ele>7</ele>
        <time>2023-07-03T13:16:04Z</time>
      </trkpt>
      <trkpt lat="47.79305" lon="-3.84608">
        <ele>7.2</ele>
        <time>2023-07-03T13:16:08Z</time>
      </trkpt>
      <trkpt lat="47.79285" lon="-3.84626">
        <ele>7.6</ele>
        <time>2023-07-03T13:16:12Z</time>
      </trkpt>
      <trkpt lat="47.79272" lon="-3.84652">
        <ele>4.8</ele>
        <time>2023-07-03T13:16:16Z</time>
      </trkpt>
      <trkpt lat="47.79266" lon="-3.84687">
        <ele>5.8</ele>
        <time>2023-07-03T13:16:20Z</time>
      </trkpt>
      <trkpt lat="47.79265" lon="-3.84722">
        <ele>5.8</ele>
        <time>2023-07-03T13:16:24Z</time>
      </trkpt>
      <trkpt lat="47.79264" lon="-3.84755">
        <ele>5.6</ele>
        <time>2023-07-03T13:16:28Z</time>
      </trkpt>
      <trkpt lat="47.79262" lon="-3.84789">
        <ele>5.8</ele>
        <time>2023-07-03T13:16:32Z</time>
      </trkpt>
      <trkpt lat="47.79261" lon="-3.84823">
        <ele>4</ele>
        <time>2023-07-03T13:16:36Z</time>
      </trkpt>
      <trkpt lat="47.79258" lon="-3.84855">
        <ele>5.6</ele>
        <time>2023-07-03T13:16:40Z</time>
      </trkpt>
      <trkpt lat="47.79252" lon="-3.84887">
        <ele>7</ele>
        <time>2023-07-03T13:16:44Z</time>
      </trkpt>
      <trkpt lat="47.79246" lon="-3.84918">
        <ele>6.6</ele>
        <time>2023-07-03T13:16:48Z</time>
      </trkpt>
      <trkpt lat="47.79244" lon="-3.84948">
        <ele>7.2</ele>
        <time>2023-07-03T13:16:52Z</time>
      </trkpt>
      <trkpt lat="47.79246" lon="-3.84975">
        <ele>10.2</ele>
        <time>2023-07-03T13:16:56Z</time>
      </trkpt>
      <trkpt lat="47.79255" lon="-3.85003">
        <ele>7.2</ele>
        <time>2023-07-03T13:17:00Z</time>
      </trkpt>
      <trkpt lat="47.79268" lon="-3.85038">
        <ele>4.6</ele>
        <time>2023-07-03T13:17:04Z</time>
      </trkpt>
      <trkpt lat="47.79279" lon="-3.85077">
        <ele>3.4</ele>
        <time>2023-07-03T13:17:08Z</time>
      </trkpt>
      <trkpt lat="47.79282" lon="-3.85115">
        <ele>5.4</ele>
        <time>2023-07-03T13:17:12Z</time>
      </trkpt>
      <trkpt lat="47.79283" lon="-3.85152">
        <ele>4.6</ele>
        <time>2023-07-03T13:17:16Z</time>
      </trkpt>
      <trkpt lat="47.79286" lon="-3.85187">
        <ele>5.2</ele>
        <time>2023-07-03T13:17:20Z</time>
      </trkpt>
      <trkpt lat="47.79294" lon="-3.85218">
        <ele>6.8</ele>
        <time>2023-07-03T13:17:24Z</time>
      </trkpt>
      <trkpt lat="47.79309" lon="-3.85242">
        <ele>9.4</ele>
        <time>2023-07-03T13:17:28Z</time>
      </trkpt>
      <trkpt lat="47.79325" lon="-3.8526">
        <ele>6.8</ele>
        <time>2023-07-03T13:17:32Z</time>
      </trkpt>
      <trkpt lat="47.79335" lon="-3.85272">
        <ele>9.2</ele>
        <time>2023-07-03T13:17:36Z</time>
      </trkpt>
      <trkpt lat="47.79335" lon="-3.85272">
        <ele>10.6</ele>
        <time>2023-07-03T13:17:40Z</time>
      </trkpt>
      <trkpt lat="47.79337" lon="-3.85275">
        <ele>9.8</ele>
        <time>2023-07-03T13:17:44Z</time>
      </trkpt>
      <trkpt lat="47.79337" lon="-3.85275">
        <ele>9.4</ele>
        <time>2023-07-03T13:17:48Z</time>
      </trkpt>
      <trkpt lat="47.79337" lon="-3.85275">
        <ele>9.8</ele>
        <time>2023-07-03T13:17:52Z</time>
      </trkpt>
      <trkpt lat="47.79337" lon="-3.85275">
        <ele>9.4</ele>
        <time>2023-07-03T13:17:56Z</time>
      </trkpt>
      <trkpt lat="47.79337" lon="-3.85275">
        <ele>9.4</ele>
        <time>2023-07-03T13:18:00Z</time>
      </trkpt>
      <trkpt lat="47.79337" lon="-3.85275">
        <ele>9.8</ele>
        <time>2023-07-03T13:18:04Z</time>
      </trkpt>
      <trkpt lat="47.79337" lon="-3.85275">
        <ele>9.8</ele>
        <time>2023-07-03T13:18:08Z</time>
      </trkpt>
      <trkpt lat="47.79335" lon="-3.85275">
        <ele>10.2</ele>
        <time>2023-07-03T13:18:12Z</time>
      </trkpt>
      <trkpt lat="47.79335" lon="-3.85271">
        <ele>10</ele>
        <time>2023-07-03T13:18:16Z</time>
      </trkpt>
      <trkpt lat="47.7934" lon="-3.85264">
        <ele>8.8</ele>
        <time>2023-07-03T13:18:20Z</time>
      </trkpt>
      <trkpt lat="47.79354" lon="-3.85264">
        <ele>8.8</ele>
        <time>2023-07-03T13:18:24Z</time>
      </trkpt>
      <trkpt lat="47.79374" lon="-3.85263">
        <ele>8</ele>
        <time>2023-07-03T13:18:28Z</time>
      </trkpt>
      <trkpt lat="47.79394" lon="-3.85264">
        <ele>9.4</ele>
        <time>2023-07-03T13:18:32Z</time>
      </trkpt>
      <trkpt lat="47.79416" lon="-3.85264">
        <ele>6.8</ele>
        <time>2023-07-03T13:18:36Z</time>
      </trkpt>
      <trkpt lat="47.79439" lon="-3.85262">
        <ele>9.8</ele>
        <time>2023-07-03T13:18:40Z</time>
      </trkpt>
      <trkpt lat="47.79462" lon="-3.85257">
        <ele>9.8</ele>
        <time>2023-07-03T13:18:44Z</time>
      </trkpt>
      <trkpt lat="47.79484" lon="-3.85247">
        <ele>9.8</ele>
        <time>2023-07-03T13:18:48Z</time>
      </trkpt>
      <trkpt lat="47.79503" lon="-3.85227">
        <ele>11.8</ele>
        <time>2023-07-03T13:18:52Z</time>
      </trkpt>
      <trkpt lat="47.79518" lon="-3.85213">
        <ele>11</ele>
        <time>2023-07-03T13:18:56Z</time>
      </trkpt>
      <trkpt lat="47.79537" lon="-3.85205">
        <ele>12</ele>
        <time>2023-07-03T13:19:00Z</time>
      </trkpt>
      <trkpt lat="47.79554" lon="-3.85185">
        <ele>11.4</ele>
        <time>2023-07-03T13:19:04Z</time>
      </trkpt>
      <trkpt lat="47.79569" lon="-3.85164">
        <ele>10.6</ele>
        <time>2023-07-03T13:19:08Z</time>
      </trkpt>
      <trkpt lat="47.7958" lon="-3.85145">
        <ele>9.4</ele>
        <time>2023-07-03T13:19:12Z</time>
      </trkpt>
      <trkpt lat="47.79584" lon="-3.85127">
        <ele>7</ele>
        <time>2023-07-03T13:19:16Z</time>
      </trkpt>
      <trkpt lat="47.79587" lon="-3.85114">
        <ele>7.4</ele>
        <time>2023-07-03T13:19:20Z</time>
      </trkpt>
      <trkpt lat="47.79587" lon="-3.85114">
        <ele>7.6</ele>
        <time>2023-07-03T13:19:24Z</time>
      </trkpt>
      <trkpt lat="47.79587" lon="-3.85114">
        <ele>8</ele>
        <time>2023-07-03T13:19:28Z</time>
      </trkpt>
      <trkpt lat="47.79589" lon="-3.85111">
        <ele>8</ele>
        <time>2023-07-03T13:19:32Z</time>
      </trkpt>
      <trkpt lat="47.79585" lon="-3.851">
        <ele>7.2</ele>
        <time>2023-07-03T13:19:36Z</time>
      </trkpt>
      <trkpt lat="47.79584" lon="-3.85078">
        <ele>6.8</ele>
        <time>2023-07-03T13:19:40Z</time>
      </trkpt>
      <trkpt lat="47.79588" lon="-3.85053">
        <ele>8</ele>
        <time>2023-07-03T13:19:44Z</time>
      </trkpt>
      <trkpt lat="47.79604" lon="-3.85046">
        <ele>9.4</ele>
        <time>2023-07-03T13:19:48Z</time>
      </trkpt>
      <trkpt lat="47.7962" lon="-3.85051">
        <ele>9.8</ele>
        <time>2023-07-03T13:19:52Z</time>
      </trkpt>
      <trkpt lat="47.79637" lon="-3.85051">
        <ele>10.6</ele>
        <time>2023-07-03T13:19:56Z</time>
      </trkpt>
      <trkpt lat="47.79656" lon="-3.85046">
        <ele>10.6</ele>
        <time>2023-07-03T13:20:00Z</time>
      </trkpt>
      <trkpt lat="47.79675" lon="-3.85029">
        <ele>11.4</ele>
        <time>2023-07-03T13:20:04Z</time>
      </trkpt>
      <trkpt lat="47.79694" lon="-3.85005">
        <ele>11.4</ele>
        <time>2023-07-03T13:20:08Z</time>
      </trkpt>
      <trkpt lat="47.79713" lon="-3.8498">
        <ele>10.4</ele>
        <time>2023-07-03T13:20:12Z</time>
      </trkpt>
      <trkpt lat="47.79731" lon="-3.84958">
        <ele>13.2</ele>
        <time>2023-07-03T13:20:16Z</time>
      </trkpt>
      <trkpt lat="47.79746" lon="-3.84938">
        <ele>14.2</ele>
        <time>2023-07-03T13:20:20Z</time>
      </trkpt>
      <trkpt lat="47.79761" lon="-3.84919">
        <ele>14.6</ele>
        <time>2023-07-03T13:20:24Z</time>
      </trkpt>
      <trkpt lat="47.79777" lon="-3.849">
        <ele>16.4</ele>
        <time>2023-07-03T13:20:28Z</time>
      </trkpt>
      <trkpt lat="47.79793" lon="-3.84887">
        <ele>16.2</ele>
        <time>2023-07-03T13:20:32Z</time>
      </trkpt>
      <trkpt lat="47.79814" lon="-3.84891">
        <ele>15.2</ele>
        <time>2023-07-03T13:20:36Z</time>
      </trkpt>
      <trkpt lat="47.79839" lon="-3.84901">
        <ele>13.4</ele>
        <time>2023-07-03T13:20:40Z</time>
      </trkpt>
      <trkpt lat="47.7987" lon="-3.8491">
        <ele>9.2</ele>
        <time>2023-07-03T13:20:44Z</time>
      </trkpt>
      <trkpt lat="47.79903" lon="-3.84919">
        <ele>7</ele>
        <time>2023-07-03T13:20:48Z</time>
      </trkpt>
      <trkpt lat="47.79935" lon="-3.84929">
        <ele>6.2</ele>
        <time>2023-07-03T13:20:52Z</time>
      </trkpt>
      <trkpt lat="47.79964" lon="-3.84937">
        <ele>10</ele>
        <time>2023-07-03T13:20:56Z</time>
      </trkpt>
      <trkpt lat="47.79993" lon="-3.84946">
        <ele>10</ele>
        <time>2023-07-03T13:21:00Z</time>
      </trkpt>
      <trkpt lat="47.80023" lon="-3.84962">
        <ele>9</ele>
        <time>2023-07-03T13:21:04Z</time>
      </trkpt>
      <trkpt lat="47.80043" lon="-3.85003">
        <ele>2.6</ele>
        <time>2023-07-03T13:21:08Z</time>
      </trkpt>
      <trkpt lat="47.80068" lon="-3.85031">
        <ele>0.6</ele>
        <time>2023-07-03T13:21:12Z</time>
      </trkpt>
      <trkpt lat="47.80097" lon="-3.85037">
        <ele>2.8</ele>
        <time>2023-07-03T13:21:16Z</time>
      </trkpt>
      <trkpt lat="47.80124" lon="-3.85048">
        <ele>4.8</ele>
        <time>2023-07-03T13:21:20Z</time>
      </trkpt>
      <trkpt lat="47.80149" lon="-3.85059">
        <ele>4</ele>
        <time>2023-07-03T13:21:24Z</time>
      </trkpt>
      <trkpt lat="47.80172" lon="-3.8507">
        <ele>4.2</ele>
        <time>2023-07-03T13:21:28Z</time>
      </trkpt>
      <trkpt lat="47.80196" lon="-3.85083">
        <ele>3.6</ele>
        <time>2023-07-03T13:21:32Z</time>
      </trkpt>
      <trkpt lat="47.8022" lon="-3.85097">
        <ele>4.2</ele>
        <time>2023-07-03T13:21:36Z</time>
      </trkpt>
      <trkpt lat="47.80243" lon="-3.85112">
        <ele>4.6</ele>
        <time>2023-07-03T13:21:40Z</time>
      </trkpt>
      <trkpt lat="47.80266" lon="-3.85131">
        <ele>4</ele>
        <time>2023-07-03T13:21:44Z</time>
      </trkpt>
      <trkpt lat="47.80286" lon="-3.85152">
        <ele>4.4</ele>
        <time>2023-07-03T13:21:48Z</time>
      </trkpt>
      <trkpt lat="47.80303" lon="-3.85173">
        <ele>4.4</ele>
        <time>2023-07-03T13:21:52Z</time>
      </trkpt>
      <trkpt lat="47.80312" lon="-3.85187">
        <ele>5.8</ele>
        <time>2023-07-03T13:21:56Z</time>
      </trkpt>
      <trkpt lat="47.80315" lon="-3.85193">
        <ele>6</ele>
        <time>2023-07-03T13:22:00Z</time>
      </trkpt>
      <trkpt lat="47.80311" lon="-3.85185">
        <ele>7.2</ele>
        <time>2023-07-03T13:22:04Z</time>
      </trkpt>
      <trkpt lat="47.80315" lon="-3.85168">
        <ele>7.4</ele>
        <time>2023-07-03T13:22:08Z</time>
      </trkpt>
      <trkpt lat="47.80329" lon="-3.85147">
        <ele>6</ele>
        <time>2023-07-03T13:22:12Z</time>
      </trkpt>
      <trkpt lat="47.80346" lon="-3.85124">
        <ele>5.8</ele>
        <time>2023-07-03T13:22:16Z</time>
      </trkpt>
      <trkpt lat="47.80364" lon="-3.85101">
        <ele>4</ele>
        <time>2023-07-03T13:22:20Z</time>
      </trkpt>
      <trkpt lat="47.80381" lon="-3.85089">
        <ele>3.8</ele>
        <time>2023-07-03T13:22:24Z</time>
      </trkpt>
      <trkpt lat="47.80405" lon="-3.85083">
        <ele>4.6</ele>
        <time>2023-07-03T13:22:28Z</time>
      </trkpt>
      <trkpt lat="47.80426" lon="-3.85072">
        <ele>5.2</ele>
        <time>2023-07-03T13:22:32Z</time>
      </trkpt>
      <trkpt lat="47.80441" lon="-3.85058">
        <ele>5.2</ele>
        <time>2023-07-03T13:22:36Z</time>
      </trkpt>
      <trkpt lat="47.80461" lon="-3.85046">
        <ele>7</ele>
        <time>2023-07-03T13:22:40Z</time>
      </trkpt>
      <trkpt lat="47.80481" lon="-3.85032">
        <ele>7.2</ele>
        <time>2023-07-03T13:22:44Z</time>
      </trkpt>
      <trkpt lat="47.805" lon="-3.85019">
        <ele>6</ele>
        <time>2023-07-03T13:22:48Z</time>
      </trkpt>
      <trkpt lat="47.80522" lon="-3.85013">
        <ele>6</ele>
        <time>2023-07-03T13:22:52Z</time>
      </trkpt>
      <trkpt lat="47.80543" lon="-3.85014">
        <ele>6.8</ele>
        <time>2023-07-03T13:22:56Z</time>
      </trkpt>
      <trkpt lat="47.80563" lon="-3.85015">
        <ele>7.8</ele>
        <time>2023-07-03T13:23:00Z</time>
      </trkpt>
      <trkpt lat="47.80581" lon="-3.85019">
        <ele>9.6</ele>
        <time>2023-07-03T13:23:04Z</time>
      </trkpt>
      <trkpt lat="47.80598" lon="-3.85021">
        <ele>11.4</ele>
        <time>2023-07-03T13:23:08Z</time>
      </trkpt>
      <trkpt lat="47.80616" lon="-3.85021">
        <ele>11.6</ele>
        <time>2023-07-03T13:23:12Z</time>
      </trkpt>
      <trkpt lat="47.80634" lon="-3.85021">
        <ele>13.4</ele>
        <time>2023-07-03T13:23:16Z</time>
      </trkpt>
      <trkpt lat="47.80651" lon="-3.85014">
        <ele>13.6</ele>
        <time>2023-07-03T13:23:20Z</time>
      </trkpt>
      <trkpt lat="47.80666" lon="-3.85007">
        <ele>14.6</ele>
        <time>2023-07-03T13:23:24Z</time>
      </trkpt>
      <trkpt lat="47.80682" lon="-3.85003">
        <ele>15.6</ele>
        <time>2023-07-03T13:23:28Z</time>
      </trkpt>
      <trkpt lat="47.80697" lon="-3.8501">
        <ele>15.2</ele>
        <time>2023-07-03T13:23:32Z</time>
      </trkpt>
      <trkpt lat="47.80711" lon="-3.85021">
        <ele>16</ele>
        <time>2023-07-03T13:23:36Z</time>
      </trkpt>
      <trkpt lat="47.80713" lon="-3.85023">
        <ele>17</ele>
        <time>2023-07-03T13:23:40Z</time>
      </trkpt>
      <trkpt lat="47.80713" lon="-3.85023">
        <ele>16.8</ele>
        <time>2023-07-03T13:23:44Z</time>
      </trkpt>
      <trkpt lat="47.80713" lon="-3.85023">
        <ele>16.6</ele>
        <time>2023-07-03T13:23:48Z</time>
      </trkpt>
      <trkpt lat="47.80713" lon="-3.85023">
        <ele>17</ele>
        <time>2023-07-03T13:23:52Z</time>
      </trkpt>
      <trkpt lat="47.80713" lon="-3.85023">
        <ele>17.2</ele>
        <time>2023-07-03T13:23:56Z</time>
      </trkpt>
      <trkpt lat="47.80713" lon="-3.85023">
        <ele>17</ele>
        <time>2023-07-03T13:24:00Z</time>
      </trkpt>
      <trkpt lat="47.80713" lon="-3.85023">
        <ele>16.6</ele>
        <time>2023-07-03T13:24:04Z</time>
      </trkpt>
      <trkpt lat="47.80713" lon="-3.85023">
        <ele>16.6</ele>
        <time>2023-07-03T13:24:08Z</time>
      </trkpt>
      <trkpt lat="47.80712" lon="-3.85023">
        <ele>17</ele>
        <time>2023-07-03T13:24:12Z</time>
      </trkpt>
      <trkpt lat="47.80715" lon="-3.85026">
        <ele>16.2</ele>
        <time>2023-07-03T13:24:16Z</time>
      </trkpt>
      <trkpt lat="47.80725" lon="-3.85038">
        <ele>15.6</ele>
        <time>2023-07-03T13:24:20Z</time>
      </trkpt>
      <trkpt lat="47.80737" lon="-3.85057">
        <ele>14.6</ele>
        <time>2023-07-03T13:24:24Z</time>
      </trkpt>
      <trkpt lat="47.80748" lon="-3.85078">
        <ele>15.6</ele>
        <time>2023-07-03T13:24:28Z</time>
      </trkpt>
      <trkpt lat="47.8076" lon="-3.85098">
        <ele>14.2</ele>
        <time>2023-07-03T13:24:32Z</time>
      </trkpt>
      <trkpt lat="47.80774" lon="-3.85115">
        <ele>14.8</ele>
        <time>2023-07-03T13:24:36Z</time>
      </trkpt>
      <trkpt lat="47.80791" lon="-3.85107">
        <ele>15.2</ele>
        <time>2023-07-03T13:24:40Z</time>
      </trkpt>
      <trkpt lat="47.80802" lon="-3.85089">
        <ele>16.2</ele>
        <time>2023-07-03T13:24:44Z</time>
      </trkpt>
      <trkpt lat="47.80814" lon="-3.85077">
        <ele>16</ele>
        <time>2023-07-03T13:24:48Z</time>
      </trkpt>
      <trkpt lat="47.80821" lon="-3.85064">
        <ele>16.4</ele>
        <time>2023-07-03T13:24:52Z</time>
      </trkpt>
      <trkpt lat="47.80831" lon="-3.85042">
        <ele>16.4</ele>
        <time>2023-07-03T13:24:56Z</time>
      </trkpt>
      <trkpt lat="47.80839" lon="-3.85022">
        <ele>17.6</ele>
        <time>2023-07-03T13:25:00Z</time>
      </trkpt>
      <trkpt lat="47.80849" lon="-3.85003">
        <ele>19</ele>
        <time>2023-07-03T13:25:04Z</time>
      </trkpt>
      <trkpt lat="47.80856" lon="-3.84981">
        <ele>18.6</ele>
        <time>2023-07-03T13:25:08Z</time>
      </trkpt>
      <trkpt lat="47.80867" lon="-3.84958">
        <ele>19.4</ele>
        <time>2023-07-03T13:25:12Z</time>
      </trkpt>
      <trkpt lat="47.80867" lon="-3.84958">
        <ele>20</ele>
        <time>2023-07-03T13:25:16Z</time>
      </trkpt>
      <trkpt lat="47.80867" lon="-3.84958">
        <ele>20</ele>
        <time>2023-07-03T13:25:20Z</time>
      </trkpt>
      <trkpt lat="47.80867" lon="-3.84958">
        <ele>20.2</ele>
        <time>2023-07-03T13:25:24Z</time>
      </trkpt>
      <trkpt lat="47.80871" lon="-3.8495">
        <ele>18.8</ele>
        <time>2023-07-03T13:25:28Z</time>
      </trkpt>
      <trkpt lat="47.8087" lon="-3.84956">
        <ele>20</ele>
        <time>2023-07-03T13:25:32Z</time>
      </trkpt>
      <trkpt lat="47.8087" lon="-3.84956">
        <ele>19.8</ele>
        <time>2023-07-03T13:25:36Z</time>
      </trkpt>
      <trkpt lat="47.8087" lon="-3.84956">
        <ele>19.4</ele>
        <time>2023-07-03T13:25:40Z</time>
      </trkpt>
      <trkpt lat="47.80871" lon="-3.84955">
        <ele>20</ele>
        <time>2023-07-03T13:25:44Z</time>
      </trkpt>
      <trkpt lat="47.80873" lon="-3.84946">
        <ele>20</ele>
        <time>2023-07-03T13:25:48Z</time>
      </trkpt>
      <trkpt lat="47.80877" lon="-3.8493">
        <ele>20</ele>
        <time>2023-07-03T13:25:52Z</time>
      </trkpt>
      <trkpt lat="47.80884" lon="-3.84923">
        <ele>20.4</ele>
        <time>2023-07-03T13:25:56Z</time>
      </trkpt>
      <trkpt lat="47.809" lon="-3.84928">
        <ele>19.4</ele>
        <time>2023-07-03T13:26:00Z</time>
      </trkpt>
      <trkpt lat="47.80918" lon="-3.84935">
        <ele>19.8</ele>
        <time>2023-07-03T13:26:04Z</time>
      </trkpt>
      <trkpt lat="47.8094" lon="-3.84941">
        <ele>18.8</ele>
        <time>2023-07-03T13:26:08Z</time>
      </trkpt>
      <trkpt lat="47.80963" lon="-3.84944">
        <ele>19.2</ele>
        <time>2023-07-03T13:26:12Z</time>
      </trkpt>
      <trkpt lat="47.80984" lon="-3.84948">
        <ele>19.4</ele>
        <time>2023-07-03T13:26:16Z</time>
      </trkpt>
      <trkpt lat="47.81003" lon="-3.84958">
        <ele>18.8</ele>
        <time>2023-07-03T13:26:20Z</time>
      </trkpt>
      <trkpt lat="47.81019" lon="-3.84978">
        <ele>19.4</ele>
        <time>2023-07-03T13:26:24Z</time>
      </trkpt>
      <trkpt lat="47.81034" lon="-3.85002">
        <ele>20.4</ele>
        <time>2023-07-03T13:26:28Z</time>
      </trkpt>
      <trkpt lat="47.8105" lon="-3.85023">
        <ele>20.2</ele>
        <time>2023-07-03T13:26:32Z</time>
      </trkpt>
      <trkpt lat="47.81067" lon="-3.8504">
        <ele>20.2</ele>
        <time>2023-07-03T13:26:36Z</time>
      </trkpt>
      <trkpt lat="47.81082" lon="-3.85058">
        <ele>19.4</ele>
        <time>2023-07-03T13:26:40Z</time>
      </trkpt>
      <trkpt lat="47.81096" lon="-3.85074">
        <ele>20.2</ele>
        <time>2023-07-03T13:26:44Z</time>
      </trkpt>
      <trkpt lat="47.81112" lon="-3.85088">
        <ele>18.8</ele>
        <time>2023-07-03T13:26:48Z</time>
      </trkpt>
      <trkpt lat="47.8113" lon="-3.85104">
        <ele>17.2</ele>
        <time>2023-07-03T13:26:52Z</time>
      </trkpt>
      <trkpt lat="47.81161" lon="-3.85119">
        <ele>18.6</ele>
        <time>2023-07-03T13:26:56Z</time>
      </trkpt>
      <trkpt lat="47.8119" lon="-3.85119">
        <ele>18.8</ele>
        <time>2023-07-03T13:27:00Z</time>
      </trkpt>
      <trkpt lat="47.81213" lon="-3.85114">
        <ele>20</ele>
        <time>2023-07-03T13:27:04Z</time>
      </trkpt>
      <trkpt lat="47.81237" lon="-3.85103">
        <ele>19.4</ele>
        <time>2023-07-03T13:27:08Z</time>
      </trkpt>
      <trkpt lat="47.81262" lon="-3.851">
        <ele>21.2</ele>
        <time>2023-07-03T13:27:12Z</time>
      </trkpt>
      <trkpt lat="47.81283" lon="-3.85105">
        <ele>20.2</ele>
        <time>2023-07-03T13:27:16Z</time>
      </trkpt>
      <trkpt lat="47.81299" lon="-3.85117">
        <ele>18.8</ele>
        <time>2023-07-03T13:27:20Z</time>
      </trkpt>
      <trkpt lat="47.81317" lon="-3.85133">
        <ele>16.6</ele>
        <time>2023-07-03T13:27:24Z</time>
      </trkpt>
      <trkpt lat="47.81346" lon="-3.85151">
        <ele>18.4</ele>
        <time>2023-07-03T13:27:28Z</time>
      </trkpt>
      <trkpt lat="47.81375" lon="-3.85173">
        <ele>17.4</ele>
        <time>2023-07-03T13:27:32Z</time>
      </trkpt>
      <trkpt lat="47.81401" lon="-3.85192">
        <ele>18</ele>
        <time>2023-07-03T13:27:36Z</time>
      </trkpt>
      <trkpt lat="47.81427" lon="-3.8521">
        <ele>19.4</ele>
        <time>2023-07-03T13:27:40Z</time>
      </trkpt>
      <trkpt lat="47.81452" lon="-3.85227">
        <ele>20.2</ele>
        <time>2023-07-03T13:27:44Z</time>
      </trkpt>
      <trkpt lat="47.81475" lon="-3.85244">
        <ele>20</ele>
        <time>2023-07-03T13:27:48Z</time>
      </trkpt>
      <trkpt lat="47.815" lon="-3.85263">
        <ele>19.6</ele>
        <time>2023-07-03T13:27:52Z</time>
      </trkpt>
      <trkpt lat="47.81523" lon="-3.85281">
        <ele>20.4</ele>
        <time>2023-07-03T13:27:56Z</time>
      </trkpt>
      <trkpt lat="47.81546" lon="-3.85299">
        <ele>20.4</ele>
        <time>2023-07-03T13:28:00Z</time>
      </trkpt>
      <trkpt lat="47.81569" lon="-3.85316">
        <ele>20.4</ele>
        <time>2023-07-03T13:28:04Z</time>
      </trkpt>
      <trkpt lat="47.81595" lon="-3.85331">
        <ele>18.8</ele>
        <time>2023-07-03T13:28:08Z</time>
      </trkpt>
      <trkpt lat="47.81621" lon="-3.85347">
        <ele>17.8</ele>
        <time>2023-07-03T13:28:12Z</time>
      </trkpt>
      <trkpt lat="47.8165" lon="-3.85357">
        <ele>17.6</ele>
        <time>2023-07-03T13:28:16Z</time>
      </trkpt>
      <trkpt lat="47.81679" lon="-3.85348">
        <ele>18.6</ele>
        <time>2023-07-03T13:28:20Z</time>
      </trkpt>
      <trkpt lat="47.81699" lon="-3.8533">
        <ele>18.8</ele>
        <time>2023-07-03T13:28:24Z</time>
      </trkpt>
      <trkpt lat="47.81725" lon="-3.85322">
        <ele>19.8</ele>
        <time>2023-07-03T13:28:28Z</time>
      </trkpt>
      <trkpt lat="47.81745" lon="-3.85327">
        <ele>20</ele>
        <time>2023-07-03T13:28:32Z</time>
      </trkpt>
      <trkpt lat="47.81783" lon="-3.85345">
        <ele>18.6</ele>
        <time>2023-07-03T13:28:36Z</time>
      </trkpt>
      <trkpt lat="47.81797" lon="-3.85352">
        <ele>17.8</ele>
        <time>2023-07-03T13:28:40Z</time>
      </trkpt>
      <trkpt lat="47.81827" lon="-3.85363">
        <ele>17.6</ele>
        <time>2023-07-03T13:28:44Z</time>
      </trkpt>
      <trkpt lat="47.81854" lon="-3.85367">
        <ele>17.6</ele>
        <time>2023-07-03T13:28:48Z</time>
      </trkpt>
      <trkpt lat="47.81883" lon="-3.85374">
        <ele>19</ele>
        <time>2023-07-03T13:28:52Z</time>
      </trkpt>
      <trkpt lat="47.81907" lon="-3.85372">
        <ele>20.8</ele>
        <time>2023-07-03T13:28:56Z</time>
      </trkpt>
      <trkpt lat="47.8193" lon="-3.8537">
        <ele>20.4</ele>
        <time>2023-07-03T13:29:00Z</time>
      </trkpt>
      <trkpt lat="47.81949" lon="-3.85367">
        <ele>22.2</ele>
        <time>2023-07-03T13:29:04Z</time>
      </trkpt>
      <trkpt lat="47.81968" lon="-3.85361">
        <ele>23.2</ele>
        <time>2023-07-03T13:29:08Z</time>
      </trkpt>
      <trkpt lat="47.81988" lon="-3.85352">
        <ele>23.4</ele>
        <time>2023-07-03T13:29:12Z</time>
      </trkpt>
      <trkpt lat="47.82008" lon="-3.8534">
        <ele>23.2</ele>
        <time>2023-07-03T13:29:16Z</time>
      </trkpt>
      <trkpt lat="47.82031" lon="-3.85336">
        <ele>21</ele>
        <time>2023-07-03T13:29:20Z</time>
      </trkpt>
      <trkpt lat="47.82073" lon="-3.85357">
        <ele>18.2</ele>
        <time>2023-07-03T13:29:24Z</time>
      </trkpt>
      <trkpt lat="47.82089" lon="-3.85368">
        <ele>12.8</ele>
        <time>2023-07-03T13:29:28Z</time>
      </trkpt>
      <trkpt lat="47.82123" lon="-3.85397">
        <ele>12.6</ele>
        <time>2023-07-03T13:29:32Z</time>
      </trkpt>
      <trkpt lat="47.82161" lon="-3.85416">
        <ele>11.6</ele>
        <time>2023-07-03T13:29:36Z</time>
      </trkpt>
      <trkpt lat="47.82192" lon="-3.85448">
        <ele>8.2</ele>
        <time>2023-07-03T13:29:40Z</time>
      </trkpt>
      <trkpt lat="47.82217" lon="-3.8548">
        <ele>12</ele>
        <time>2023-07-03T13:29:44Z</time>
      </trkpt>
      <trkpt lat="47.82236" lon="-3.85501">
        <ele>14</ele>
        <time>2023-07-03T13:29:48Z</time>
      </trkpt>
      <trkpt lat="47.82251" lon="-3.85518">
        <ele>17</ele>
        <time>2023-07-03T13:29:52Z</time>
      </trkpt>
      <trkpt lat="47.82271" lon="-3.8554">
        <ele>18.6</ele>
        <time>2023-07-03T13:29:56Z</time>
      </trkpt>
      <trkpt lat="47.82291" lon="-3.8556">
        <ele>19.2</ele>
        <time>2023-07-03T13:30:00Z</time>
      </trkpt>
      <trkpt lat="47.82312" lon="-3.85581">
        <ele>19.4</ele>
        <time>2023-07-03T13:30:04Z</time>
      </trkpt>
      <trkpt lat="47.82336" lon="-3.85596">
        <ele>20.4</ele>
        <time>2023-07-03T13:30:08Z</time>
      </trkpt>
      <trkpt lat="47.82359" lon="-3.85611">
        <ele>20.2</ele>
        <time>2023-07-03T13:30:12Z</time>
      </trkpt>
      <trkpt lat="47.82382" lon="-3.85626">
        <ele>19.4</ele>
        <time>2023-07-03T13:30:16Z</time>
      </trkpt>
      <trkpt lat="47.82405" lon="-3.85641">
        <ele>19.4</ele>
        <time>2023-07-03T13:30:20Z</time>
      </trkpt>
      <trkpt lat="47.82429" lon="-3.85653">
        <ele>19.6</ele>
        <time>2023-07-03T13:30:24Z</time>
      </trkpt>
      <trkpt lat="47.82454" lon="-3.85656">
        <ele>20.6</ele>
        <time>2023-07-03T13:30:28Z</time>
      </trkpt>
      <trkpt lat="47.82481" lon="-3.85651">
        <ele>19.4</ele>
        <time>2023-07-03T13:30:32Z</time>
      </trkpt>
      <trkpt lat="47.8251" lon="-3.8565">
        <ele>16.6</ele>
        <time>2023-07-03T13:30:36Z</time>
      </trkpt>
      <trkpt lat="47.8254" lon="-3.85658">
        <ele>16.6</ele>
        <time>2023-07-03T13:30:40Z</time>
      </trkpt>
      <trkpt lat="47.8257" lon="-3.85668">
        <ele>13.2</ele>
        <time>2023-07-03T13:30:44Z</time>
      </trkpt>
      <trkpt lat="47.82603" lon="-3.85677">
        <ele>11.2</ele>
        <time>2023-07-03T13:30:48Z</time>
      </trkpt>
      <trkpt lat="47.8264" lon="-3.85676">
        <ele>8.8</ele>
        <time>2023-07-03T13:30:52Z</time>
      </trkpt>
      <trkpt lat="47.8267" lon="-3.85654">
        <ele>8.8</ele>
        <time>2023-07-03T13:30:56Z</time>
      </trkpt>
      <trkpt lat="47.82702" lon="-3.8565">
        <ele>8</ele>
        <time>2023-07-03T13:31:00Z</time>
      </trkpt>
      <trkpt lat="47.8273" lon="-3.85667">
        <ele>12.8</ele>
        <time>2023-07-03T13:31:04Z</time>
      </trkpt>
      <trkpt lat="47.82757" lon="-3.85683">
        <ele>13.8</ele>
        <time>2023-07-03T13:31:08Z</time>
      </trkpt>
      <trkpt lat="47.82779" lon="-3.85701">
        <ele>14</ele>
        <time>2023-07-03T13:31:12Z</time>
      </trkpt>
      <trkpt lat="47.82799" lon="-3.85721">
        <ele>14.8</ele>
        <time>2023-07-03T13:31:16Z</time>
      </trkpt>
      <trkpt lat="47.82817" lon="-3.85741">
        <ele>15</ele>
        <time>2023-07-03T13:31:20Z</time>
      </trkpt>
      <trkpt lat="47.82833" lon="-3.85758">
        <ele>16.8</ele>
        <time>2023-07-03T13:31:24Z</time>
      </trkpt>
      <trkpt lat="47.82849" lon="-3.85776">
        <ele>16.6</ele>
        <time>2023-07-03T13:31:28Z</time>
      </trkpt>
      <trkpt lat="47.82865" lon="-3.85792">
        <ele>18</ele>
        <time>2023-07-03T13:31:32Z</time>
      </trkpt>
      <trkpt lat="47.82884" lon="-3.85806">
        <ele>17.8</ele>
        <time>2023-07-03T13:31:36Z</time>
      </trkpt>
      <trkpt lat="47.82904" lon="-3.85811">
        <ele>17.8</ele>
        <time>2023-07-03T13:31:40Z</time>
      </trkpt>
      <trkpt lat="47.82925" lon="-3.85819">
        <ele>17</ele>
        <time>2023-07-03T13:31:44Z</time>
      </trkpt>
      <trkpt lat="47.82948" lon="-3.85828">
        <ele>15.2</ele>
        <time>2023-07-03T13:31:48Z</time>
      </trkpt>
      <trkpt lat="47.82969" lon="-3.85841">
        <ele>16.6</ele>
        <time>2023-07-03T13:31:52Z</time>
      </trkpt>
      <trkpt lat="47.82995" lon="-3.85854">
        <ele>17</ele>
        <time>2023-07-03T13:31:56Z</time>
      </trkpt>
      <trkpt lat="47.83019" lon="-3.85869">
        <ele>14.8</ele>
        <time>2023-07-03T13:32:00Z</time>
      </trkpt>
      <trkpt lat="47.83042" lon="-3.85892">
        <ele>10</ele>
        <time>2023-07-03T13:32:04Z</time>
      </trkpt>
      <trkpt lat="47.83062" lon="-3.85921">
        <ele>9.6</ele>
        <time>2023-07-03T13:32:08Z</time>
      </trkpt>
      <trkpt lat="47.83084" lon="-3.85956">
        <ele>13.8</ele>
        <time>2023-07-03T13:32:12Z</time>
      </trkpt>
      <trkpt lat="47.83109" lon="-3.85979">
        <ele>15.2</ele>
        <time>2023-07-03T13:32:16Z</time>
      </trkpt>
      <trkpt lat="47.83122" lon="-3.85988">
        <ele>17</ele>
        <time>2023-07-03T13:32:20Z</time>
      </trkpt>
      <trkpt lat="47.83129" lon="-3.85999">
        <ele>16.6</ele>
        <time>2023-07-03T13:32:24Z</time>
      </trkpt>
      <trkpt lat="47.83117" lon="-3.86012">
        <ele>15.6</ele>
        <time>2023-07-03T13:32:28Z</time>
      </trkpt>
      <trkpt lat="47.83096" lon="-3.86025">
        <ele>12.2</ele>
        <time>2023-07-03T13:32:32Z</time>
      </trkpt>
      <trkpt lat="47.83074" lon="-3.86038">
        <ele>12</ele>
        <time>2023-07-03T13:32:36Z</time>
      </trkpt>
      <trkpt lat="47.83051" lon="-3.86049">
        <ele>12.2</ele>
        <time>2023-07-03T13:32:40Z</time>
      </trkpt>
      <trkpt lat="47.83028" lon="-3.86058">
        <ele>12.2</ele>
        <time>2023-07-03T13:32:44Z</time>
      </trkpt>
      <trkpt lat="47.83004" lon="-3.86066">
        <ele>13.2</ele>
        <time>2023-07-03T13:32:48Z</time>
      </trkpt>
      <trkpt lat="47.82976" lon="-3.86074">
        <ele>10</ele>
        <time>2023-07-03T13:32:52Z</time>
      </trkpt>
      <trkpt lat="47.82947" lon="-3.86083">
        <ele>9.8</ele>
        <time>2023-07-03T13:32:56Z</time>
      </trkpt>
      <trkpt lat="47.82917" lon="-3.86091">
        <ele>9.4</ele>
        <time>2023-07-03T13:33:00Z</time>
      </trkpt>
      <trkpt lat="47.82891" lon="-3.86099">
        <ele>7.6</ele>
        <time>2023-07-03T13:33:04Z</time>
      </trkpt>
      <trkpt lat="47.82864" lon="-3.86108">
        <ele>9</ele>
        <time>2023-07-03T13:33:08Z</time>
      </trkpt>
      <trkpt lat="47.82841" lon="-3.86121">
        <ele>7.8</ele>
        <time>2023-07-03T13:33:12Z</time>
      </trkpt>
      <trkpt lat="47.82822" lon="-3.86142">
        <ele>10.6</ele>
        <time>2023-07-03T13:33:16Z</time>
      </trkpt>
      <trkpt lat="47.82809" lon="-3.86166">
        <ele>11.8</ele>
        <time>2023-07-03T13:33:20Z</time>
      </trkpt>
      <trkpt lat="47.82796" lon="-3.86192">
        <ele>14.2</ele>
        <time>2023-07-03T13:33:24Z</time>
      </trkpt>
      <trkpt lat="47.82785" lon="-3.86218">
        <ele>14.2</ele>
        <time>2023-07-03T13:33:28Z</time>
      </trkpt>
      <trkpt lat="47.82779" lon="-3.86242">
        <ele>15.6</ele>
        <time>2023-07-03T13:33:32Z</time>
      </trkpt>
      <trkpt lat="47.82771" lon="-3.86269">
        <ele>17</ele>
        <time>2023-07-03T13:33:36Z</time>
      </trkpt>
      <trkpt lat="47.82762" lon="-3.86294">
        <ele>17.2</ele>
        <time>2023-07-03T13:33:40Z</time>
      </trkpt>
      <trkpt lat="47.82753" lon="-3.86326">
        <ele>17.6</ele>
        <time>2023-07-03T13:33:44Z</time>
      </trkpt>
      <trkpt lat="47.82744" lon="-3.86356">
        <ele>16.4</ele>
        <time>2023-07-03T13:33:48Z</time>
      </trkpt>
      <trkpt lat="47.82737" lon="-3.86389">
        <ele>18.2</ele>
        <time>2023-07-03T13:33:52Z</time>
      </trkpt>
      <trkpt lat="47.82733" lon="-3.86422">
        <ele>16.6</ele>
        <time>2023-07-03T13:33:56Z</time>
      </trkpt>
      <trkpt lat="47.82727" lon="-3.8645">
        <ele>17</ele>
        <time>2023-07-03T13:34:00Z</time>
      </trkpt>
      <trkpt lat="47.82723" lon="-3.86479">
        <ele>19.2</ele>
        <time>2023-07-03T13:34:04Z</time>
      </trkpt>
      <trkpt lat="47.82719" lon="-3.8651">
        <ele>18</ele>
        <time>2023-07-03T13:34:08Z</time>
      </trkpt>
      <trkpt lat="47.82714" lon="-3.86541">
        <ele>20</ele>
        <time>2023-07-03T13:34:12Z</time>
      </trkpt>
      <trkpt lat="47.82709" lon="-3.86573">
        <ele>20</ele>
        <time>2023-07-03T13:34:16Z</time>
      </trkpt>
      <trkpt lat="47.82704" lon="-3.86605">
        <ele>21.2</ele>
        <time>2023-07-03T13:34:20Z</time>
      </trkpt>
      <trkpt lat="47.82699" lon="-3.86636">
        <ele>21.8</ele>
        <time>2023-07-03T13:34:24Z</time>
      </trkpt>
      <trkpt lat="47.82695" lon="-3.86665">
        <ele>22.4</ele>
        <time>2023-07-03T13:34:28Z</time>
      </trkpt>
      <trkpt lat="47.8269" lon="-3.86694">
        <ele>23</ele>
        <time>2023-07-03T13:34:32Z</time>
      </trkpt>
      <trkpt lat="47.82685" lon="-3.86725">
        <ele>24</ele>
        <time>2023-07-03T13:34:36Z</time>
      </trkpt>
      <trkpt lat="47.82678" lon="-3.86756">
        <ele>24</ele>
        <time>2023-07-03T13:34:40Z</time>
      </trkpt>
      <trkpt lat="47.82672" lon="-3.86789">
        <ele>23.2</ele>
        <time>2023-07-03T13:34:44Z</time>
      </trkpt>
      <trkpt lat="47.82665" lon="-3.86825">
        <ele>20</ele>
        <time>2023-07-03T13:34:48Z</time>
      </trkpt>
      <trkpt lat="47.82659" lon="-3.86857">
        <ele>19</ele>
        <time>2023-07-03T13:34:52Z</time>
      </trkpt>
      <trkpt lat="47.82649" lon="-3.86894">
        <ele>18.4</ele>
        <time>2023-07-03T13:34:56Z</time>
      </trkpt>
      <trkpt lat="47.82634" lon="-3.86932">
        <ele>18.4</ele>
        <time>2023-07-03T13:35:00Z</time>
      </trkpt>
      <trkpt lat="47.82615" lon="-3.86965">
        <ele>17.8</ele>
        <time>2023-07-03T13:35:04Z</time>
      </trkpt>
      <trkpt lat="47.82596" lon="-3.86997">
        <ele>16.6</ele>
        <time>2023-07-03T13:35:08Z</time>
      </trkpt>
      <trkpt lat="47.82575" lon="-3.87025">
        <ele>16.4</ele>
        <time>2023-07-03T13:35:12Z</time>
      </trkpt>
      <trkpt lat="47.82554" lon="-3.87051">
        <ele>16.2</ele>
        <time>2023-07-03T13:35:16Z</time>
      </trkpt>
      <trkpt lat="47.82534" lon="-3.87077">
        <ele>17</ele>
        <time>2023-07-03T13:35:20Z</time>
      </trkpt>
      <trkpt lat="47.82519" lon="-3.87101">
        <ele>17.8</ele>
        <time>2023-07-03T13:35:24Z</time>
      </trkpt>
      <trkpt lat="47.82502" lon="-3.87126">
        <ele>18.2</ele>
        <time>2023-07-03T13:35:28Z</time>
      </trkpt>
      <trkpt lat="47.82484" lon="-3.87154">
        <ele>16</ele>
        <time>2023-07-03T13:35:32Z</time>
      </trkpt>
      <trkpt lat="47.82467" lon="-3.87183">
        <ele>14.6</ele>
        <time>2023-07-03T13:35:36Z</time>
      </trkpt>
      <trkpt lat="47.82451" lon="-3.87211">
        <ele>12.6</ele>
        <time>2023-07-03T13:35:40Z</time>
      </trkpt>
      <trkpt lat="47.82435" lon="-3.87242">
        <ele>11.6</ele>
        <time>2023-07-03T13:35:44Z</time>
      </trkpt>
      <trkpt lat="47.82419" lon="-3.87276">
        <ele>11.6</ele>
        <time>2023-07-03T13:35:48Z</time>
      </trkpt>
      <trkpt lat="47.82405" lon="-3.87316">
        <ele>9.2</ele>
        <time>2023-07-03T13:35:52Z</time>
      </trkpt>
      <trkpt lat="47.82392" lon="-3.8736">
        <ele>8.4</ele>
        <time>2023-07-03T13:35:56Z</time>
      </trkpt>
      <trkpt lat="47.82385" lon="-3.87401">
        <ele>7.4</ele>
        <time>2023-07-03T13:36:00Z</time>
      </trkpt>
      <trkpt lat="47.82401" lon="-3.87414">
        <ele>10.8</ele>
        <time>2023-07-03T13:36:04Z</time>
      </trkpt>
      <trkpt lat="47.8242" lon="-3.8741">
        <ele>13.2</ele>
        <time>2023-07-03T13:36:08Z</time>
      </trkpt>
      <trkpt lat="47.82442" lon="-3.87414">
        <ele>12.8</ele>
        <time>2023-07-03T13:36:12Z</time>
      </trkpt>
      <trkpt lat="47.82464" lon="-3.87421">
        <ele>14.2</ele>
        <time>2023-07-03T13:36:16Z</time>
      </trkpt>
      <trkpt lat="47.82484" lon="-3.87433">
        <ele>13.6</ele>
        <time>2023-07-03T13:36:20Z</time>
      </trkpt>
      <trkpt lat="47.82504" lon="-3.87445">
        <ele>14.2</ele>
        <time>2023-07-03T13:36:24Z</time>
      </trkpt>
      <trkpt lat="47.82526" lon="-3.87458">
        <ele>16</ele>
        <time>2023-07-03T13:36:28Z</time>
      </trkpt>
      <trkpt lat="47.82546" lon="-3.87469">
        <ele>16.8</ele>
        <time>2023-07-03T13:36:32Z</time>
      </trkpt>
      <trkpt lat="47.82565" lon="-3.87483">
        <ele>17.6</ele>
        <time>2023-07-03T13:36:36Z</time>
      </trkpt>
      <trkpt lat="47.82582" lon="-3.87492">
        <ele>16.8</ele>
        <time>2023-07-03T13:36:40Z</time>
      </trkpt>
      <trkpt lat="47.826" lon="-3.87503">
        <ele>17</ele>
        <time>2023-07-03T13:36:44Z</time>
      </trkpt>
      <trkpt lat="47.82616" lon="-3.87509">
        <ele>17</ele>
        <time>2023-07-03T13:36:48Z</time>
      </trkpt>
      <trkpt lat="47.82634" lon="-3.87517">
        <ele>17.8</ele>
        <time>2023-07-03T13:36:52Z</time>
      </trkpt>
      <trkpt lat="47.82656" lon="-3.8753">
        <ele>17.2</ele>
        <time>2023-07-03T13:36:56Z</time>
      </trkpt>
      <trkpt lat="47.82677" lon="-3.87549">
        <ele>16.2</ele>
        <time>2023-07-03T13:37:00Z</time>
      </trkpt>
      <trkpt lat="47.82692" lon="-3.87564">
        <ele>15.4</ele>
        <time>2023-07-03T13:37:04Z</time>
      </trkpt>
      <trkpt lat="47.8271" lon="-3.87577">
        <ele>15.8</ele>
        <time>2023-07-03T13:37:08Z</time>
      </trkpt>
      <trkpt lat="47.82726" lon="-3.87586">
        <ele>15.2</ele>
        <time>2023-07-03T13:37:12Z</time>
      </trkpt>
      <trkpt lat="47.8275" lon="-3.876">
        <ele>15.4</ele>
        <time>2023-07-03T13:37:16Z</time>
      </trkpt>
      <trkpt lat="47.82784" lon="-3.87617">
        <ele>15.4</ele>
        <time>2023-07-03T13:37:20Z</time>
      </trkpt>
      <trkpt lat="47.82811" lon="-3.87631">
        <ele>13.8</ele>
        <time>2023-07-03T13:37:24Z</time>
      </trkpt>
      <trkpt lat="47.82841" lon="-3.87658">
        <ele>11.8</ele>
        <time>2023-07-03T13:37:28Z</time>
      </trkpt>
      <trkpt lat="47.82879" lon="-3.87687">
        <ele>8.8</ele>
        <time>2023-07-03T13:37:32Z</time>
      </trkpt>
      <trkpt lat="47.82913" lon="-3.87703">
        <ele>8</ele>
        <time>2023-07-03T13:37:36Z</time>
      </trkpt>
      <trkpt lat="47.82942" lon="-3.87711">
        <ele>9.6</ele>
        <time>2023-07-03T13:37:40Z</time>
      </trkpt>
      <trkpt lat="47.82965" lon="-3.87729">
        <ele>11.6</ele>
        <time>2023-07-03T13:37:44Z</time>
      </trkpt>
      <trkpt lat="47.82965" lon="-3.87764">
        <ele>8.8</ele>
        <time>2023-07-03T13:37:48Z</time>
      </trkpt>
      <trkpt lat="47.82967" lon="-3.878">
        <ele>7.4</ele>
        <time>2023-07-03T13:37:52Z</time>
      </trkpt>
      <trkpt lat="47.82979" lon="-3.87831">
        <ele>10.8</ele>
        <time>2023-07-03T13:37:56Z</time>
      </trkpt>
      <trkpt lat="47.82993" lon="-3.87858">
        <ele>13.8</ele>
        <time>2023-07-03T13:38:00Z</time>
      </trkpt>
      <trkpt lat="47.83006" lon="-3.87883">
        <ele>14</ele>
        <time>2023-07-03T13:38:04Z</time>
      </trkpt>
      <trkpt lat="47.8302" lon="-3.87908">
        <ele>13.4</ele>
        <time>2023-07-03T13:38:08Z</time>
      </trkpt>
      <trkpt lat="47.83033" lon="-3.87934">
        <ele>14.2</ele>
        <time>2023-07-03T13:38:12Z</time>
      </trkpt>
      <trkpt lat="47.83045" lon="-3.87958">
        <ele>14</ele>
        <time>2023-07-03T13:38:16Z</time>
      </trkpt>
      <trkpt lat="47.83057" lon="-3.87982">
        <ele>14.2</ele>
        <time>2023-07-03T13:38:20Z</time>
      </trkpt>
      <trkpt lat="47.8307" lon="-3.88007">
        <ele>15.2</ele>
        <time>2023-07-03T13:38:24Z</time>
      </trkpt>
      <trkpt lat="47.83083" lon="-3.88033">
        <ele>15.6</ele>
        <time>2023-07-03T13:38:28Z</time>
      </trkpt>
      <trkpt lat="47.83096" lon="-3.8806">
        <ele>14.6</ele>
        <time>2023-07-03T13:38:32Z</time>
      </trkpt>
      <trkpt lat="47.8311" lon="-3.88087">
        <ele>13.4</ele>
        <time>2023-07-03T13:38:36Z</time>
      </trkpt>
      <trkpt lat="47.83124" lon="-3.88115">
        <ele>13.2</ele>
        <time>2023-07-03T13:38:40Z</time>
      </trkpt>
      <trkpt lat="47.83135" lon="-3.88148">
        <ele>13.2</ele>
        <time>2023-07-03T13:38:44Z</time>
      </trkpt>
      <trkpt lat="47.83139" lon="-3.88186">
        <ele>9.4</ele>
        <time>2023-07-03T13:38:48Z</time>
      </trkpt>
      <trkpt lat="47.83134" lon="-3.88221">
        <ele>9.2</ele>
        <time>2023-07-03T13:38:52Z</time>
      </trkpt>
      <trkpt lat="47.83128" lon="-3.88252">
        <ele>10.2</ele>
        <time>2023-07-03T13:38:56Z</time>
      </trkpt>
      <trkpt lat="47.83118" lon="-3.88282">
        <ele>11.4</ele>
        <time>2023-07-03T13:39:00Z</time>
      </trkpt>
      <trkpt lat="47.83108" lon="-3.88313">
        <ele>10.2</ele>
        <time>2023-07-03T13:39:04Z</time>
      </trkpt>
      <trkpt lat="47.83098" lon="-3.88341">
        <ele>9</ele>
        <time>2023-07-03T13:39:08Z</time>
      </trkpt>
      <trkpt lat="47.83089" lon="-3.88368">
        <ele>11.2</ele>
        <time>2023-07-03T13:39:12Z</time>
      </trkpt>
      <trkpt lat="47.8308" lon="-3.88395">
        <ele>8.8</ele>
        <time>2023-07-03T13:39:16Z</time>
      </trkpt>
      <trkpt lat="47.8307" lon="-3.88423">
        <ele>12.8</ele>
        <time>2023-07-03T13:39:20Z</time>
      </trkpt>
      <trkpt lat="47.83059" lon="-3.88451">
        <ele>11.4</ele>
        <time>2023-07-03T13:39:24Z</time>
      </trkpt>
      <trkpt lat="47.83049" lon="-3.88479">
        <ele>14</ele>
        <time>2023-07-03T13:39:28Z</time>
      </trkpt>
      <trkpt lat="47.8304" lon="-3.88507">
        <ele>11.2</ele>
        <time>2023-07-03T13:39:32Z</time>
      </trkpt>
      <trkpt lat="47.8303" lon="-3.88535">
        <ele>11.2</ele>
        <time>2023-07-03T13:39:36Z</time>
      </trkpt>
      <trkpt lat="47.8302" lon="-3.88563">
        <ele>11.2</ele>
        <time>2023-07-03T13:39:40Z</time>
      </trkpt>
      <trkpt lat="47.8301" lon="-3.88592">
        <ele>11</ele>
        <time>2023-07-03T13:39:44Z</time>
      </trkpt>
      <trkpt lat="47.82999" lon="-3.88622">
        <ele>11.8</ele>
        <time>2023-07-03T13:39:48Z</time>
      </trkpt>
      <trkpt lat="47.82988" lon="-3.88653">
        <ele>10.6</ele>
        <time>2023-07-03T13:39:52Z</time>
      </trkpt>
      <trkpt lat="47.82977" lon="-3.88685">
        <ele>8.4</ele>
        <time>2023-07-03T13:39:56Z</time>
      </trkpt>
      <trkpt lat="47.82965" lon="-3.88717">
        <ele>6</ele>
        <time>2023-07-03T13:40:00Z</time>
      </trkpt>
      <trkpt lat="47.82954" lon="-3.88749">
        <ele>6</ele>
        <time>2023-07-03T13:40:04Z</time>
      </trkpt>
      <trkpt lat="47.82946" lon="-3.88783">
        <ele>3.4</ele>
        <time>2023-07-03T13:40:08Z</time>
      </trkpt>
      <trkpt lat="47.82959" lon="-3.88812">
        <ele>5</ele>
        <time>2023-07-03T13:40:12Z</time>
      </trkpt>
      <trkpt lat="47.82973" lon="-3.88841">
        <ele>5</ele>
        <time>2023-07-03T13:40:16Z</time>
      </trkpt>
      <trkpt lat="47.82986" lon="-3.88871">
        <ele>6.6</ele>
        <time>2023-07-03T13:40:20Z</time>
      </trkpt>
      <trkpt lat="47.82999" lon="-3.88899">
        <ele>4.2</ele>
        <time>2023-07-03T13:40:24Z</time>
      </trkpt>
      <trkpt lat="47.83011" lon="-3.88927">
        <ele>6.6</ele>
        <time>2023-07-03T13:40:28Z</time>
      </trkpt>
      <trkpt lat="47.83023" lon="-3.88954">
        <ele>7</ele>
        <time>2023-07-03T13:40:32Z</time>
      </trkpt>
      <trkpt lat="47.83035" lon="-3.88982">
        <ele>7.4</ele>
        <time>2023-07-03T13:40:36Z</time>
      </trkpt>
      <trkpt lat="47.83048" lon="-3.89012">
        <ele>6.2</ele>
        <time>2023-07-03T13:40:40Z</time>
      </trkpt>
      <trkpt lat="47.83061" lon="-3.89043">
        <ele>5.6</ele>
        <time>2023-07-03T13:40:44Z</time>
      </trkpt>
      <trkpt lat="47.83079" lon="-3.89071">
        <ele>5.2</ele>
        <time>2023-07-03T13:40:48Z</time>
      </trkpt>
      <trkpt lat="47.83104" lon="-3.89089">
        <ele>7</ele>
        <time>2023-07-03T13:40:52Z</time>
      </trkpt>
      <trkpt lat="47.83135" lon="-3.89092">
        <ele>5.6</ele>
        <time>2023-07-03T13:40:56Z</time>
      </trkpt>
      <trkpt lat="47.83165" lon="-3.89097">
        <ele>5.2</ele>
        <time>2023-07-03T13:41:00Z</time>
      </trkpt>
      <trkpt lat="47.83188" lon="-3.89118">
        <ele>4.4</ele>
        <time>2023-07-03T13:41:04Z</time>
      </trkpt>
      <trkpt lat="47.83208" lon="-3.89141">
        <ele>5.8</ele>
        <time>2023-07-03T13:41:08Z</time>
      </trkpt>
      <trkpt lat="47.83228" lon="-3.89163">
        <ele>5</ele>
        <time>2023-07-03T13:41:12Z</time>
      </trkpt>
      <trkpt lat="47.83246" lon="-3.89186">
        <ele>5</ele>
        <time>2023-07-03T13:41:16Z</time>
      </trkpt>
      <trkpt lat="47.83264" lon="-3.89209">
        <ele>7</ele>
        <time>2023-07-03T13:41:20Z</time>
      </trkpt>
      <trkpt lat="47.83283" lon="-3.8923">
        <ele>7</ele>
        <time>2023-07-03T13:41:24Z</time>
      </trkpt>
      <trkpt lat="47.83303" lon="-3.89248">
        <ele>7.6</ele>
        <time>2023-07-03T13:41:28Z</time>
      </trkpt>
      <trkpt lat="47.83329" lon="-3.89262">
        <ele>6.6</ele>
        <time>2023-07-03T13:41:32Z</time>
      </trkpt>
      <trkpt lat="47.83356" lon="-3.89275">
        <ele>6</ele>
        <time>2023-07-03T13:41:36Z</time>
      </trkpt>
      <trkpt lat="47.83381" lon="-3.89258">
        <ele>6.2</ele>
        <time>2023-07-03T13:41:40Z</time>
      </trkpt>
      <trkpt lat="47.83401" lon="-3.89231">
        <ele>6</ele>
        <time>2023-07-03T13:41:44Z</time>
      </trkpt>
      <trkpt lat="47.83426" lon="-3.89218">
        <ele>5.4</ele>
        <time>2023-07-03T13:41:48Z</time>
      </trkpt>
      <trkpt lat="47.83449" lon="-3.892">
        <ele>7.2</ele>
        <time>2023-07-03T13:41:52Z</time>
      </trkpt>
      <trkpt lat="47.8347" lon="-3.89177">
        <ele>7.8</ele>
        <time>2023-07-03T13:41:56Z</time>
      </trkpt>
      <trkpt lat="47.83491" lon="-3.89153">
        <ele>7.6</ele>
        <time>2023-07-03T13:42:00Z</time>
      </trkpt>
      <trkpt lat="47.8351" lon="-3.89131">
        <ele>7.6</ele>
        <time>2023-07-03T13:42:04Z</time>
      </trkpt>
      <trkpt lat="47.83527" lon="-3.89109">
        <ele>9.2</ele>
        <time>2023-07-03T13:42:08Z</time>
      </trkpt>
      <trkpt lat="47.83547" lon="-3.89085">
        <ele>10.2</ele>
        <time>2023-07-03T13:42:12Z</time>
      </trkpt>
      <trkpt lat="47.83568" lon="-3.89062">
        <ele>10.2</ele>
        <time>2023-07-03T13:42:16Z</time>
      </trkpt>
      <trkpt lat="47.83592" lon="-3.89038">
        <ele>9.2</ele>
        <time>2023-07-03T13:42:20Z</time>
      </trkpt>
      <trkpt lat="47.83613" lon="-3.89015">
        <ele>11</ele>
        <time>2023-07-03T13:42:24Z</time>
      </trkpt>
      <trkpt lat="47.83633" lon="-3.88994">
        <ele>12</ele>
        <time>2023-07-03T13:42:28Z</time>
      </trkpt>
      <trkpt lat="47.83648" lon="-3.89005">
        <ele>11</ele>
        <time>2023-07-03T13:42:32Z</time>
      </trkpt>
      <trkpt lat="47.8366" lon="-3.89034">
        <ele>11.6</ele>
        <time>2023-07-03T13:42:36Z</time>
      </trkpt>
      <trkpt lat="47.83675" lon="-3.89061">
        <ele>11.4</ele>
        <time>2023-07-03T13:42:40Z</time>
      </trkpt>
      <trkpt lat="47.8369" lon="-3.89089">
        <ele>11.2</ele>
        <time>2023-07-03T13:42:44Z</time>
      </trkpt>
      <trkpt lat="47.83706" lon="-3.89118">
        <ele>11.6</ele>
        <time>2023-07-03T13:42:48Z</time>
      </trkpt>
      <trkpt lat="47.83721" lon="-3.89147">
        <ele>11</ele>
        <time>2023-07-03T13:42:52Z</time>
      </trkpt>
      <trkpt lat="47.83736" lon="-3.89178">
        <ele>9.8</ele>
        <time>2023-07-03T13:42:56Z</time>
      </trkpt>
      <trkpt lat="47.83754" lon="-3.89208">
        <ele>10</ele>
        <time>2023-07-03T13:43:00Z</time>
      </trkpt>
      <trkpt lat="47.8377" lon="-3.8924">
        <ele>9.2</ele>
        <time>2023-07-03T13:43:04Z</time>
      </trkpt>
      <trkpt lat="47.8379" lon="-3.8927">
        <ele>8</ele>
        <time>2023-07-03T13:43:08Z</time>
      </trkpt>
      <trkpt lat="47.83809" lon="-3.893">
        <ele>6.8</ele>
        <time>2023-07-03T13:43:12Z</time>
      </trkpt>
      <trkpt lat="47.83831" lon="-3.89323">
        <ele>5.6</ele>
        <time>2023-07-03T13:43:16Z</time>
      </trkpt>
      <trkpt lat="47.83852" lon="-3.89343">
        <ele>8</ele>
        <time>2023-07-03T13:43:20Z</time>
      </trkpt>
      <trkpt lat="47.83871" lon="-3.89359">
        <ele>9.8</ele>
        <time>2023-07-03T13:43:24Z</time>
      </trkpt>
      <trkpt lat="47.83894" lon="-3.89375">
        <ele>9.4</ele>
        <time>2023-07-03T13:43:28Z</time>
      </trkpt>
      <trkpt lat="47.83918" lon="-3.89391">
        <ele>11.2</ele>
        <time>2023-07-03T13:43:32Z</time>
      </trkpt>
      <trkpt lat="47.83939" lon="-3.89403">
        <ele>10.2</ele>
        <time>2023-07-03T13:43:36Z</time>
      </trkpt>
      <trkpt lat="47.83961" lon="-3.89417">
        <ele>12</ele>
        <time>2023-07-03T13:43:40Z</time>
      </trkpt>
      <trkpt lat="47.83983" lon="-3.89432">
        <ele>11</ele>
        <time>2023-07-03T13:43:44Z</time>
      </trkpt>
      <trkpt lat="47.84006" lon="-3.89447">
        <ele>10.8</ele>
        <time>2023-07-03T13:43:48Z</time>
      </trkpt>
      <trkpt lat="47.84029" lon="-3.89461">
        <ele>9.8</ele>
        <time>2023-07-03T13:43:52Z</time>
      </trkpt>
      <trkpt lat="47.84054" lon="-3.89475">
        <ele>10.6</ele>
        <time>2023-07-03T13:43:56Z</time>
      </trkpt>
      <trkpt lat="47.8408" lon="-3.8947">
        <ele>8.8</ele>
        <time>2023-07-03T13:44:00Z</time>
      </trkpt>
      <trkpt lat="47.84096" lon="-3.89437">
        <ele>10.6</ele>
        <time>2023-07-03T13:44:04Z</time>
      </trkpt>
      <trkpt lat="47.84113" lon="-3.89402">
        <ele>10.8</ele>
        <time>2023-07-03T13:44:08Z</time>
      </trkpt>
      <trkpt lat="47.84131" lon="-3.89369">
        <ele>9.4</ele>
        <time>2023-07-03T13:44:12Z</time>
      </trkpt>
      <trkpt lat="47.84151" lon="-3.89336">
        <ele>8.6</ele>
        <time>2023-07-03T13:44:16Z</time>
      </trkpt>
      <trkpt lat="47.8417" lon="-3.89302">
        <ele>9.4</ele>
        <time>2023-07-03T13:44:20Z</time>
      </trkpt>
      <trkpt lat="47.84187" lon="-3.89269">
        <ele>10.2</ele>
        <time>2023-07-03T13:44:24Z</time>
      </trkpt>
      <trkpt lat="47.84204" lon="-3.89236">
        <ele>10.6</ele>
        <time>2023-07-03T13:44:28Z</time>
      </trkpt>
      <trkpt lat="47.84222" lon="-3.89206">
        <ele>10.8</ele>
        <time>2023-07-03T13:44:32Z</time>
      </trkpt>
      <trkpt lat="47.84241" lon="-3.89175">
        <ele>11.6</ele>
        <time>2023-07-03T13:44:36Z</time>
      </trkpt>
      <trkpt lat="47.8426" lon="-3.89142">
        <ele>10.6</ele>
        <time>2023-07-03T13:44:40Z</time>
      </trkpt>
      <trkpt lat="47.84279" lon="-3.8911">
        <ele>10.6</ele>
        <time>2023-07-03T13:44:44Z</time>
      </trkpt>
      <trkpt lat="47.84299" lon="-3.89078">
        <ele>9.2</ele>
        <time>2023-07-03T13:44:48Z</time>
      </trkpt>
      <trkpt lat="47.84319" lon="-3.89042">
        <ele>9.6</ele>
        <time>2023-07-03T13:44:52Z</time>
      </trkpt>
      <trkpt lat="47.84341" lon="-3.89009">
        <ele>9.2</ele>
        <time>2023-07-03T13:44:56Z</time>
      </trkpt>
      <trkpt lat="47.84359" lon="-3.88979">
        <ele>8.4</ele>
        <time>2023-07-03T13:45:00Z</time>
      </trkpt>
      <trkpt lat="47.84378" lon="-3.88947">
        <ele>8.6</ele>
        <time>2023-07-03T13:45:04Z</time>
      </trkpt>
      <trkpt lat="47.84396" lon="-3.88913">
        <ele>7.6</ele>
        <time>2023-07-03T13:45:08Z</time>
      </trkpt>
      <trkpt lat="47.84409" lon="-3.88875">
        <ele>8.8</ele>
        <time>2023-07-03T13:45:12Z</time>
      </trkpt>
      <trkpt lat="47.84422" lon="-3.88843">
        <ele>10</ele>
        <time>2023-07-03T13:45:16Z</time>
      </trkpt>
      <trkpt lat="47.84433" lon="-3.88811">
        <ele>10.8</ele>
        <time>2023-07-03T13:45:20Z</time>
      </trkpt>
      <trkpt lat="47.84443" lon="-3.88779">
        <ele>11</ele>
        <time>2023-07-03T13:45:24Z</time>
      </trkpt>
      <trkpt lat="47.84449" lon="-3.88745">
        <ele>11.8</ele>
        <time>2023-07-03T13:45:28Z</time>
      </trkpt>
      <trkpt lat="47.84456" lon="-3.8871">
        <ele>13</ele>
        <time>2023-07-03T13:45:32Z</time>
      </trkpt>
      <trkpt lat="47.84463" lon="-3.88676">
        <ele>14.2</ele>
        <time>2023-07-03T13:45:36Z</time>
      </trkpt>
      <trkpt lat="47.84469" lon="-3.8864">
        <ele>14.4</ele>
        <time>2023-07-03T13:45:40Z</time>
      </trkpt>
      <trkpt lat="47.84475" lon="-3.88603">
        <ele>14.4</ele>
        <time>2023-07-03T13:45:44Z</time>
      </trkpt>
      <trkpt lat="47.84481" lon="-3.88568">
        <ele>15.6</ele>
        <time>2023-07-03T13:45:48Z</time>
      </trkpt>
      <trkpt lat="47.84488" lon="-3.88536">
        <ele>16.4</ele>
        <time>2023-07-03T13:45:52Z</time>
      </trkpt>
      <trkpt lat="47.84494" lon="-3.88501">
        <ele>15.6</ele>
        <time>2023-07-03T13:45:56Z</time>
      </trkpt>
      <trkpt lat="47.84499" lon="-3.88468">
        <ele>17.4</ele>
        <time>2023-07-03T13:46:00Z</time>
      </trkpt>
      <trkpt lat="47.84506" lon="-3.88433">
        <ele>17.8</ele>
        <time>2023-07-03T13:46:04Z</time>
      </trkpt>
      <trkpt lat="47.84514" lon="-3.88398">
        <ele>17.8</ele>
        <time>2023-07-03T13:46:08Z</time>
      </trkpt>
      <trkpt lat="47.84522" lon="-3.88362">
        <ele>18.8</ele>
        <time>2023-07-03T13:46:12Z</time>
      </trkpt>
      <trkpt lat="47.84531" lon="-3.88326">
        <ele>18.6</ele>
        <time>2023-07-03T13:46:16Z</time>
      </trkpt>
      <trkpt lat="47.8454" lon="-3.8829">
        <ele>18.8</ele>
        <time>2023-07-03T13:46:20Z</time>
      </trkpt>
      <trkpt lat="47.84548" lon="-3.88255">
        <ele>19</ele>
        <time>2023-07-03T13:46:24Z</time>
      </trkpt>
      <trkpt lat="47.84555" lon="-3.88221">
        <ele>20</ele>
        <time>2023-07-03T13:46:28Z</time>
      </trkpt>
      <trkpt lat="47.84564" lon="-3.8819">
        <ele>19.2</ele>
        <time>2023-07-03T13:46:32Z</time>
      </trkpt>
      <trkpt lat="47.84583" lon="-3.88182">
        <ele>19.2</ele>
        <time>2023-07-03T13:46:36Z</time>
      </trkpt>
      <trkpt lat="47.84602" lon="-3.88197">
        <ele>18.2</ele>
        <time>2023-07-03T13:46:40Z</time>
      </trkpt>
      <trkpt lat="47.8462" lon="-3.88212">
        <ele>17</ele>
        <time>2023-07-03T13:46:44Z</time>
      </trkpt>
      <trkpt lat="47.84642" lon="-3.88219">
        <ele>18.6</ele>
        <time>2023-07-03T13:46:48Z</time>
      </trkpt>
      <trkpt lat="47.84664" lon="-3.88213">
        <ele>18.8</ele>
        <time>2023-07-03T13:46:52Z</time>
      </trkpt>
      <trkpt lat="47.84691" lon="-3.88205">
        <ele>16.6</ele>
        <time>2023-07-03T13:46:56Z</time>
      </trkpt>
      <trkpt lat="47.84727" lon="-3.88194">
        <ele>15.2</ele>
        <time>2023-07-03T13:47:00Z</time>
      </trkpt>
      <trkpt lat="47.84761" lon="-3.88186">
        <ele>11</ele>
        <time>2023-07-03T13:47:04Z</time>
      </trkpt>
      <trkpt lat="47.84799" lon="-3.88175">
        <ele>8.4</ele>
        <time>2023-07-03T13:47:08Z</time>
      </trkpt>
      <trkpt lat="47.84834" lon="-3.88161">
        <ele>6</ele>
        <time>2023-07-03T13:47:12Z</time>
      </trkpt>
      <trkpt lat="47.84866" lon="-3.88154">
        <ele>5</ele>
        <time>2023-07-03T13:47:16Z</time>
      </trkpt>
      <trkpt lat="47.84903" lon="-3.88152">
        <ele>2.4</ele>
        <time>2023-07-03T13:47:20Z</time>
      </trkpt>
      <trkpt lat="47.84935" lon="-3.88147">
        <ele>5.6</ele>
        <time>2023-07-03T13:47:24Z</time>
      </trkpt>
      <trkpt lat="47.84963" lon="-3.8814">
        <ele>6.6</ele>
        <time>2023-07-03T13:47:28Z</time>
      </trkpt>
      <trkpt lat="47.84987" lon="-3.88135">
        <ele>8.8</ele>
        <time>2023-07-03T13:47:32Z</time>
      </trkpt>
      <trkpt lat="47.85015" lon="-3.88133">
        <ele>9.8</ele>
        <time>2023-07-03T13:47:36Z</time>
      </trkpt>
      <trkpt lat="47.85041" lon="-3.88121">
        <ele>9.6</ele>
        <time>2023-07-03T13:47:40Z</time>
      </trkpt>
      <trkpt lat="47.85066" lon="-3.88108">
        <ele>11</ele>
        <time>2023-07-03T13:47:44Z</time>
      </trkpt>
      <trkpt lat="47.8509" lon="-3.88094">
        <ele>12.2</ele>
        <time>2023-07-03T13:47:48Z</time>
      </trkpt>
      <trkpt lat="47.85116" lon="-3.88079">
        <ele>12.2</ele>
        <time>2023-07-03T13:47:52Z</time>
      </trkpt>
      <trkpt lat="47.85137" lon="-3.88069">
        <ele>12.8</ele>
        <time>2023-07-03T13:47:56Z</time>
      </trkpt>
      <trkpt lat="47.85167" lon="-3.88053">
        <ele>13</ele>
        <time>2023-07-03T13:48:00Z</time>
      </trkpt>
      <trkpt lat="47.85191" lon="-3.88041">
        <ele>13.8</ele>
        <time>2023-07-03T13:48:04Z</time>
      </trkpt>
      <trkpt lat="47.85212" lon="-3.88033">
        <ele>14.6</ele>
        <time>2023-07-03T13:48:08Z</time>
      </trkpt>
      <trkpt lat="47.85231" lon="-3.88041">
        <ele>14.6</ele>
        <time>2023-07-03T13:48:12Z</time>
      </trkpt>
      <trkpt lat="47.85258" lon="-3.88047">
        <ele>13.2</ele>
        <time>2023-07-03T13:48:16Z</time>
      </trkpt>
      <trkpt lat="47.85283" lon="-3.88051">
        <ele>14.4</ele>
        <time>2023-07-03T13:48:20Z</time>
      </trkpt>
      <trkpt lat="47.85307" lon="-3.88057">
        <ele>14.2</ele>
        <time>2023-07-03T13:48:24Z</time>
      </trkpt>
      <trkpt lat="47.85329" lon="-3.88062">
        <ele>15.4</ele>
        <time>2023-07-03T13:48:28Z</time>
      </trkpt>
      <trkpt lat="47.85352" lon="-3.88067">
        <ele>17</ele>
        <time>2023-07-03T13:48:32Z</time>
      </trkpt>
      <trkpt lat="47.85374" lon="-3.88072">
        <ele>17</ele>
        <time>2023-07-03T13:48:36Z</time>
      </trkpt>
      <trkpt lat="47.85396" lon="-3.88077">
        <ele>17.8</ele>
        <time>2023-07-03T13:48:40Z</time>
      </trkpt>
      <trkpt lat="47.85417" lon="-3.88083">
        <ele>16.6</ele>
        <time>2023-07-03T13:48:44Z</time>
      </trkpt>
      <trkpt lat="47.85438" lon="-3.88087">
        <ele>19.6</ele>
        <time>2023-07-03T13:48:48Z</time>
      </trkpt>
      <trkpt lat="47.85461" lon="-3.88094">
        <ele>19.8</ele>
        <time>2023-07-03T13:48:52Z</time>
      </trkpt>
      <trkpt lat="47.85484" lon="-3.881">
        <ele>20.4</ele>
        <time>2023-07-03T13:48:56Z</time>
      </trkpt>
      <trkpt lat="47.85504" lon="-3.88104">
        <ele>21</ele>
        <time>2023-07-03T13:49:00Z</time>
      </trkpt>
      <trkpt lat="47.85517" lon="-3.8811">
        <ele>20</ele>
        <time>2023-07-03T13:49:04Z</time>
      </trkpt>
      <trkpt lat="47.85535" lon="-3.88117">
        <ele>18.8</ele>
        <time>2023-07-03T13:49:08Z</time>
      </trkpt>
      <trkpt lat="47.85571" lon="-3.88128">
        <ele>15.4</ele>
        <time>2023-07-03T13:49:12Z</time>
      </trkpt>
      <trkpt lat="47.85609" lon="-3.88121">
        <ele>9.4</ele>
        <time>2023-07-03T13:49:16Z</time>
      </trkpt>
      <trkpt lat="47.85626" lon="-3.88086">
        <ele>12.8</ele>
        <time>2023-07-03T13:49:20Z</time>
      </trkpt>
      <trkpt lat="47.85637" lon="-3.88043">
        <ele>12.8</ele>
        <time>2023-07-03T13:49:24Z</time>
      </trkpt>
      <trkpt lat="47.85636" lon="-3.87995">
        <ele>10.4</ele>
        <time>2023-07-03T13:49:28Z</time>
      </trkpt>
      <trkpt lat="47.85635" lon="-3.87947">
        <ele>10</ele>
        <time>2023-07-03T13:49:32Z</time>
      </trkpt>
      <trkpt lat="47.85634" lon="-3.87904">
        <ele>10.6</ele>
        <time>2023-07-03T13:49:36Z</time>
      </trkpt>
      <trkpt lat="47.85635" lon="-3.87865">
        <ele>12.2</ele>
        <time>2023-07-03T13:49:40Z</time>
      </trkpt>
      <trkpt lat="47.85635" lon="-3.87828">
        <ele>12.2</ele>
        <time>2023-07-03T13:49:44Z</time>
      </trkpt>
      <trkpt lat="47.85636" lon="-3.8779">
        <ele>12.2</ele>
        <time>2023-07-03T13:49:48Z</time>
      </trkpt>
      <trkpt lat="47.85637" lon="-3.87754">
        <ele>12</ele>
        <time>2023-07-03T13:49:52Z</time>
      </trkpt>
      <trkpt lat="47.85638" lon="-3.87721">
        <ele>11.6</ele>
        <time>2023-07-03T13:49:56Z</time>
      </trkpt>
      <trkpt lat="47.85638" lon="-3.87721">
        <ele>11.2</ele>
        <time>2023-07-03T13:50:00Z</time>
      </trkpt>
      <trkpt lat="47.85638" lon="-3.87721">
        <ele>12</ele>
        <time>2023-07-03T13:50:04Z</time>
      </trkpt>
      <trkpt lat="47.85641" lon="-3.8771">
        <ele>11.8</ele>
        <time>2023-07-03T13:50:08Z</time>
      </trkpt>
      <trkpt lat="47.85652" lon="-3.87704">
        <ele>11</ele>
        <time>2023-07-03T13:50:12Z</time>
      </trkpt>
      <trkpt lat="47.8567" lon="-3.87709">
        <ele>11</ele>
        <time>2023-07-03T13:50:16Z</time>
      </trkpt>
      <trkpt lat="47.85692" lon="-3.87714">
        <ele>10.6</ele>
        <time>2023-07-03T13:50:20Z</time>
      </trkpt>
      <trkpt lat="47.85714" lon="-3.87721">
        <ele>10.4</ele>
        <time>2023-07-03T13:50:24Z</time>
      </trkpt>
      <trkpt lat="47.85736" lon="-3.87728">
        <ele>10.2</ele>
        <time>2023-07-03T13:50:28Z</time>
      </trkpt>
      <trkpt lat="47.85757" lon="-3.87734">
        <ele>10.2</ele>
        <time>2023-07-03T13:50:32Z</time>
      </trkpt>
      <trkpt lat="47.85776" lon="-3.87739">
        <ele>11.4</ele>
        <time>2023-07-03T13:50:36Z</time>
      </trkpt>
      <trkpt lat="47.85793" lon="-3.87742">
        <ele>13.2</ele>
        <time>2023-07-03T13:50:40Z</time>
      </trkpt>
      <trkpt lat="47.85808" lon="-3.87728">
        <ele>13.6</ele>
        <time>2023-07-03T13:50:44Z</time>
      </trkpt>
      <trkpt lat="47.85817" lon="-3.87705">
        <ele>13.8</ele>
        <time>2023-07-03T13:50:48Z</time>
      </trkpt>
      <trkpt lat="47.85822" lon="-3.87675">
        <ele>14.8</ele>
        <time>2023-07-03T13:50:52Z</time>
      </trkpt>
      <trkpt lat="47.85827" lon="-3.87645">
        <ele>15.2</ele>
        <time>2023-07-03T13:50:56Z</time>
      </trkpt>
      <trkpt lat="47.85833" lon="-3.87612">
        <ele>16.6</ele>
        <time>2023-07-03T13:51:00Z</time>
      </trkpt>
      <trkpt lat="47.85838" lon="-3.8758">
        <ele>16.8</ele>
        <time>2023-07-03T13:51:04Z</time>
      </trkpt>
      <trkpt lat="47.85842" lon="-3.87548">
        <ele>17</ele>
        <time>2023-07-03T13:51:08Z</time>
      </trkpt>
      <trkpt lat="47.85848" lon="-3.87517">
        <ele>17.8</ele>
        <time>2023-07-03T13:51:12Z</time>
      </trkpt>
      <trkpt lat="47.85854" lon="-3.87489">
        <ele>18.8</ele>
        <time>2023-07-03T13:51:16Z</time>
      </trkpt>
      <trkpt lat="47.85859" lon="-3.87466">
        <ele>19</ele>
        <time>2023-07-03T13:51:20Z</time>
      </trkpt>
      <trkpt lat="47.85866" lon="-3.87441">
        <ele>18.4</ele>
        <time>2023-07-03T13:51:24Z</time>
      </trkpt>
      <trkpt lat="47.85869" lon="-3.87418">
        <ele>18.8</ele>
        <time>2023-07-03T13:51:28Z</time>
      </trkpt>
      <trkpt lat="47.85873" lon="-3.87413">
        <ele>18.2</ele>
        <time>2023-07-03T13:51:32Z</time>
      </trkpt>
      <trkpt lat="47.85881" lon="-3.87438">
        <ele>16</ele>
        <time>2023-07-03T13:51:36Z</time>
      </trkpt>
      <trkpt lat="47.85889" lon="-3.87465">
        <ele>16</ele>
        <time>2023-07-03T13:51:40Z</time>
      </trkpt>
      <trkpt lat="47.85898" lon="-3.87491">
        <ele>17.6</ele>
        <time>2023-07-03T13:51:44Z</time>
      </trkpt>
      <trkpt lat="47.85905" lon="-3.87513">
        <ele>19.6</ele>
        <time>2023-07-03T13:51:48Z</time>
      </trkpt>
      <trkpt lat="47.8591" lon="-3.87538">
        <ele>19.4</ele>
        <time>2023-07-03T13:51:52Z</time>
      </trkpt>
      <trkpt lat="47.85916" lon="-3.87559">
        <ele>19.4</ele>
        <time>2023-07-03T13:51:56Z</time>
      </trkpt>
      <trkpt lat="47.85921" lon="-3.8758">
        <ele>19.4</ele>
        <time>2023-07-03T13:52:00Z</time>
      </trkpt>
      <trkpt lat="47.85927" lon="-3.87602">
        <ele>18.4</ele>
        <time>2023-07-03T13:52:04Z</time>
      </trkpt>
      <trkpt lat="47.85934" lon="-3.87628">
        <ele>17.8</ele>
        <time>2023-07-03T13:52:08Z</time>
      </trkpt>
      <trkpt lat="47.85942" lon="-3.87654">
        <ele>19.6</ele>
        <time>2023-07-03T13:52:12Z</time>
      </trkpt>
      <trkpt lat="47.85949" lon="-3.87689">
        <ele>17.4</ele>
        <time>2023-07-03T13:52:16Z</time>
      </trkpt>
      <trkpt lat="47.85954" lon="-3.87731">
        <ele>12</ele>
        <time>2023-07-03T13:52:20Z</time>
      </trkpt>
      <trkpt lat="47.85973" lon="-3.87762">
        <ele>6.6</ele>
        <time>2023-07-03T13:52:24Z</time>
      </trkpt>
      <trkpt lat="47.86007" lon="-3.87797">
        <ele>5</ele>
        <time>2023-07-03T13:52:28Z</time>
      </trkpt>
      <trkpt lat="47.86028" lon="-3.87801">
        <ele>8.6</ele>
        <time>2023-07-03T13:52:32Z</time>
      </trkpt>
      <trkpt lat="47.86037" lon="-3.878">
        <ele>13.2</ele>
        <time>2023-07-03T13:52:36Z</time>
      </trkpt>
      <trkpt lat="47.86045" lon="-3.87797">
        <ele>14.8</ele>
        <time>2023-07-03T13:52:40Z</time>
      </trkpt>
      <trkpt lat="47.86056" lon="-3.87796">
        <ele>16.6</ele>
        <time>2023-07-03T13:52:44Z</time>
      </trkpt>
      <trkpt lat="47.86066" lon="-3.87795">
        <ele>17.6</ele>
        <time>2023-07-03T13:52:48Z</time>
      </trkpt>
      <trkpt lat="47.86077" lon="-3.87802">
        <ele>18.6</ele>
        <time>2023-07-03T13:52:52Z</time>
      </trkpt>
      <trkpt lat="47.86085" lon="-3.87813">
        <ele>19.2</ele>
        <time>2023-07-03T13:52:56Z</time>
      </trkpt>
      <trkpt lat="47.86093" lon="-3.8782">
        <ele>20.2</ele>
        <time>2023-07-03T13:53:00Z</time>
      </trkpt>
      <trkpt lat="47.86103" lon="-3.87832">
        <ele>21.2</ele>
        <time>2023-07-03T13:53:04Z</time>
      </trkpt>
      <trkpt lat="47.86117" lon="-3.87842">
        <ele>20.6</ele>
        <time>2023-07-03T13:53:08Z</time>
      </trkpt>
      <trkpt lat="47.86129" lon="-3.87851">
        <ele>21.2</ele>
        <time>2023-07-03T13:53:12Z</time>
      </trkpt>
      <trkpt lat="47.86144" lon="-3.87864">
        <ele>22.2</ele>
        <time>2023-07-03T13:53:16Z</time>
      </trkpt>
      <trkpt lat="47.86159" lon="-3.87881">
        <ele>21.2</ele>
        <time>2023-07-03T13:53:20Z</time>
      </trkpt>
      <trkpt lat="47.86172" lon="-3.87903">
        <ele>20</ele>
        <time>2023-07-03T13:53:24Z</time>
      </trkpt>
      <trkpt lat="47.8619" lon="-3.87924">
        <ele>18.6</ele>
        <time>2023-07-03T13:53:28Z</time>
      </trkpt>
      <trkpt lat="47.86207" lon="-3.87944">
        <ele>17.6</ele>
        <time>2023-07-03T13:53:32Z</time>
      </trkpt>
      <trkpt lat="47.86229" lon="-3.87968">
        <ele>17.6</ele>
        <time>2023-07-03T13:53:36Z</time>
      </trkpt>
      <trkpt lat="47.86258" lon="-3.8799">
        <ele>17.6</ele>
        <time>2023-07-03T13:53:40Z</time>
      </trkpt>
      <trkpt lat="47.86285" lon="-3.88015">
        <ele>16.4</ele>
        <time>2023-07-03T13:53:44Z</time>
      </trkpt>
      <trkpt lat="47.8631" lon="-3.88036">
        <ele>16.8</ele>
        <time>2023-07-03T13:53:48Z</time>
      </trkpt>
      <trkpt lat="47.86333" lon="-3.88056">
        <ele>17</ele>
        <time>2023-07-03T13:53:52Z</time>
      </trkpt>
      <trkpt lat="47.86354" lon="-3.88071">
        <ele>18.6</ele>
        <time>2023-07-03T13:53:56Z</time>
      </trkpt>
      <trkpt lat="47.86378" lon="-3.88088">
        <ele>18.8</ele>
        <time>2023-07-03T13:54:00Z</time>
      </trkpt>
      <trkpt lat="47.86398" lon="-3.88101">
        <ele>19.2</ele>
        <time>2023-07-03T13:54:04Z</time>
      </trkpt>
      <trkpt lat="47.8642" lon="-3.88115">
        <ele>21.6</ele>
        <time>2023-07-03T13:54:08Z</time>
      </trkpt>
      <trkpt lat="47.86444" lon="-3.88127">
        <ele>21.4</ele>
        <time>2023-07-03T13:54:12Z</time>
      </trkpt>
      <trkpt lat="47.86469" lon="-3.88133">
        <ele>20.4</ele>
        <time>2023-07-03T13:54:16Z</time>
      </trkpt>
      <trkpt lat="47.86489" lon="-3.88135">
        <ele>23.8</ele>
        <time>2023-07-03T13:54:20Z</time>
      </trkpt>
      <trkpt lat="47.86507" lon="-3.88139">
        <ele>24.4</ele>
        <time>2023-07-03T13:54:24Z</time>
      </trkpt>
      <trkpt lat="47.86522" lon="-3.88144">
        <ele>25.2</ele>
        <time>2023-07-03T13:54:28Z</time>
      </trkpt>
      <trkpt lat="47.86536" lon="-3.88148">
        <ele>25.4</ele>
        <time>2023-07-03T13:54:32Z</time>
      </trkpt>
      <trkpt lat="47.86553" lon="-3.88154">
        <ele>26.4</ele>
        <time>2023-07-03T13:54:36Z</time>
      </trkpt>
      <trkpt lat="47.86571" lon="-3.88161">
        <ele>25.8</ele>
        <time>2023-07-03T13:54:40Z</time>
      </trkpt>
      <trkpt lat="47.8659" lon="-3.8817">
        <ele>24.8</ele>
        <time>2023-07-03T13:54:44Z</time>
      </trkpt>
      <trkpt lat="47.86609" lon="-3.8818">
        <ele>24.4</ele>
        <time>2023-07-03T13:54:48Z</time>
      </trkpt>
      <trkpt lat="47.86627" lon="-3.88189">
        <ele>26.2</ele>
        <time>2023-07-03T13:54:52Z</time>
      </trkpt>
      <trkpt lat="47.86648" lon="-3.88199">
        <ele>26</ele>
        <time>2023-07-03T13:54:56Z</time>
      </trkpt>
      <trkpt lat="47.86672" lon="-3.88204">
        <ele>26.2</ele>
        <time>2023-07-03T13:55:00Z</time>
      </trkpt>
      <trkpt lat="47.86696" lon="-3.88203">
        <ele>26.6</ele>
        <time>2023-07-03T13:55:04Z</time>
      </trkpt>
      <trkpt lat="47.86718" lon="-3.88208">
        <ele>26.6</ele>
        <time>2023-07-03T13:55:08Z</time>
      </trkpt>
      <trkpt lat="47.8674" lon="-3.88216">
        <ele>25</ele>
        <time>2023-07-03T13:55:12Z</time>
      </trkpt>
      <trkpt lat="47.86761" lon="-3.88227">
        <ele>26.2</ele>
        <time>2023-07-03T13:55:16Z</time>
      </trkpt>
      <trkpt lat="47.8678" lon="-3.88238">
        <ele>24.8</ele>
        <time>2023-07-03T13:55:20Z</time>
      </trkpt>
      <trkpt lat="47.868" lon="-3.88248">
        <ele>29</ele>
        <time>2023-07-03T13:55:24Z</time>
      </trkpt>
      <trkpt lat="47.86817" lon="-3.8826">
        <ele>28.6</ele>
        <time>2023-07-03T13:55:28Z</time>
      </trkpt>
      <trkpt lat="47.86834" lon="-3.88271">
        <ele>30.2</ele>
        <time>2023-07-03T13:55:32Z</time>
      </trkpt>
      <trkpt lat="47.86853" lon="-3.8828">
        <ele>30.8</ele>
        <time>2023-07-03T13:55:36Z</time>
      </trkpt>
      <trkpt lat="47.8687" lon="-3.88291">
        <ele>31.6</ele>
        <time>2023-07-03T13:55:40Z</time>
      </trkpt>
      <trkpt lat="47.86892" lon="-3.88297">
        <ele>30.2</ele>
        <time>2023-07-03T13:55:44Z</time>
      </trkpt>
      <trkpt lat="47.86911" lon="-3.88306">
        <ele>31.6</ele>
        <time>2023-07-03T13:55:48Z</time>
      </trkpt>
      <trkpt lat="47.86922" lon="-3.88314">
        <ele>30.2</ele>
        <time>2023-07-03T13:55:52Z</time>
      </trkpt>
      <trkpt lat="47.86924" lon="-3.88338">
        <ele>29.6</ele>
        <time>2023-07-03T13:55:56Z</time>
      </trkpt>
      <trkpt lat="47.86931" lon="-3.88357">
        <ele>29.6</ele>
        <time>2023-07-03T13:56:00Z</time>
      </trkpt>
      <trkpt lat="47.86956" lon="-3.88348">
        <ele>29</ele>
        <time>2023-07-03T13:56:04Z</time>
      </trkpt>
      <trkpt lat="47.86981" lon="-3.88338">
        <ele>28.6</ele>
        <time>2023-07-03T13:56:08Z</time>
      </trkpt>
      <trkpt lat="47.87007" lon="-3.88328">
        <ele>29.4</ele>
        <time>2023-07-03T13:56:12Z</time>
      </trkpt>
      <trkpt lat="47.87031" lon="-3.88326">
        <ele>27.4</ele>
        <time>2023-07-03T13:56:16Z</time>
      </trkpt>
      <trkpt lat="47.87058" lon="-3.8833">
        <ele>29</ele>
        <time>2023-07-03T13:56:20Z</time>
      </trkpt>
      <trkpt lat="47.87085" lon="-3.88336">
        <ele>28.6</ele>
        <time>2023-07-03T13:56:24Z</time>
      </trkpt>
      <trkpt lat="47.87113" lon="-3.88343">
        <ele>25</ele>
        <time>2023-07-03T13:56:28Z</time>
      </trkpt>
      <trkpt lat="47.8714" lon="-3.88353">
        <ele>27</ele>
        <time>2023-07-03T13:56:32Z</time>
      </trkpt>
      <trkpt lat="47.87166" lon="-3.8837">
        <ele>23.4</ele>
        <time>2023-07-03T13:56:36Z</time>
      </trkpt>
      <trkpt lat="47.8719" lon="-3.88395">
        <ele>24</ele>
        <time>2023-07-03T13:56:40Z</time>
      </trkpt>
      <trkpt lat="47.87211" lon="-3.88424">
        <ele>23</ele>
        <time>2023-07-03T13:56:44Z</time>
      </trkpt>
      <trkpt lat="47.87227" lon="-3.88458">
        <ele>22</ele>
        <time>2023-07-03T13:56:48Z</time>
      </trkpt>
      <trkpt lat="47.8724" lon="-3.88493">
        <ele>21.4</ele>
        <time>2023-07-03T13:56:52Z</time>
      </trkpt>
      <trkpt lat="47.87249" lon="-3.88528">
        <ele>24.6</ele>
        <time>2023-07-03T13:56:56Z</time>
      </trkpt>
      <trkpt lat="47.87257" lon="-3.88563">
        <ele>23.4</ele>
        <time>2023-07-03T13:57:00Z</time>
      </trkpt>
      <trkpt lat="47.87265" lon="-3.88592">
        <ele>22.4</ele>
        <time>2023-07-03T13:57:04Z</time>
      </trkpt>
      <trkpt lat="47.87272" lon="-3.88624">
        <ele>24</ele>
        <time>2023-07-03T13:57:08Z</time>
      </trkpt>
      <trkpt lat="47.87277" lon="-3.8866">
        <ele>26.6</ele>
        <time>2023-07-03T13:57:12Z</time>
      </trkpt>
      <trkpt lat="47.87283" lon="-3.88696">
        <ele>24.4</ele>
        <time>2023-07-03T13:57:16Z</time>
      </trkpt>
      <trkpt lat="47.87289" lon="-3.88732">
        <ele>24.4</ele>
        <time>2023-07-03T13:57:20Z</time>
      </trkpt>
      <trkpt lat="47.87294" lon="-3.88767">
        <ele>26</ele>
        <time>2023-07-03T13:57:24Z</time>
      </trkpt>
      <trkpt lat="47.87301" lon="-3.888">
        <ele>25</ele>
        <time>2023-07-03T13:57:28Z</time>
      </trkpt>
      <trkpt lat="47.87307" lon="-3.88833">
        <ele>24</ele>
        <time>2023-07-03T13:57:32Z</time>
      </trkpt>
      <trkpt lat="47.87313" lon="-3.88865">
        <ele>23.6</ele>
        <time>2023-07-03T13:57:36Z</time>
      </trkpt>
      <trkpt lat="47.8732" lon="-3.88896">
        <ele>23.8</ele>
        <time>2023-07-03T13:57:40Z</time>
      </trkpt>
      <trkpt lat="47.87325" lon="-3.88929">
        <ele>25.8</ele>
        <time>2023-07-03T13:57:44Z</time>
      </trkpt>
      <trkpt lat="47.87332" lon="-3.8896">
        <ele>24.8</ele>
        <time>2023-07-03T13:57:48Z</time>
      </trkpt>
      <trkpt lat="47.8734" lon="-3.8899">
        <ele>29</ele>
        <time>2023-07-03T13:57:52Z</time>
      </trkpt>
      <trkpt lat="47.87358" lon="-3.89008">
        <ele>29.4</ele>
        <time>2023-07-03T13:57:56Z</time>
      </trkpt>
      <trkpt lat="47.87372" lon="-3.89025">
        <ele>31</ele>
        <time>2023-07-03T13:58:00Z</time>
      </trkpt>
      <trkpt lat="47.87383" lon="-3.89047">
        <ele>32.2</ele>
        <time>2023-07-03T13:58:04Z</time>
      </trkpt>
      <trkpt lat="47.87398" lon="-3.89063">
        <ele>34</ele>
        <time>2023-07-03T13:58:08Z</time>
      </trkpt>
      <trkpt lat="47.87415" lon="-3.89079">
        <ele>34</ele>
        <time>2023-07-03T13:58:12Z</time>
      </trkpt>
      <trkpt lat="47.87429" lon="-3.89093">
        <ele>35</ele>
        <time>2023-07-03T13:58:16Z</time>
      </trkpt>
      <trkpt lat="47.87443" lon="-3.89101">
        <ele>37</ele>
        <time>2023-07-03T13:58:20Z</time>
      </trkpt>
      <trkpt lat="47.87457" lon="-3.8911">
        <ele>37.8</ele>
        <time>2023-07-03T13:58:24Z</time>
      </trkpt>
      <trkpt lat="47.87472" lon="-3.8912">
        <ele>39.4</ele>
        <time>2023-07-03T13:58:28Z</time>
      </trkpt>
      <trkpt lat="47.87487" lon="-3.89128">
        <ele>39</ele>
        <time>2023-07-03T13:58:32Z</time>
      </trkpt>
      <trkpt lat="47.87505" lon="-3.89136">
        <ele>39.4</ele>
        <time>2023-07-03T13:58:36Z</time>
      </trkpt>
      <trkpt lat="47.87523" lon="-3.89142">
        <ele>40.2</ele>
        <time>2023-07-03T13:58:40Z</time>
      </trkpt>
      <trkpt lat="47.87541" lon="-3.89146">
        <ele>40.6</ele>
        <time>2023-07-03T13:58:44Z</time>
      </trkpt>
      <trkpt lat="47.87557" lon="-3.89152">
        <ele>41.4</ele>
        <time>2023-07-03T13:58:48Z</time>
      </trkpt>
      <trkpt lat="47.87568" lon="-3.8916">
        <ele>40.8</ele>
        <time>2023-07-03T13:58:52Z</time>
      </trkpt>
      <trkpt lat="47.87579" lon="-3.89154">
        <ele>42.2</ele>
        <time>2023-07-03T13:58:56Z</time>
      </trkpt>
      <trkpt lat="47.87587" lon="-3.89134">
        <ele>42</ele>
        <time>2023-07-03T13:59:00Z</time>
      </trkpt>
      <trkpt lat="47.87597" lon="-3.89111">
        <ele>42.2</ele>
        <time>2023-07-03T13:59:04Z</time>
      </trkpt>
      <trkpt lat="47.87606" lon="-3.89085">
        <ele>43</ele>
        <time>2023-07-03T13:59:08Z</time>
      </trkpt>
      <trkpt lat="47.87613" lon="-3.89061">
        <ele>43.4</ele>
        <time>2023-07-03T13:59:12Z</time>
      </trkpt>
      <trkpt lat="47.87626" lon="-3.89038">
        <ele>44.8</ele>
        <time>2023-07-03T13:59:16Z</time>
      </trkpt>
      <trkpt lat="47.87643" lon="-3.89019">
        <ele>44.4</ele>
        <time>2023-07-03T13:59:20Z</time>
      </trkpt>
      <trkpt lat="47.87662" lon="-3.89005">
        <ele>45.2</ele>
        <time>2023-07-03T13:59:24Z</time>
      </trkpt>
      <trkpt lat="47.87682" lon="-3.88996">
        <ele>45.2</ele>
        <time>2023-07-03T13:59:28Z</time>
      </trkpt>
      <trkpt lat="47.87702" lon="-3.88988">
        <ele>46.4</ele>
        <time>2023-07-03T13:59:32Z</time>
      </trkpt>
      <trkpt lat="47.87719" lon="-3.8898">
        <ele>47.2</ele>
        <time>2023-07-03T13:59:36Z</time>
      </trkpt>
      <trkpt lat="47.87737" lon="-3.88972">
        <ele>49</ele>
        <time>2023-07-03T13:59:40Z</time>
      </trkpt>
      <trkpt lat="47.87755" lon="-3.88965">
        <ele>49.6</ele>
        <time>2023-07-03T13:59:44Z</time>
      </trkpt>
      <trkpt lat="47.87772" lon="-3.88957">
        <ele>50</ele>
        <time>2023-07-03T13:59:48Z</time>
      </trkpt>
      <trkpt lat="47.87788" lon="-3.8895">
        <ele>51.6</ele>
        <time>2023-07-03T13:59:52Z</time>
      </trkpt>
      <trkpt lat="47.87803" lon="-3.88939">
        <ele>51.6</ele>
        <time>2023-07-03T13:59:56Z</time>
      </trkpt>
      <trkpt lat="47.87819" lon="-3.88922">
        <ele>51.2</ele>
        <time>2023-07-03T14:00:00Z</time>
      </trkpt>
      <trkpt lat="47.87833" lon="-3.88904">
        <ele>51</ele>
        <time>2023-07-03T14:00:04Z</time>
      </trkpt>
      <trkpt lat="47.87848" lon="-3.88885">
        <ele>51</ele>
        <time>2023-07-03T14:00:08Z</time>
      </trkpt>
      <trkpt lat="47.87866" lon="-3.88862">
        <ele>51.8</ele>
        <time>2023-07-03T14:00:12Z</time>
      </trkpt>
      <trkpt lat="47.87887" lon="-3.88835">
        <ele>49.8</ele>
        <time>2023-07-03T14:00:16Z</time>
      </trkpt>
      <trkpt lat="47.87907" lon="-3.88804">
        <ele>48.6</ele>
        <time>2023-07-03T14:00:20Z</time>
      </trkpt>
      <trkpt lat="47.8793" lon="-3.88769">
        <ele>47</ele>
        <time>2023-07-03T14:00:24Z</time>
      </trkpt>
      <trkpt lat="47.87954" lon="-3.88739">
        <ele>43.8</ele>
        <time>2023-07-03T14:00:28Z</time>
      </trkpt>
      <trkpt lat="47.87983" lon="-3.88733">
        <ele>42.8</ele>
        <time>2023-07-03T14:00:32Z</time>
      </trkpt>
      <trkpt lat="47.88015" lon="-3.88732">
        <ele>40.6</ele>
        <time>2023-07-03T14:00:36Z</time>
      </trkpt>
      <trkpt lat="47.8805" lon="-3.88708">
        <ele>36.6</ele>
        <time>2023-07-03T14:00:40Z</time>
      </trkpt>
      <trkpt lat="47.8808" lon="-3.88665">
        <ele>35</ele>
        <time>2023-07-03T14:00:44Z</time>
      </trkpt>
      <trkpt lat="47.88098" lon="-3.88612">
        <ele>32.2</ele>
        <time>2023-07-03T14:00:48Z</time>
      </trkpt>
      <trkpt lat="47.88104" lon="-3.88554">
        <ele>30.4</ele>
        <time>2023-07-03T14:00:52Z</time>
      </trkpt>
      <trkpt lat="47.88109" lon="-3.88496">
        <ele>28.4</ele>
        <time>2023-07-03T14:00:56Z</time>
      </trkpt>
      <trkpt lat="47.88102" lon="-3.88431">
        <ele>26.4</ele>
        <time>2023-07-03T14:01:00Z</time>
      </trkpt>
      <trkpt lat="47.88098" lon="-3.8837">
        <ele>24</ele>
        <time>2023-07-03T14:01:04Z</time>
      </trkpt>
      <trkpt lat="47.88121" lon="-3.88317">
        <ele>19.4</ele>
        <time>2023-07-03T14:01:08Z</time>
      </trkpt>
      <trkpt lat="47.88148" lon="-3.88252">
        <ele>16.8</ele>
        <time>2023-07-03T14:01:12Z</time>
      </trkpt>
      <trkpt lat="47.88168" lon="-3.88179">
        <ele>16.8</ele>
        <time>2023-07-03T14:01:16Z</time>
      </trkpt>
      <trkpt lat="47.88177" lon="-3.88105">
        <ele>15</ele>
        <time>2023-07-03T14:01:20Z</time>
      </trkpt>
      <trkpt lat="47.88194" lon="-3.88051">
        <ele>14.2</ele>
        <time>2023-07-03T14:01:24Z</time>
      </trkpt>
      <trkpt lat="47.8821" lon="-3.88001">
        <ele>15.6</ele>
        <time>2023-07-03T14:01:28Z</time>
      </trkpt>
      <trkpt lat="47.88216" lon="-3.8795">
        <ele>15.6</ele>
        <time>2023-07-03T14:01:32Z</time>
      </trkpt>
      <trkpt lat="47.88223" lon="-3.87907">
        <ele>17.4</ele>
        <time>2023-07-03T14:01:36Z</time>
      </trkpt>
      <trkpt lat="47.88231" lon="-3.87863">
        <ele>17.2</ele>
        <time>2023-07-03T14:01:40Z</time>
      </trkpt>
      <trkpt lat="47.88236" lon="-3.87818">
        <ele>16.6</ele>
        <time>2023-07-03T14:01:44Z</time>
      </trkpt>
      <trkpt lat="47.88238" lon="-3.87777">
        <ele>15.4</ele>
        <time>2023-07-03T14:01:48Z</time>
      </trkpt>
      <trkpt lat="47.88254" lon="-3.87733">
        <ele>14.6</ele>
        <time>2023-07-03T14:01:52Z</time>
      </trkpt>
      <trkpt lat="47.88273" lon="-3.87694">
        <ele>15.4</ele>
        <time>2023-07-03T14:01:56Z</time>
      </trkpt>
      <trkpt lat="47.8829" lon="-3.87656">
        <ele>14.6</ele>
        <time>2023-07-03T14:02:00Z</time>
      </trkpt>
      <trkpt lat="47.88307" lon="-3.87622">
        <ele>15</ele>
        <time>2023-07-03T14:02:04Z</time>
      </trkpt>
      <trkpt lat="47.88325" lon="-3.8759">
        <ele>15.2</ele>
        <time>2023-07-03T14:02:08Z</time>
      </trkpt>
      <trkpt lat="47.88347" lon="-3.87562">
        <ele>15.8</ele>
        <time>2023-07-03T14:02:12Z</time>
      </trkpt>
      <trkpt lat="47.88372" lon="-3.87544">
        <ele>16.2</ele>
        <time>2023-07-03T14:02:16Z</time>
      </trkpt>
      <trkpt lat="47.88391" lon="-3.87558">
        <ele>14.6</ele>
        <time>2023-07-03T14:02:20Z</time>
      </trkpt>
      <trkpt lat="47.88402" lon="-3.87589">
        <ele>12.4</ele>
        <time>2023-07-03T14:02:24Z</time>
      </trkpt>
      <trkpt lat="47.8842" lon="-3.8761">
        <ele>12.8</ele>
        <time>2023-07-03T14:02:28Z</time>
      </trkpt>
      <trkpt lat="47.88438" lon="-3.87635">
        <ele>12.4</ele>
        <time>2023-07-03T14:02:32Z</time>
      </trkpt>
      <trkpt lat="47.88461" lon="-3.87661">
        <ele>13.4</ele>
        <time>2023-07-03T14:02:36Z</time>
      </trkpt>
      <trkpt lat="47.88483" lon="-3.87669">
        <ele>15.4</ele>
        <time>2023-07-03T14:02:40Z</time>
      </trkpt>
      <trkpt lat="47.88496" lon="-3.87679">
        <ele>17.4</ele>
        <time>2023-07-03T14:02:44Z</time>
      </trkpt>
      <trkpt lat="47.88501" lon="-3.87696">
        <ele>18</ele>
        <time>2023-07-03T14:02:48Z</time>
      </trkpt>
      <trkpt lat="47.88502" lon="-3.8771">
        <ele>18.8</ele>
        <time>2023-07-03T14:02:52Z</time>
      </trkpt>
      <trkpt lat="47.88505" lon="-3.87726">
        <ele>20.4</ele>
        <time>2023-07-03T14:02:56Z</time>
      </trkpt>
      <trkpt lat="47.88506" lon="-3.87736">
        <ele>20.8</ele>
        <time>2023-07-03T14:03:00Z</time>
      </trkpt>
      <trkpt lat="47.88509" lon="-3.87748">
        <ele>22</ele>
        <time>2023-07-03T14:03:04Z</time>
      </trkpt>
      <trkpt lat="47.88512" lon="-3.87758">
        <ele>23.4</ele>
        <time>2023-07-03T14:03:08Z</time>
      </trkpt>
      <trkpt lat="47.88514" lon="-3.87768">
        <ele>24.4</ele>
        <time>2023-07-03T14:03:12Z</time>
      </trkpt>
      <trkpt lat="47.88515" lon="-3.87776">
        <ele>25.8</ele>
        <time>2023-07-03T14:03:16Z</time>
      </trkpt>
      <trkpt lat="47.88516" lon="-3.87785">
        <ele>26.8</ele>
        <time>2023-07-03T14:03:20Z</time>
      </trkpt>
      <trkpt lat="47.88517" lon="-3.87792">
        <ele>27.6</ele>
        <time>2023-07-03T14:03:24Z</time>
      </trkpt>
      <trkpt lat="47.88518" lon="-3.87802">
        <ele>29.6</ele>
        <time>2023-07-03T14:03:28Z</time>
      </trkpt>
      <trkpt lat="47.8852" lon="-3.87813">
        <ele>30.6</ele>
        <time>2023-07-03T14:03:32Z</time>
      </trkpt>
      <trkpt lat="47.88522" lon="-3.87825">
        <ele>31.6</ele>
        <time>2023-07-03T14:03:36Z</time>
      </trkpt>
      <trkpt lat="47.88523" lon="-3.8784">
        <ele>32.6</ele>
        <time>2023-07-03T14:03:40Z</time>
      </trkpt>
      <trkpt lat="47.88527" lon="-3.87849">
        <ele>34</ele>
        <time>2023-07-03T14:03:44Z</time>
      </trkpt>
      <trkpt lat="47.8853" lon="-3.87859">
        <ele>34.6</ele>
        <time>2023-07-03T14:03:48Z</time>
      </trkpt>
      <trkpt lat="47.88536" lon="-3.8787">
        <ele>35.2</ele>
        <time>2023-07-03T14:03:52Z</time>
      </trkpt>
      <trkpt lat="47.88539" lon="-3.87881">
        <ele>36.2</ele>
        <time>2023-07-03T14:03:56Z</time>
      </trkpt>
      <trkpt lat="47.88543" lon="-3.87891">
        <ele>37</ele>
        <time>2023-07-03T14:04:00Z</time>
      </trkpt>
      <trkpt lat="47.88546" lon="-3.87902">
        <ele>37.8</ele>
        <time>2023-07-03T14:04:04Z</time>
      </trkpt>
      <trkpt lat="47.88553" lon="-3.87911">
        <ele>39.2</ele>
        <time>2023-07-03T14:04:08Z</time>
      </trkpt>
      <trkpt lat="47.88557" lon="-3.87922">
        <ele>40</ele>
        <time>2023-07-03T14:04:12Z</time>
      </trkpt>
      <trkpt lat="47.8856" lon="-3.87933">
        <ele>41.4</ele>
        <time>2023-07-03T14:04:16Z</time>
      </trkpt>
      <trkpt lat="47.88561" lon="-3.87942">
        <ele>42</ele>
        <time>2023-07-03T14:04:20Z</time>
      </trkpt>
      <trkpt lat="47.88565" lon="-3.87951">
        <ele>43</ele>
        <time>2023-07-03T14:04:24Z</time>
      </trkpt>
      <trkpt lat="47.88567" lon="-3.87961">
        <ele>43.8</ele>
        <time>2023-07-03T14:04:28Z</time>
      </trkpt>
      <trkpt lat="47.88569" lon="-3.87969">
        <ele>44.4</ele>
        <time>2023-07-03T14:04:32Z</time>
      </trkpt>
      <trkpt lat="47.88572" lon="-3.87979">
        <ele>44.8</ele>
        <time>2023-07-03T14:04:36Z</time>
      </trkpt>
      <trkpt lat="47.88574" lon="-3.87987">
        <ele>46</ele>
        <time>2023-07-03T14:04:40Z</time>
      </trkpt>
      <trkpt lat="47.88577" lon="-3.87995">
        <ele>47.4</ele>
        <time>2023-07-03T14:04:44Z</time>
      </trkpt>
      <trkpt lat="47.8858" lon="-3.88006">
        <ele>47.8</ele>
        <time>2023-07-03T14:04:48Z</time>
      </trkpt>
      <trkpt lat="47.88583" lon="-3.88015">
        <ele>48.8</ele>
        <time>2023-07-03T14:04:52Z</time>
      </trkpt>
      <trkpt lat="47.88587" lon="-3.88029">
        <ele>50</ele>
        <time>2023-07-03T14:04:56Z</time>
      </trkpt>
      <trkpt lat="47.88592" lon="-3.88045">
        <ele>50.6</ele>
        <time>2023-07-03T14:05:00Z</time>
      </trkpt>
      <trkpt lat="47.88597" lon="-3.88057">
        <ele>51.2</ele>
        <time>2023-07-03T14:05:04Z</time>
      </trkpt>
      <trkpt lat="47.88599" lon="-3.88072">
        <ele>51.2</ele>
        <time>2023-07-03T14:05:08Z</time>
      </trkpt>
      <trkpt lat="47.886" lon="-3.8808">
        <ele>52.6</ele>
        <time>2023-07-03T14:05:12Z</time>
      </trkpt>
      <trkpt lat="47.88603" lon="-3.88092">
        <ele>53.6</ele>
        <time>2023-07-03T14:05:16Z</time>
      </trkpt>
      <trkpt lat="47.88606" lon="-3.88101">
        <ele>54.2</ele>
        <time>2023-07-03T14:05:20Z</time>
      </trkpt>
      <trkpt lat="47.88607" lon="-3.88113">
        <ele>55.2</ele>
        <time>2023-07-03T14:05:24Z</time>
      </trkpt>
      <trkpt lat="47.88611" lon="-3.88123">
        <ele>55.6</ele>
        <time>2023-07-03T14:05:28Z</time>
      </trkpt>
      <trkpt lat="47.88613" lon="-3.88133">
        <ele>56.6</ele>
        <time>2023-07-03T14:05:32Z</time>
      </trkpt>
      <trkpt lat="47.88614" lon="-3.88145">
        <ele>58</ele>
        <time>2023-07-03T14:05:36Z</time>
      </trkpt>
      <trkpt lat="47.88616" lon="-3.8816">
        <ele>58.2</ele>
        <time>2023-07-03T14:05:40Z</time>
      </trkpt>
      <trkpt lat="47.88618" lon="-3.88173">
        <ele>59</ele>
        <time>2023-07-03T14:05:44Z</time>
      </trkpt>
      <trkpt lat="47.88618" lon="-3.88184">
        <ele>60.2</ele>
        <time>2023-07-03T14:05:48Z</time>
      </trkpt>
      <trkpt lat="47.88619" lon="-3.88197">
        <ele>60.2</ele>
        <time>2023-07-03T14:05:52Z</time>
      </trkpt>
      <trkpt lat="47.88622" lon="-3.88209">
        <ele>61.4</ele>
        <time>2023-07-03T14:05:56Z</time>
      </trkpt>
      <trkpt lat="47.88623" lon="-3.88224">
        <ele>61.6</ele>
        <time>2023-07-03T14:06:00Z</time>
      </trkpt>
      <trkpt lat="47.88626" lon="-3.88238">
        <ele>61.8</ele>
        <time>2023-07-03T14:06:04Z</time>
      </trkpt>
      <trkpt lat="47.8863" lon="-3.88252">
        <ele>63</ele>
        <time>2023-07-03T14:06:08Z</time>
      </trkpt>
      <trkpt lat="47.88633" lon="-3.88271">
        <ele>62.8</ele>
        <time>2023-07-03T14:06:12Z</time>
      </trkpt>
      <trkpt lat="47.88634" lon="-3.88286">
        <ele>63.6</ele>
        <time>2023-07-03T14:06:16Z</time>
      </trkpt>
      <trkpt lat="47.88634" lon="-3.88303">
        <ele>63.6</ele>
        <time>2023-07-03T14:06:20Z</time>
      </trkpt>
      <trkpt lat="47.88632" lon="-3.88326">
        <ele>62.8</ele>
        <time>2023-07-03T14:06:24Z</time>
      </trkpt>
      <trkpt lat="47.88632" lon="-3.88349">
        <ele>61</ele>
        <time>2023-07-03T14:06:28Z</time>
      </trkpt>
      <trkpt lat="47.88636" lon="-3.88372">
        <ele>61.4</ele>
        <time>2023-07-03T14:06:32Z</time>
      </trkpt>
      <trkpt lat="47.88643" lon="-3.88402">
        <ele>61</ele>
        <time>2023-07-03T14:06:36Z</time>
      </trkpt>
      <trkpt lat="47.88657" lon="-3.88422">
        <ele>60.8</ele>
        <time>2023-07-03T14:06:40Z</time>
      </trkpt>
      <trkpt lat="47.88669" lon="-3.88428">
        <ele>62.2</ele>
        <time>2023-07-03T14:06:44Z</time>
      </trkpt>
      <trkpt lat="47.88678" lon="-3.88433">
        <ele>63.4</ele>
        <time>2023-07-03T14:06:48Z</time>
      </trkpt>
      <trkpt lat="47.88696" lon="-3.88436">
        <ele>63.8</ele>
        <time>2023-07-03T14:06:52Z</time>
      </trkpt>
      <trkpt lat="47.88709" lon="-3.88438">
        <ele>63.6</ele>
        <time>2023-07-03T14:06:56Z</time>
      </trkpt>
      <trkpt lat="47.88715" lon="-3.88442">
        <ele>64.8</ele>
        <time>2023-07-03T14:07:00Z</time>
      </trkpt>
      <trkpt lat="47.88724" lon="-3.88444">
        <ele>66</ele>
        <time>2023-07-03T14:07:04Z</time>
      </trkpt>
      <trkpt lat="47.88734" lon="-3.88446">
        <ele>66.8</ele>
        <time>2023-07-03T14:07:08Z</time>
      </trkpt>
      <trkpt lat="47.88743" lon="-3.88442">
        <ele>68.6</ele>
        <time>2023-07-03T14:07:12Z</time>
      </trkpt>
      <trkpt lat="47.88753" lon="-3.88438">
        <ele>70</ele>
        <time>2023-07-03T14:07:16Z</time>
      </trkpt>
      <trkpt lat="47.88764" lon="-3.88433">
        <ele>70.2</ele>
        <time>2023-07-03T14:07:20Z</time>
      </trkpt>
      <trkpt lat="47.88773" lon="-3.88431">
        <ele>70.8</ele>
        <time>2023-07-03T14:07:24Z</time>
      </trkpt>
      <trkpt lat="47.88786" lon="-3.88431">
        <ele>70.8</ele>
        <time>2023-07-03T14:07:28Z</time>
      </trkpt>
      <trkpt lat="47.88804" lon="-3.88428">
        <ele>71</ele>
        <time>2023-07-03T14:07:32Z</time>
      </trkpt>
      <trkpt lat="47.8882" lon="-3.88428">
        <ele>70.8</ele>
        <time>2023-07-03T14:07:36Z</time>
      </trkpt>
      <trkpt lat="47.88839" lon="-3.88428">
        <ele>70.8</ele>
        <time>2023-07-03T14:07:40Z</time>
      </trkpt>
      <trkpt lat="47.88859" lon="-3.88428">
        <ele>70.6</ele>
        <time>2023-07-03T14:07:44Z</time>
      </trkpt>
      <trkpt lat="47.88882" lon="-3.8843">
        <ele>71.2</ele>
        <time>2023-07-03T14:07:48Z</time>
      </trkpt>
      <trkpt lat="47.88902" lon="-3.88435">
        <ele>71.4</ele>
        <time>2023-07-03T14:07:52Z</time>
      </trkpt>
      <trkpt lat="47.88926" lon="-3.88437">
        <ele>71</ele>
        <time>2023-07-03T14:07:56Z</time>
      </trkpt>
      <trkpt lat="47.88945" lon="-3.88441">
        <ele>71.4</ele>
        <time>2023-07-03T14:08:00Z</time>
      </trkpt>
      <trkpt lat="47.88961" lon="-3.88445">
        <ele>72</ele>
        <time>2023-07-03T14:08:04Z</time>
      </trkpt>
      <trkpt lat="47.88979" lon="-3.88455">
        <ele>72.8</ele>
        <time>2023-07-03T14:08:08Z</time>
      </trkpt>
      <trkpt lat="47.89" lon="-3.88456">
        <ele>72.8</ele>
        <time>2023-07-03T14:08:12Z</time>
      </trkpt>
      <trkpt lat="47.89014" lon="-3.88436">
        <ele>73.6</ele>
        <time>2023-07-03T14:08:16Z</time>
      </trkpt>
      <trkpt lat="47.89024" lon="-3.88411">
        <ele>73.6</ele>
        <time>2023-07-03T14:08:20Z</time>
      </trkpt>
      <trkpt lat="47.89035" lon="-3.88386">
        <ele>73.8</ele>
        <time>2023-07-03T14:08:24Z</time>
      </trkpt>
      <trkpt lat="47.89045" lon="-3.88366">
        <ele>75.2</ele>
        <time>2023-07-03T14:08:28Z</time>
      </trkpt>
      <trkpt lat="47.89055" lon="-3.88347">
        <ele>76.2</ele>
        <time>2023-07-03T14:08:32Z</time>
      </trkpt>
      <trkpt lat="47.89065" lon="-3.88325">
        <ele>77</ele>
        <time>2023-07-03T14:08:36Z</time>
      </trkpt>
      <trkpt lat="47.89072" lon="-3.88305">
        <ele>78.2</ele>
        <time>2023-07-03T14:08:40Z</time>
      </trkpt>
      <trkpt lat="47.89077" lon="-3.88283">
        <ele>78.6</ele>
        <time>2023-07-03T14:08:44Z</time>
      </trkpt>
      <trkpt lat="47.89082" lon="-3.88261">
        <ele>78.4</ele>
        <time>2023-07-03T14:08:48Z</time>
      </trkpt>
      <trkpt lat="47.89087" lon="-3.88237">
        <ele>78.6</ele>
        <time>2023-07-03T14:08:52Z</time>
      </trkpt>
      <trkpt lat="47.89092" lon="-3.88215">
        <ele>78</ele>
        <time>2023-07-03T14:08:56Z</time>
      </trkpt>
      <trkpt lat="47.89097" lon="-3.88193">
        <ele>78</ele>
        <time>2023-07-03T14:09:00Z</time>
      </trkpt>
    </trkseg>
  </trk>
</gpx>